<?xml version="1.0" encoding="UTF-8" standalone="no" ?>
<gpx xmlns="http://www.topografix.com/GPX/1/1" xmlns:xsi="http://www.w3.org/2001/XMLSchema-instance" xsi:schemaLocation="http://www.topografix.com/GPX/1/1 http://www.topografix.com/GPX/1/1/gpx.xsd" version="1.1" creator="VisuGPX - https://www.visugpx.com">
  <metadata>
    <name>Rspg la Baume col de Valdrôme</name>
    <desc><![CDATA[Au départ de du village de la BAUME parking de la gare, prendre le sentier qui monte vers le sommet de Bane 1643 m puis descendre par le sentier ouest vers le col de Valdrôme  et retour vers le village par le chemin et le sentier balisé]]></desc>
  </metadata>
  <trk>
    <name><![CDATA[La Beaume col de Valdrome]]></name>
    <trkseg>
      <trkpt lat="44.55222" lon="5.63642">
        <ele>862.44</ele>
        <time>2018-08-16T06:30:56Z</time>
      </trkpt>
      <trkpt lat="44.5522" lon="5.63644">
        <ele>865.8</ele>
        <time>2018-08-16T06:31:01Z</time>
      </trkpt>
      <trkpt lat="44.55219" lon="5.63644">
        <ele>868.21</ele>
        <time>2018-08-16T06:31:06Z</time>
      </trkpt>
      <trkpt lat="44.55216" lon="5.63643">
        <ele>871.57</ele>
        <time>2018-08-16T06:31:13Z</time>
      </trkpt>
      <trkpt lat="44.55213" lon="5.63643">
        <ele>874.46</ele>
        <time>2018-08-16T06:31:21Z</time>
      </trkpt>
      <trkpt lat="44.55213" lon="5.63644">
        <ele>875.42</ele>
        <time>2018-08-16T06:31:24Z</time>
      </trkpt>
      <trkpt lat="44.55213" lon="5.63644">
        <ele>962.9</ele>
        <time>2018-08-16T06:31:28Z</time>
      </trkpt>
      <trkpt lat="44.55214" lon="5.63646">
        <ele>885.03</ele>
        <time>2018-08-16T06:31:31Z</time>
      </trkpt>
      <trkpt lat="44.55214" lon="5.63646">
        <ele>885.03</ele>
        <time>2018-08-16T06:31:32Z</time>
      </trkpt>
      <trkpt lat="44.55215" lon="5.63647">
        <ele>885.51</ele>
        <time>2018-08-16T06:31:55Z</time>
      </trkpt>
      <trkpt lat="44.55215" lon="5.6365">
        <ele>885.03</ele>
        <time>2018-08-16T06:32:20Z</time>
      </trkpt>
      <trkpt lat="44.55214" lon="5.63651">
        <ele>885.03</ele>
        <time>2018-08-16T06:32:39Z</time>
      </trkpt>
      <trkpt lat="44.55216" lon="5.6365">
        <ele>885.03</ele>
        <time>2018-08-16T06:33:00Z</time>
      </trkpt>
      <trkpt lat="44.55217" lon="5.63646">
        <ele>884.07</ele>
        <time>2018-08-16T06:33:11Z</time>
      </trkpt>
      <trkpt lat="44.55217" lon="5.63648">
        <ele>884.07</ele>
        <time>2018-08-16T06:33:25Z</time>
      </trkpt>
      <trkpt lat="44.55217" lon="5.63643">
        <ele>885.03</ele>
        <time>2018-08-16T06:33:34Z</time>
      </trkpt>
      <trkpt lat="44.55222" lon="5.63627">
        <ele>885.51</ele>
        <time>2018-08-16T06:33:45Z</time>
      </trkpt>
      <trkpt lat="44.55226" lon="5.63612">
        <ele>885.99</ele>
        <time>2018-08-16T06:33:59Z</time>
      </trkpt>
      <trkpt lat="44.55228" lon="5.63595">
        <ele>886.95</ele>
        <time>2018-08-16T06:34:13Z</time>
      </trkpt>
      <trkpt lat="44.55231" lon="5.63579">
        <ele>887.43</ele>
        <time>2018-08-16T06:34:28Z</time>
      </trkpt>
      <trkpt lat="44.55236" lon="5.63571">
        <ele>887.91</ele>
        <time>2018-08-16T06:34:34Z</time>
      </trkpt>
      <trkpt lat="44.55237" lon="5.63552">
        <ele>887.91</ele>
        <time>2018-08-16T06:34:49Z</time>
      </trkpt>
      <trkpt lat="44.55241" lon="5.63533">
        <ele>888.4</ele>
        <time>2018-08-16T06:35:05Z</time>
      </trkpt>
      <trkpt lat="44.55245" lon="5.63516">
        <ele>888.4</ele>
        <time>2018-08-16T06:35:19Z</time>
      </trkpt>
      <trkpt lat="44.55248" lon="5.6351">
        <ele>888.4</ele>
        <time>2018-08-16T06:35:32Z</time>
      </trkpt>
      <trkpt lat="44.5525" lon="5.63511">
        <ele>888.88</ele>
        <time>2018-08-16T06:35:46Z</time>
      </trkpt>
      <trkpt lat="44.55252" lon="5.63511">
        <ele>889.84</ele>
        <time>2018-08-16T06:35:50Z</time>
      </trkpt>
      <trkpt lat="44.55265" lon="5.63513">
        <ele>890.8</ele>
        <time>2018-08-16T06:36:04Z</time>
      </trkpt>
      <trkpt lat="44.55285" lon="5.63512">
        <ele>892.24</ele>
        <time>2018-08-16T06:36:21Z</time>
      </trkpt>
      <trkpt lat="44.55297" lon="5.63506">
        <ele>893.2</ele>
        <time>2018-08-16T06:36:33Z</time>
      </trkpt>
      <trkpt lat="44.55299" lon="5.63489">
        <ele>894.16</ele>
        <time>2018-08-16T06:36:44Z</time>
      </trkpt>
      <trkpt lat="44.55301" lon="5.63459">
        <ele>894.64</ele>
        <time>2018-08-16T06:37:03Z</time>
      </trkpt>
      <trkpt lat="44.55303" lon="5.63437">
        <ele>895.61</ele>
        <time>2018-08-16T06:37:17Z</time>
      </trkpt>
      <trkpt lat="44.55306" lon="5.63409">
        <ele>896.57</ele>
        <time>2018-08-16T06:37:35Z</time>
      </trkpt>
      <trkpt lat="44.55308" lon="5.63385">
        <ele>898.01</ele>
        <time>2018-08-16T06:37:51Z</time>
      </trkpt>
      <trkpt lat="44.55309" lon="5.63367">
        <ele>898.97</ele>
        <time>2018-08-16T06:38:05Z</time>
      </trkpt>
      <trkpt lat="44.5531" lon="5.63345">
        <ele>899.45</ele>
        <time>2018-08-16T06:38:19Z</time>
      </trkpt>
      <trkpt lat="44.55312" lon="5.63319">
        <ele>900.89</ele>
        <time>2018-08-16T06:38:37Z</time>
      </trkpt>
      <trkpt lat="44.55312" lon="5.63298">
        <ele>902.33</ele>
        <time>2018-08-16T06:38:52Z</time>
      </trkpt>
      <trkpt lat="44.55305" lon="5.63287">
        <ele>900.41</ele>
        <time>2018-08-16T06:39:06Z</time>
      </trkpt>
      <trkpt lat="44.55302" lon="5.63285">
        <ele>899.93</ele>
        <time>2018-08-16T06:39:10Z</time>
      </trkpt>
      <trkpt lat="44.55297" lon="5.63284">
        <ele>899.45</ele>
        <time>2018-08-16T06:39:16Z</time>
      </trkpt>
      <trkpt lat="44.55282" lon="5.6327">
        <ele>898.97</ele>
        <time>2018-08-16T06:39:33Z</time>
      </trkpt>
      <trkpt lat="44.55277" lon="5.63265">
        <ele>898.49</ele>
        <time>2018-08-16T06:39:38Z</time>
      </trkpt>
      <trkpt lat="44.55272" lon="5.63257">
        <ele>898.49</ele>
        <time>2018-08-16T06:39:46Z</time>
      </trkpt>
      <trkpt lat="44.55272" lon="5.6325">
        <ele>898.49</ele>
        <time>2018-08-16T06:39:50Z</time>
      </trkpt>
      <trkpt lat="44.55279" lon="5.63234">
        <ele>899.45</ele>
        <time>2018-08-16T06:40:02Z</time>
      </trkpt>
      <trkpt lat="44.55283" lon="5.63226">
        <ele>898.97</ele>
        <time>2018-08-16T06:40:08Z</time>
      </trkpt>
      <trkpt lat="44.55284" lon="5.6322">
        <ele>898.97</ele>
        <time>2018-08-16T06:40:12Z</time>
      </trkpt>
      <trkpt lat="44.55291" lon="5.63197">
        <ele>899.93</ele>
        <time>2018-08-16T06:40:30Z</time>
      </trkpt>
      <trkpt lat="44.55293" lon="5.63189">
        <ele>899.93</ele>
        <time>2018-08-16T06:40:35Z</time>
      </trkpt>
      <trkpt lat="44.55295" lon="5.63173">
        <ele>901.37</ele>
        <time>2018-08-16T06:40:50Z</time>
      </trkpt>
      <trkpt lat="44.55292" lon="5.63158">
        <ele>901.85</ele>
        <time>2018-08-16T06:41:05Z</time>
      </trkpt>
      <trkpt lat="44.55294" lon="5.63152">
        <ele>901.85</ele>
        <time>2018-08-16T06:41:18Z</time>
      </trkpt>
      <trkpt lat="44.55296" lon="5.63139">
        <ele>903.3</ele>
        <time>2018-08-16T06:41:33Z</time>
      </trkpt>
      <trkpt lat="44.55297" lon="5.63129">
        <ele>904.26</ele>
        <time>2018-08-16T06:41:46Z</time>
      </trkpt>
      <trkpt lat="44.55303" lon="5.63121">
        <ele>905.7</ele>
        <time>2018-08-16T06:41:58Z</time>
      </trkpt>
      <trkpt lat="44.55308" lon="5.6311">
        <ele>907.14</ele>
        <time>2018-08-16T06:42:13Z</time>
      </trkpt>
      <trkpt lat="44.55305" lon="5.63099">
        <ele>908.58</ele>
        <time>2018-08-16T06:42:28Z</time>
      </trkpt>
      <trkpt lat="44.55302" lon="5.63092">
        <ele>910.51</ele>
        <time>2018-08-16T06:42:40Z</time>
      </trkpt>
      <trkpt lat="44.55296" lon="5.63087">
        <ele>911.95</ele>
        <time>2018-08-16T06:42:52Z</time>
      </trkpt>
      <trkpt lat="44.55289" lon="5.63082">
        <ele>913.39</ele>
        <time>2018-08-16T06:43:05Z</time>
      </trkpt>
      <trkpt lat="44.55278" lon="5.63074">
        <ele>915.31</ele>
        <time>2018-08-16T06:43:20Z</time>
      </trkpt>
      <trkpt lat="44.55273" lon="5.63067">
        <ele>916.75</ele>
        <time>2018-08-16T06:43:34Z</time>
      </trkpt>
      <trkpt lat="44.55269" lon="5.63055">
        <ele>918.2</ele>
        <time>2018-08-16T06:43:49Z</time>
      </trkpt>
      <trkpt lat="44.55267" lon="5.63048">
        <ele>919.64</ele>
        <time>2018-08-16T06:43:59Z</time>
      </trkpt>
      <trkpt lat="44.55264" lon="5.63036">
        <ele>920.6</ele>
        <time>2018-08-16T06:44:12Z</time>
      </trkpt>
      <trkpt lat="44.55265" lon="5.63026">
        <ele>922.04</ele>
        <time>2018-08-16T06:44:24Z</time>
      </trkpt>
      <trkpt lat="44.55264" lon="5.63017">
        <ele>923.48</ele>
        <time>2018-08-16T06:44:36Z</time>
      </trkpt>
      <trkpt lat="44.55262" lon="5.63008">
        <ele>925.41</ele>
        <time>2018-08-16T06:44:50Z</time>
      </trkpt>
      <trkpt lat="44.55261" lon="5.62999">
        <ele>926.85</ele>
        <time>2018-08-16T06:45:04Z</time>
      </trkpt>
      <trkpt lat="44.55258" lon="5.62993">
        <ele>928.29</ele>
        <time>2018-08-16T06:45:16Z</time>
      </trkpt>
      <trkpt lat="44.55253" lon="5.62986">
        <ele>930.69</ele>
        <time>2018-08-16T06:45:31Z</time>
      </trkpt>
      <trkpt lat="44.55246" lon="5.62978">
        <ele>932.14</ele>
        <time>2018-08-16T06:45:44Z</time>
      </trkpt>
      <trkpt lat="44.55242" lon="5.62969">
        <ele>933.58</ele>
        <time>2018-08-16T06:46:00Z</time>
      </trkpt>
      <trkpt lat="44.5524" lon="5.62959">
        <ele>935.98</ele>
        <time>2018-08-16T06:46:17Z</time>
      </trkpt>
      <trkpt lat="44.55236" lon="5.62952">
        <ele>937.42</ele>
        <time>2018-08-16T06:46:30Z</time>
      </trkpt>
      <trkpt lat="44.55233" lon="5.62943">
        <ele>939.35</ele>
        <time>2018-08-16T06:46:43Z</time>
      </trkpt>
      <trkpt lat="44.55228" lon="5.62936">
        <ele>941.27</ele>
        <time>2018-08-16T06:46:57Z</time>
      </trkpt>
      <trkpt lat="44.55227" lon="5.62935">
        <ele>941.27</ele>
        <time>2018-08-16T06:46:58Z</time>
      </trkpt>
      <trkpt lat="44.55227" lon="5.62927">
        <ele>943.19</ele>
        <time>2018-08-16T06:47:12Z</time>
      </trkpt>
      <trkpt lat="44.55229" lon="5.62921">
        <ele>944.15</ele>
        <time>2018-08-16T06:47:19Z</time>
      </trkpt>
      <trkpt lat="44.5523" lon="5.62915">
        <ele>946.07</ele>
        <time>2018-08-16T06:47:33Z</time>
      </trkpt>
      <trkpt lat="44.55228" lon="5.62905">
        <ele>949.44</ele>
        <time>2018-08-16T06:47:50Z</time>
      </trkpt>
      <trkpt lat="44.55225" lon="5.6289">
        <ele>951.36</ele>
        <time>2018-08-16T06:48:04Z</time>
      </trkpt>
      <trkpt lat="44.55224" lon="5.62881">
        <ele>952.8</ele>
        <time>2018-08-16T06:48:16Z</time>
      </trkpt>
      <trkpt lat="44.55227" lon="5.62871">
        <ele>954.73</ele>
        <time>2018-08-16T06:48:31Z</time>
      </trkpt>
      <trkpt lat="44.55227" lon="5.6286">
        <ele>956.17</ele>
        <time>2018-08-16T06:48:43Z</time>
      </trkpt>
      <trkpt lat="44.55228" lon="5.62851">
        <ele>958.09</ele>
        <time>2018-08-16T06:48:55Z</time>
      </trkpt>
      <trkpt lat="44.55227" lon="5.62838">
        <ele>960.01</ele>
        <time>2018-08-16T06:49:11Z</time>
      </trkpt>
      <trkpt lat="44.55228" lon="5.62825">
        <ele>961.46</ele>
        <time>2018-08-16T06:49:24Z</time>
      </trkpt>
      <trkpt lat="44.55233" lon="5.62817">
        <ele>961.94</ele>
        <time>2018-08-16T06:49:32Z</time>
      </trkpt>
      <trkpt lat="44.55232" lon="5.62812">
        <ele>962.42</ele>
        <time>2018-08-16T06:49:36Z</time>
      </trkpt>
      <trkpt lat="44.55233" lon="5.62804">
        <ele>963.86</ele>
        <time>2018-08-16T06:49:49Z</time>
      </trkpt>
      <trkpt lat="44.55236" lon="5.62788">
        <ele>966.26</ele>
        <time>2018-08-16T06:50:04Z</time>
      </trkpt>
      <trkpt lat="44.55236" lon="5.62786">
        <ele>966.26</ele>
        <time>2018-08-16T06:50:06Z</time>
      </trkpt>
      <trkpt lat="44.55236" lon="5.62771">
        <ele>967.7</ele>
        <time>2018-08-16T06:50:20Z</time>
      </trkpt>
      <trkpt lat="44.55235" lon="5.62758">
        <ele>968.67</ele>
        <time>2018-08-16T06:50:32Z</time>
      </trkpt>
      <trkpt lat="44.55235" lon="5.62755">
        <ele>969.15</ele>
        <time>2018-08-16T06:50:35Z</time>
      </trkpt>
      <trkpt lat="44.5523" lon="5.62735">
        <ele>970.11</ele>
        <time>2018-08-16T06:50:50Z</time>
      </trkpt>
      <trkpt lat="44.55231" lon="5.6272">
        <ele>971.55</ele>
        <time>2018-08-16T06:51:04Z</time>
      </trkpt>
      <trkpt lat="44.55233" lon="5.62709">
        <ele>972.99</ele>
        <time>2018-08-16T06:51:18Z</time>
      </trkpt>
      <trkpt lat="44.55235" lon="5.62697">
        <ele>974.91</ele>
        <time>2018-08-16T06:51:31Z</time>
      </trkpt>
      <trkpt lat="44.55238" lon="5.62683">
        <ele>975.88</ele>
        <time>2018-08-16T06:51:44Z</time>
      </trkpt>
      <trkpt lat="44.55237" lon="5.6267">
        <ele>977.8</ele>
        <time>2018-08-16T06:51:57Z</time>
      </trkpt>
      <trkpt lat="44.55236" lon="5.62658">
        <ele>979.72</ele>
        <time>2018-08-16T06:52:11Z</time>
      </trkpt>
      <trkpt lat="44.55233" lon="5.62652">
        <ele>980.2</ele>
        <time>2018-08-16T06:52:19Z</time>
      </trkpt>
      <trkpt lat="44.55231" lon="5.62634">
        <ele>981.16</ele>
        <time>2018-08-16T06:52:32Z</time>
      </trkpt>
      <trkpt lat="44.55232" lon="5.62618">
        <ele>981.64</ele>
        <time>2018-08-16T06:52:46Z</time>
      </trkpt>
      <trkpt lat="44.55232" lon="5.62615">
        <ele>982.12</ele>
        <time>2018-08-16T06:52:48Z</time>
      </trkpt>
      <trkpt lat="44.5523" lon="5.62601">
        <ele>982.6</ele>
        <time>2018-08-16T06:52:58Z</time>
      </trkpt>
      <trkpt lat="44.55234" lon="5.62586">
        <ele>983.57</ele>
        <time>2018-08-16T06:53:10Z</time>
      </trkpt>
      <trkpt lat="44.55235" lon="5.6258">
        <ele>985.01</ele>
        <time>2018-08-16T06:53:20Z</time>
      </trkpt>
      <trkpt lat="44.55245" lon="5.62575">
        <ele>986.93</ele>
        <time>2018-08-16T06:53:34Z</time>
      </trkpt>
      <trkpt lat="44.55246" lon="5.62566">
        <ele>987.89</ele>
        <time>2018-08-16T06:53:46Z</time>
      </trkpt>
      <trkpt lat="44.55244" lon="5.62559">
        <ele>989.33</ele>
        <time>2018-08-16T06:53:56Z</time>
      </trkpt>
      <trkpt lat="44.55249" lon="5.6256">
        <ele>988.37</ele>
        <time>2018-08-16T06:54:09Z</time>
      </trkpt>
      <trkpt lat="44.55243" lon="5.62558">
        <ele>988.37</ele>
        <time>2018-08-16T06:54:17Z</time>
      </trkpt>
      <trkpt lat="44.55248" lon="5.62559">
        <ele>988.37</ele>
        <time>2018-08-16T06:54:32Z</time>
      </trkpt>
      <trkpt lat="44.55247" lon="5.62558">
        <ele>988.37</ele>
        <time>2018-08-16T06:54:57Z</time>
      </trkpt>
      <trkpt lat="44.55251" lon="5.62554">
        <ele>988.37</ele>
        <time>2018-08-16T06:55:30Z</time>
      </trkpt>
      <trkpt lat="44.55257" lon="5.62558">
        <ele>988.37</ele>
        <time>2018-08-16T06:56:05Z</time>
      </trkpt>
      <trkpt lat="44.55252" lon="5.62563">
        <ele>988.85</ele>
        <time>2018-08-16T06:56:34Z</time>
      </trkpt>
      <trkpt lat="44.5525" lon="5.62561">
        <ele>989.33</ele>
        <time>2018-08-16T06:56:47Z</time>
      </trkpt>
      <trkpt lat="44.55248" lon="5.62562">
        <ele>989.33</ele>
        <time>2018-08-16T06:56:56Z</time>
      </trkpt>
      <trkpt lat="44.5524" lon="5.62566">
        <ele>989.81</ele>
        <time>2018-08-16T06:57:06Z</time>
      </trkpt>
      <trkpt lat="44.55228" lon="5.62571">
        <ele>991.26</ele>
        <time>2018-08-16T06:57:20Z</time>
      </trkpt>
      <trkpt lat="44.55215" lon="5.6257">
        <ele>993.18</ele>
        <time>2018-08-16T06:57:34Z</time>
      </trkpt>
      <trkpt lat="44.55213" lon="5.6257">
        <ele>993.18</ele>
        <time>2018-08-16T06:57:36Z</time>
      </trkpt>
      <trkpt lat="44.55205" lon="5.62579">
        <ele>994.62</ele>
        <time>2018-08-16T06:57:47Z</time>
      </trkpt>
      <trkpt lat="44.55196" lon="5.62595">
        <ele>996.06</ele>
        <time>2018-08-16T06:58:00Z</time>
      </trkpt>
      <trkpt lat="44.55194" lon="5.62602">
        <ele>996.54</ele>
        <time>2018-08-16T06:58:06Z</time>
      </trkpt>
      <trkpt lat="44.55188" lon="5.62618">
        <ele>997.99</ele>
        <time>2018-08-16T06:58:20Z</time>
      </trkpt>
      <trkpt lat="44.55182" lon="5.62634">
        <ele>999.43</ele>
        <time>2018-08-16T06:58:34Z</time>
      </trkpt>
      <trkpt lat="44.55172" lon="5.62649">
        <ele>1001.35</ele>
        <time>2018-08-16T06:58:51Z</time>
      </trkpt>
      <trkpt lat="44.55164" lon="5.6266">
        <ele>1002.31</ele>
        <time>2018-08-16T06:59:04Z</time>
      </trkpt>
      <trkpt lat="44.55153" lon="5.62666">
        <ele>1003.75</ele>
        <time>2018-08-16T06:59:18Z</time>
      </trkpt>
      <trkpt lat="44.55143" lon="5.62663">
        <ele>1004.72</ele>
        <time>2018-08-16T06:59:31Z</time>
      </trkpt>
      <trkpt lat="44.55137" lon="5.62657">
        <ele>1006.16</ele>
        <time>2018-08-16T06:59:44Z</time>
      </trkpt>
      <trkpt lat="44.55126" lon="5.62649">
        <ele>1007.12</ele>
        <time>2018-08-16T06:59:58Z</time>
      </trkpt>
      <trkpt lat="44.55112" lon="5.62648">
        <ele>1008.08</ele>
        <time>2018-08-16T07:00:07Z</time>
      </trkpt>
      <trkpt lat="44.55104" lon="5.62653">
        <ele>1008.56</ele>
        <time>2018-08-16T07:00:14Z</time>
      </trkpt>
      <trkpt lat="44.55094" lon="5.62665">
        <ele>1010.48</ele>
        <time>2018-08-16T07:00:28Z</time>
      </trkpt>
      <trkpt lat="44.55085" lon="5.6268">
        <ele>1011.44</ele>
        <time>2018-08-16T07:00:43Z</time>
      </trkpt>
      <trkpt lat="44.55081" lon="5.62693">
        <ele>1012.89</ele>
        <time>2018-08-16T07:00:56Z</time>
      </trkpt>
      <trkpt lat="44.55076" lon="5.62708">
        <ele>1013.85</ele>
        <time>2018-08-16T07:01:09Z</time>
      </trkpt>
      <trkpt lat="44.5507" lon="5.62721">
        <ele>1014.81</ele>
        <time>2018-08-16T07:01:22Z</time>
      </trkpt>
      <trkpt lat="44.55064" lon="5.62731">
        <ele>1015.77</ele>
        <time>2018-08-16T07:01:35Z</time>
      </trkpt>
      <trkpt lat="44.55055" lon="5.62735">
        <ele>1017.21</ele>
        <time>2018-08-16T07:01:48Z</time>
      </trkpt>
      <trkpt lat="44.55047" lon="5.62734">
        <ele>1018.65</ele>
        <time>2018-08-16T07:02:01Z</time>
      </trkpt>
      <trkpt lat="44.55038" lon="5.6273">
        <ele>1020.1</ele>
        <time>2018-08-16T07:02:15Z</time>
      </trkpt>
      <trkpt lat="44.55029" lon="5.62724">
        <ele>1021.54</ele>
        <time>2018-08-16T07:02:28Z</time>
      </trkpt>
      <trkpt lat="44.55018" lon="5.62716">
        <ele>1022.5</ele>
        <time>2018-08-16T07:02:42Z</time>
      </trkpt>
      <trkpt lat="44.55005" lon="5.62707">
        <ele>1023.46</ele>
        <time>2018-08-16T07:02:57Z</time>
      </trkpt>
      <trkpt lat="44.54999" lon="5.62701">
        <ele>1023.94</ele>
        <time>2018-08-16T07:03:08Z</time>
      </trkpt>
      <trkpt lat="44.54992" lon="5.6269">
        <ele>1024.42</ele>
        <time>2018-08-16T07:03:18Z</time>
      </trkpt>
      <trkpt lat="44.5499" lon="5.62687">
        <ele>1024.42</ele>
        <time>2018-08-16T07:03:21Z</time>
      </trkpt>
      <trkpt lat="44.54985" lon="5.62668">
        <ele>1025.86</ele>
        <time>2018-08-16T07:03:36Z</time>
      </trkpt>
      <trkpt lat="44.54979" lon="5.62655">
        <ele>1027.31</ele>
        <time>2018-08-16T07:03:48Z</time>
      </trkpt>
      <trkpt lat="44.54968" lon="5.62649">
        <ele>1028.27</ele>
        <time>2018-08-16T07:04:01Z</time>
      </trkpt>
      <trkpt lat="44.54957" lon="5.62648">
        <ele>1029.23</ele>
        <time>2018-08-16T07:04:14Z</time>
      </trkpt>
      <trkpt lat="44.54949" lon="5.62645">
        <ele>1030.19</ele>
        <time>2018-08-16T07:04:26Z</time>
      </trkpt>
      <trkpt lat="44.54942" lon="5.62639">
        <ele>1031.63</ele>
        <time>2018-08-16T07:04:39Z</time>
      </trkpt>
      <trkpt lat="44.54931" lon="5.62633">
        <ele>1033.07</ele>
        <time>2018-08-16T07:04:51Z</time>
      </trkpt>
      <trkpt lat="44.5492" lon="5.6263">
        <ele>1034.04</ele>
        <time>2018-08-16T07:05:02Z</time>
      </trkpt>
      <trkpt lat="44.54918" lon="5.62629">
        <ele>1034.04</ele>
        <time>2018-08-16T07:05:03Z</time>
      </trkpt>
      <trkpt lat="44.54917" lon="5.62629">
        <ele>1034.04</ele>
        <time>2018-08-16T07:05:04Z</time>
      </trkpt>
      <trkpt lat="44.54905" lon="5.62636">
        <ele>1035.96</ele>
        <time>2018-08-16T07:05:17Z</time>
      </trkpt>
      <trkpt lat="44.54905" lon="5.62638">
        <ele>1035.96</ele>
        <time>2018-08-16T07:05:18Z</time>
      </trkpt>
      <trkpt lat="44.54901" lon="5.62656">
        <ele>1036.92</ele>
        <time>2018-08-16T07:05:31Z</time>
      </trkpt>
      <trkpt lat="44.54898" lon="5.62673">
        <ele>1038.84</ele>
        <time>2018-08-16T07:05:46Z</time>
      </trkpt>
      <trkpt lat="44.54896" lon="5.62682">
        <ele>1039.32</ele>
        <time>2018-08-16T07:05:54Z</time>
      </trkpt>
      <trkpt lat="44.54897" lon="5.6269">
        <ele>1039.8</ele>
        <time>2018-08-16T07:06:01Z</time>
      </trkpt>
      <trkpt lat="44.54892" lon="5.62705">
        <ele>1041.25</ele>
        <time>2018-08-16T07:06:16Z</time>
      </trkpt>
      <trkpt lat="44.54886" lon="5.62715">
        <ele>1042.69</ele>
        <time>2018-08-16T07:06:29Z</time>
      </trkpt>
      <trkpt lat="44.54885" lon="5.62715">
        <ele>1042.69</ele>
        <time>2018-08-16T07:06:30Z</time>
      </trkpt>
      <trkpt lat="44.54877" lon="5.62725">
        <ele>1044.13</ele>
        <time>2018-08-16T07:06:43Z</time>
      </trkpt>
      <trkpt lat="44.54864" lon="5.62731">
        <ele>1045.57</ele>
        <time>2018-08-16T07:06:58Z</time>
      </trkpt>
      <trkpt lat="44.54856" lon="5.62741">
        <ele>1047.01</ele>
        <time>2018-08-16T07:07:09Z</time>
      </trkpt>
      <trkpt lat="44.54845" lon="5.62753">
        <ele>1048.45</ele>
        <time>2018-08-16T07:07:25Z</time>
      </trkpt>
      <trkpt lat="44.54837" lon="5.62767">
        <ele>1049.9</ele>
        <time>2018-08-16T07:07:40Z</time>
      </trkpt>
      <trkpt lat="44.54825" lon="5.62774">
        <ele>1051.34</ele>
        <time>2018-08-16T07:07:55Z</time>
      </trkpt>
      <trkpt lat="44.54821" lon="5.62774">
        <ele>1051.82</ele>
        <time>2018-08-16T07:07:59Z</time>
      </trkpt>
      <trkpt lat="44.54811" lon="5.62773">
        <ele>1052.78</ele>
        <time>2018-08-16T07:08:12Z</time>
      </trkpt>
      <trkpt lat="44.54806" lon="5.62769">
        <ele>1053.26</ele>
        <time>2018-08-16T07:08:19Z</time>
      </trkpt>
      <trkpt lat="44.54797" lon="5.62761">
        <ele>1054.22</ele>
        <time>2018-08-16T07:08:32Z</time>
      </trkpt>
      <trkpt lat="44.54786" lon="5.6275">
        <ele>1055.67</ele>
        <time>2018-08-16T07:08:47Z</time>
      </trkpt>
      <trkpt lat="44.54781" lon="5.62746">
        <ele>1056.15</ele>
        <time>2018-08-16T07:08:53Z</time>
      </trkpt>
      <trkpt lat="44.54772" lon="5.62733">
        <ele>1057.59</ele>
        <time>2018-08-16T07:09:07Z</time>
      </trkpt>
      <trkpt lat="44.54765" lon="5.62727">
        <ele>1058.55</ele>
        <time>2018-08-16T07:09:17Z</time>
      </trkpt>
      <trkpt lat="44.54755" lon="5.62721">
        <ele>1059.51</ele>
        <time>2018-08-16T07:09:30Z</time>
      </trkpt>
      <trkpt lat="44.54743" lon="5.62717">
        <ele>1061.43</ele>
        <time>2018-08-16T07:09:45Z</time>
      </trkpt>
      <trkpt lat="44.54729" lon="5.62712">
        <ele>1062.39</ele>
        <time>2018-08-16T07:10:01Z</time>
      </trkpt>
      <trkpt lat="44.54717" lon="5.62714">
        <ele>1064.32</ele>
        <time>2018-08-16T07:10:15Z</time>
      </trkpt>
      <trkpt lat="44.54702" lon="5.62721">
        <ele>1065.28</ele>
        <time>2018-08-16T07:10:32Z</time>
      </trkpt>
      <trkpt lat="44.54687" lon="5.62732">
        <ele>1066.72</ele>
        <time>2018-08-16T07:10:48Z</time>
      </trkpt>
      <trkpt lat="44.54678" lon="5.62747">
        <ele>1068.64</ele>
        <time>2018-08-16T07:11:03Z</time>
      </trkpt>
      <trkpt lat="44.54675" lon="5.62751">
        <ele>1069.12</ele>
        <time>2018-08-16T07:11:09Z</time>
      </trkpt>
      <trkpt lat="44.54665" lon="5.62762">
        <ele>1070.57</ele>
        <time>2018-08-16T07:11:23Z</time>
      </trkpt>
      <trkpt lat="44.54659" lon="5.62773">
        <ele>1071.05</ele>
        <time>2018-08-16T07:11:35Z</time>
      </trkpt>
      <trkpt lat="44.54653" lon="5.62788">
        <ele>1072.97</ele>
        <time>2018-08-16T07:11:50Z</time>
      </trkpt>
      <trkpt lat="44.54652" lon="5.6279">
        <ele>1072.97</ele>
        <time>2018-08-16T07:11:52Z</time>
      </trkpt>
      <trkpt lat="44.54644" lon="5.62803">
        <ele>1074.41</ele>
        <time>2018-08-16T07:12:05Z</time>
      </trkpt>
      <trkpt lat="44.54634" lon="5.62814">
        <ele>1075.85</ele>
        <time>2018-08-16T07:12:20Z</time>
      </trkpt>
      <trkpt lat="44.54627" lon="5.62824">
        <ele>1077.29</ele>
        <time>2018-08-16T07:12:34Z</time>
      </trkpt>
      <trkpt lat="44.54616" lon="5.62837">
        <ele>1079.22</ele>
        <time>2018-08-16T07:12:51Z</time>
      </trkpt>
      <trkpt lat="44.5461" lon="5.62847">
        <ele>1080.18</ele>
        <time>2018-08-16T07:13:02Z</time>
      </trkpt>
      <trkpt lat="44.54606" lon="5.62853">
        <ele>1080.66</ele>
        <time>2018-08-16T07:13:09Z</time>
      </trkpt>
      <trkpt lat="44.54605" lon="5.62854">
        <ele>1081.14</ele>
        <time>2018-08-16T07:13:10Z</time>
      </trkpt>
      <trkpt lat="44.54603" lon="5.62855">
        <ele>1081.14</ele>
        <time>2018-08-16T07:13:11Z</time>
      </trkpt>
      <trkpt lat="44.54601" lon="5.62862">
        <ele>1082.1</ele>
        <time>2018-08-16T07:13:19Z</time>
      </trkpt>
      <trkpt lat="44.54591" lon="5.62877">
        <ele>1083.54</ele>
        <time>2018-08-16T07:13:34Z</time>
      </trkpt>
      <trkpt lat="44.54577" lon="5.62889">
        <ele>1084.99</ele>
        <time>2018-08-16T07:13:52Z</time>
      </trkpt>
      <trkpt lat="44.54566" lon="5.62891">
        <ele>1086.43</ele>
        <time>2018-08-16T07:14:07Z</time>
      </trkpt>
      <trkpt lat="44.54557" lon="5.6289">
        <ele>1087.87</ele>
        <time>2018-08-16T07:14:21Z</time>
      </trkpt>
      <trkpt lat="44.54554" lon="5.62891">
        <ele>1087.87</ele>
        <time>2018-08-16T07:14:24Z</time>
      </trkpt>
      <trkpt lat="44.54545" lon="5.62895">
        <ele>1089.31</ele>
        <time>2018-08-16T07:14:35Z</time>
      </trkpt>
      <trkpt lat="44.54538" lon="5.62901">
        <ele>1090.27</ele>
        <time>2018-08-16T07:14:44Z</time>
      </trkpt>
      <trkpt lat="44.54533" lon="5.62913">
        <ele>1091.23</ele>
        <time>2018-08-16T07:14:57Z</time>
      </trkpt>
      <trkpt lat="44.54525" lon="5.62924">
        <ele>1092.68</ele>
        <time>2018-08-16T07:15:09Z</time>
      </trkpt>
      <trkpt lat="44.54521" lon="5.62935">
        <ele>1093.64</ele>
        <time>2018-08-16T07:15:21Z</time>
      </trkpt>
      <trkpt lat="44.54518" lon="5.62953">
        <ele>1095.08</ele>
        <time>2018-08-16T07:15:36Z</time>
      </trkpt>
      <trkpt lat="44.54517" lon="5.62959">
        <ele>1095.56</ele>
        <time>2018-08-16T07:15:41Z</time>
      </trkpt>
      <trkpt lat="44.54516" lon="5.62975">
        <ele>1097</ele>
        <time>2018-08-16T07:15:55Z</time>
      </trkpt>
      <trkpt lat="44.54511" lon="5.62989">
        <ele>1098.44</ele>
        <time>2018-08-16T07:16:08Z</time>
      </trkpt>
      <trkpt lat="44.54507" lon="5.63006">
        <ele>1099.89</ele>
        <time>2018-08-16T07:16:24Z</time>
      </trkpt>
      <trkpt lat="44.54503" lon="5.63018">
        <ele>1101.33</ele>
        <time>2018-08-16T07:16:36Z</time>
      </trkpt>
      <trkpt lat="44.54496" lon="5.63029">
        <ele>1102.77</ele>
        <time>2018-08-16T07:16:48Z</time>
      </trkpt>
      <trkpt lat="44.54489" lon="5.63044">
        <ele>1104.21</ele>
        <time>2018-08-16T07:17:04Z</time>
      </trkpt>
      <trkpt lat="44.54483" lon="5.63058">
        <ele>1105.65</ele>
        <time>2018-08-16T07:17:16Z</time>
      </trkpt>
      <trkpt lat="44.54482" lon="5.63061">
        <ele>1105.65</ele>
        <time>2018-08-16T07:17:19Z</time>
      </trkpt>
      <trkpt lat="44.5447" lon="5.63072">
        <ele>1107.1</ele>
        <time>2018-08-16T07:17:34Z</time>
      </trkpt>
      <trkpt lat="44.54462" lon="5.6309">
        <ele>1109.98</ele>
        <time>2018-08-16T07:17:51Z</time>
      </trkpt>
      <trkpt lat="44.54455" lon="5.63104">
        <ele>1109.98</ele>
        <time>2018-08-16T07:18:05Z</time>
      </trkpt>
      <trkpt lat="44.54446" lon="5.63115">
        <ele>1111.42</ele>
        <time>2018-08-16T07:18:18Z</time>
      </trkpt>
      <trkpt lat="44.54434" lon="5.63127">
        <ele>1112.86</ele>
        <time>2018-08-16T07:18:34Z</time>
      </trkpt>
      <trkpt lat="44.54424" lon="5.63138">
        <ele>1113.82</ele>
        <time>2018-08-16T07:18:48Z</time>
      </trkpt>
      <trkpt lat="44.54413" lon="5.63151">
        <ele>1115.27</ele>
        <time>2018-08-16T07:19:03Z</time>
      </trkpt>
      <trkpt lat="44.54404" lon="5.63161">
        <ele>1117.19</ele>
        <time>2018-08-16T07:19:17Z</time>
      </trkpt>
      <trkpt lat="44.54392" lon="5.63172">
        <ele>1119.11</ele>
        <time>2018-08-16T07:19:32Z</time>
      </trkpt>
      <trkpt lat="44.54382" lon="5.63182">
        <ele>1120.55</ele>
        <time>2018-08-16T07:19:45Z</time>
      </trkpt>
      <trkpt lat="44.5437" lon="5.6319">
        <ele>1122.48</ele>
        <time>2018-08-16T07:19:59Z</time>
      </trkpt>
      <trkpt lat="44.54365" lon="5.63193">
        <ele>1122.96</ele>
        <time>2018-08-16T07:20:04Z</time>
      </trkpt>
      <trkpt lat="44.5436" lon="5.63204">
        <ele>1123.92</ele>
        <time>2018-08-16T07:20:14Z</time>
      </trkpt>
      <trkpt lat="44.54357" lon="5.63213">
        <ele>1124.4</ele>
        <time>2018-08-16T07:20:22Z</time>
      </trkpt>
      <trkpt lat="44.54354" lon="5.63228">
        <ele>1125.36</ele>
        <time>2018-08-16T07:20:35Z</time>
      </trkpt>
      <trkpt lat="44.54344" lon="5.63236">
        <ele>1126.32</ele>
        <time>2018-08-16T07:20:46Z</time>
      </trkpt>
      <trkpt lat="44.54335" lon="5.63247">
        <ele>1128.24</ele>
        <time>2018-08-16T07:20:59Z</time>
      </trkpt>
      <trkpt lat="44.54326" lon="5.63259">
        <ele>1129.21</ele>
        <time>2018-08-16T07:21:12Z</time>
      </trkpt>
      <trkpt lat="44.54325" lon="5.6326">
        <ele>1129.69</ele>
        <time>2018-08-16T07:21:13Z</time>
      </trkpt>
      <trkpt lat="44.54324" lon="5.6326">
        <ele>1129.69</ele>
        <time>2018-08-16T07:21:14Z</time>
      </trkpt>
      <trkpt lat="44.54319" lon="5.63272">
        <ele>1130.65</ele>
        <time>2018-08-16T07:21:24Z</time>
      </trkpt>
      <trkpt lat="44.54314" lon="5.63288">
        <ele>1132.09</ele>
        <time>2018-08-16T07:21:39Z</time>
      </trkpt>
      <trkpt lat="44.54306" lon="5.63299">
        <ele>1134.97</ele>
        <time>2018-08-16T07:21:53Z</time>
      </trkpt>
      <trkpt lat="44.54305" lon="5.63301">
        <ele>1134.01</ele>
        <time>2018-08-16T07:21:55Z</time>
      </trkpt>
      <trkpt lat="44.54304" lon="5.63302">
        <ele>1134.01</ele>
        <time>2018-08-16T07:21:56Z</time>
      </trkpt>
      <trkpt lat="44.54298" lon="5.63315">
        <ele>1134.97</ele>
        <time>2018-08-16T07:22:09Z</time>
      </trkpt>
      <trkpt lat="44.5429" lon="5.63332">
        <ele>1136.42</ele>
        <time>2018-08-16T07:22:25Z</time>
      </trkpt>
      <trkpt lat="44.54282" lon="5.63342">
        <ele>1137.38</ele>
        <time>2018-08-16T07:22:36Z</time>
      </trkpt>
      <trkpt lat="44.54275" lon="5.63355">
        <ele>1138.34</ele>
        <time>2018-08-16T07:22:49Z</time>
      </trkpt>
      <trkpt lat="44.54266" lon="5.6337">
        <ele>1139.78</ele>
        <time>2018-08-16T07:23:03Z</time>
      </trkpt>
      <trkpt lat="44.54254" lon="5.63382">
        <ele>1141.7</ele>
        <time>2018-08-16T07:23:19Z</time>
      </trkpt>
      <trkpt lat="44.54251" lon="5.63383">
        <ele>1141.7</ele>
        <time>2018-08-16T07:23:22Z</time>
      </trkpt>
      <trkpt lat="44.54239" lon="5.63385">
        <ele>1142.66</ele>
        <time>2018-08-16T07:23:34Z</time>
      </trkpt>
      <trkpt lat="44.54225" lon="5.63388">
        <ele>1143.63</ele>
        <time>2018-08-16T07:23:49Z</time>
      </trkpt>
      <trkpt lat="44.54213" lon="5.63394">
        <ele>1144.59</ele>
        <time>2018-08-16T07:24:03Z</time>
      </trkpt>
      <trkpt lat="44.54205" lon="5.63402">
        <ele>1145.07</ele>
        <time>2018-08-16T07:24:12Z</time>
      </trkpt>
      <trkpt lat="44.54197" lon="5.63419">
        <ele>1146.03</ele>
        <time>2018-08-16T07:24:26Z</time>
      </trkpt>
      <trkpt lat="44.54195" lon="5.63424">
        <ele>1146.51</ele>
        <time>2018-08-16T07:24:29Z</time>
      </trkpt>
      <trkpt lat="44.54195" lon="5.63425">
        <ele>1146.51</ele>
        <time>2018-08-16T07:24:30Z</time>
      </trkpt>
      <trkpt lat="44.54188" lon="5.63441">
        <ele>1146.99</ele>
        <time>2018-08-16T07:24:44Z</time>
      </trkpt>
      <trkpt lat="44.54186" lon="5.63445">
        <ele>1147.47</ele>
        <time>2018-08-16T07:24:47Z</time>
      </trkpt>
      <trkpt lat="44.54184" lon="5.6345">
        <ele>1147.95</ele>
        <time>2018-08-16T07:24:51Z</time>
      </trkpt>
      <trkpt lat="44.54177" lon="5.63463">
        <ele>1148.43</ele>
        <time>2018-08-16T07:25:03Z</time>
      </trkpt>
      <trkpt lat="44.54168" lon="5.63474">
        <ele>1149.39</ele>
        <time>2018-08-16T07:25:16Z</time>
      </trkpt>
      <trkpt lat="44.54167" lon="5.63474">
        <ele>1149.39</ele>
        <time>2018-08-16T07:25:17Z</time>
      </trkpt>
      <trkpt lat="44.54155" lon="5.63486">
        <ele>1149.87</ele>
        <time>2018-08-16T07:25:31Z</time>
      </trkpt>
      <trkpt lat="44.5414" lon="5.63493">
        <ele>1149.87</ele>
        <time>2018-08-16T07:25:45Z</time>
      </trkpt>
      <trkpt lat="44.54123" lon="5.63494">
        <ele>1149.87</ele>
        <time>2018-08-16T07:26:01Z</time>
      </trkpt>
      <trkpt lat="44.54106" lon="5.63495">
        <ele>1150.35</ele>
        <time>2018-08-16T07:26:18Z</time>
      </trkpt>
      <trkpt lat="44.54095" lon="5.63502">
        <ele>1150.35</ele>
        <time>2018-08-16T07:26:28Z</time>
      </trkpt>
      <trkpt lat="44.54088" lon="5.63508">
        <ele>1150.84</ele>
        <time>2018-08-16T07:26:35Z</time>
      </trkpt>
      <trkpt lat="44.54087" lon="5.63509">
        <ele>1150.84</ele>
        <time>2018-08-16T07:26:36Z</time>
      </trkpt>
      <trkpt lat="44.54077" lon="5.63524">
        <ele>1151.8</ele>
        <time>2018-08-16T07:26:49Z</time>
      </trkpt>
      <trkpt lat="44.54077" lon="5.63526">
        <ele>1151.8</ele>
        <time>2018-08-16T07:26:50Z</time>
      </trkpt>
      <trkpt lat="44.54076" lon="5.63527">
        <ele>1151.8</ele>
        <time>2018-08-16T07:26:51Z</time>
      </trkpt>
      <trkpt lat="44.54073" lon="5.63537">
        <ele>1152.76</ele>
        <time>2018-08-16T07:26:58Z</time>
      </trkpt>
      <trkpt lat="44.5407" lon="5.63552">
        <ele>1154.2</ele>
        <time>2018-08-16T07:27:10Z</time>
      </trkpt>
      <trkpt lat="44.54065" lon="5.63569">
        <ele>1155.64</ele>
        <time>2018-08-16T07:27:24Z</time>
      </trkpt>
      <trkpt lat="44.54058" lon="5.63586">
        <ele>1157.08</ele>
        <time>2018-08-16T07:27:39Z</time>
      </trkpt>
      <trkpt lat="44.54049" lon="5.63605">
        <ele>1159.97</ele>
        <time>2018-08-16T07:27:57Z</time>
      </trkpt>
      <trkpt lat="44.54042" lon="5.63619">
        <ele>1160.93</ele>
        <time>2018-08-16T07:28:10Z</time>
      </trkpt>
      <trkpt lat="44.54033" lon="5.63633">
        <ele>1161.89</ele>
        <time>2018-08-16T07:28:24Z</time>
      </trkpt>
      <trkpt lat="44.54023" lon="5.63651">
        <ele>1163.81</ele>
        <time>2018-08-16T07:28:41Z</time>
      </trkpt>
      <trkpt lat="44.54013" lon="5.63662">
        <ele>1164.77</ele>
        <time>2018-08-16T07:28:54Z</time>
      </trkpt>
      <trkpt lat="44.54" lon="5.63668">
        <ele>1166.22</ele>
        <time>2018-08-16T07:29:09Z</time>
      </trkpt>
      <trkpt lat="44.53985" lon="5.63665">
        <ele>1168.14</ele>
        <time>2018-08-16T07:29:26Z</time>
      </trkpt>
      <trkpt lat="44.53973" lon="5.63662">
        <ele>1169.58</ele>
        <time>2018-08-16T07:29:40Z</time>
      </trkpt>
      <trkpt lat="44.5396" lon="5.63661">
        <ele>1171.02</ele>
        <time>2018-08-16T07:29:55Z</time>
      </trkpt>
      <trkpt lat="44.53947" lon="5.63666">
        <ele>1172.47</ele>
        <time>2018-08-16T07:30:10Z</time>
      </trkpt>
      <trkpt lat="44.53935" lon="5.63667">
        <ele>1173.91</ele>
        <time>2018-08-16T07:30:24Z</time>
      </trkpt>
      <trkpt lat="44.53924" lon="5.63666">
        <ele>1175.35</ele>
        <time>2018-08-16T07:30:36Z</time>
      </trkpt>
      <trkpt lat="44.53909" lon="5.63669">
        <ele>1176.79</ele>
        <time>2018-08-16T07:30:52Z</time>
      </trkpt>
      <trkpt lat="44.53897" lon="5.63671">
        <ele>1178.23</ele>
        <time>2018-08-16T07:31:06Z</time>
      </trkpt>
      <trkpt lat="44.53883" lon="5.6367">
        <ele>1179.67</ele>
        <time>2018-08-16T07:31:23Z</time>
      </trkpt>
      <trkpt lat="44.53871" lon="5.63672">
        <ele>1181.12</ele>
        <time>2018-08-16T07:31:36Z</time>
      </trkpt>
      <trkpt lat="44.53859" lon="5.63675">
        <ele>1182.56</ele>
        <time>2018-08-16T07:31:49Z</time>
      </trkpt>
      <trkpt lat="44.53848" lon="5.63687">
        <ele>1183.52</ele>
        <time>2018-08-16T07:32:03Z</time>
      </trkpt>
      <trkpt lat="44.53842" lon="5.63699">
        <ele>1184.96</ele>
        <time>2018-08-16T07:32:14Z</time>
      </trkpt>
      <trkpt lat="44.53838" lon="5.63714">
        <ele>1185.44</ele>
        <time>2018-08-16T07:32:26Z</time>
      </trkpt>
      <trkpt lat="44.53837" lon="5.63725">
        <ele>1185.44</ele>
        <time>2018-08-16T07:32:34Z</time>
      </trkpt>
      <trkpt lat="44.53835" lon="5.63731">
        <ele>1185.92</ele>
        <time>2018-08-16T07:32:38Z</time>
      </trkpt>
      <trkpt lat="44.53831" lon="5.63752">
        <ele>1185.92</ele>
        <time>2018-08-16T07:32:53Z</time>
      </trkpt>
      <trkpt lat="44.53831" lon="5.63775">
        <ele>1186.88</ele>
        <time>2018-08-16T07:33:08Z</time>
      </trkpt>
      <trkpt lat="44.53832" lon="5.63782">
        <ele>1187.37</ele>
        <time>2018-08-16T07:33:16Z</time>
      </trkpt>
      <trkpt lat="44.53833" lon="5.63783">
        <ele>1187.37</ele>
        <time>2018-08-16T07:33:17Z</time>
      </trkpt>
      <trkpt lat="44.53833" lon="5.63785">
        <ele>1187.37</ele>
        <time>2018-08-16T07:33:18Z</time>
      </trkpt>
      <trkpt lat="44.53833" lon="5.63787">
        <ele>1187.37</ele>
        <time>2018-08-16T07:33:19Z</time>
      </trkpt>
      <trkpt lat="44.53833" lon="5.63789">
        <ele>1187.37</ele>
        <time>2018-08-16T07:33:20Z</time>
      </trkpt>
      <trkpt lat="44.53833" lon="5.63791">
        <ele>1187.37</ele>
        <time>2018-08-16T07:33:21Z</time>
      </trkpt>
      <trkpt lat="44.53833" lon="5.63793">
        <ele>1187.37</ele>
        <time>2018-08-16T07:33:22Z</time>
      </trkpt>
      <trkpt lat="44.53831" lon="5.63808">
        <ele>1187.85</ele>
        <time>2018-08-16T07:33:32Z</time>
      </trkpt>
      <trkpt lat="44.53828" lon="5.63826">
        <ele>1188.33</ele>
        <time>2018-08-16T07:33:46Z</time>
      </trkpt>
      <trkpt lat="44.53831" lon="5.63849">
        <ele>1188.33</ele>
        <time>2018-08-16T07:34:02Z</time>
      </trkpt>
      <trkpt lat="44.53834" lon="5.63872">
        <ele>1188.81</ele>
        <time>2018-08-16T07:34:17Z</time>
      </trkpt>
      <trkpt lat="44.53834" lon="5.6388">
        <ele>1188.81</ele>
        <time>2018-08-16T07:34:23Z</time>
      </trkpt>
      <trkpt lat="44.53834" lon="5.63891">
        <ele>1189.77</ele>
        <time>2018-08-16T07:34:36Z</time>
      </trkpt>
      <trkpt lat="44.53835" lon="5.63898">
        <ele>1190.25</ele>
        <time>2018-08-16T07:34:52Z</time>
      </trkpt>
      <trkpt lat="44.53832" lon="5.63894">
        <ele>1190.25</ele>
        <time>2018-08-16T07:35:09Z</time>
      </trkpt>
      <trkpt lat="44.53833" lon="5.63897">
        <ele>1190.25</ele>
        <time>2018-08-16T07:35:25Z</time>
      </trkpt>
      <trkpt lat="44.53834" lon="5.63898">
        <ele>1190.25</ele>
        <time>2018-08-16T07:35:39Z</time>
      </trkpt>
      <trkpt lat="44.53835" lon="5.63899">
        <ele>1190.73</ele>
        <time>2018-08-16T07:36:03Z</time>
      </trkpt>
      <trkpt lat="44.53834" lon="5.63897">
        <ele>1190.25</ele>
        <time>2018-08-16T07:36:24Z</time>
      </trkpt>
      <trkpt lat="44.53832" lon="5.63899">
        <ele>1190.73</ele>
        <time>2018-08-16T07:36:52Z</time>
      </trkpt>
      <trkpt lat="44.53832" lon="5.63897">
        <ele>1190.73</ele>
        <time>2018-08-16T07:37:11Z</time>
      </trkpt>
      <trkpt lat="44.53834" lon="5.63898">
        <ele>1189.77</ele>
        <time>2018-08-16T07:37:25Z</time>
      </trkpt>
      <trkpt lat="44.53836" lon="5.63902">
        <ele>1189.77</ele>
        <time>2018-08-16T07:37:57Z</time>
      </trkpt>
      <trkpt lat="44.53838" lon="5.639">
        <ele>1190.25</ele>
        <time>2018-08-16T07:38:26Z</time>
      </trkpt>
      <trkpt lat="44.53837" lon="5.63901">
        <ele>1190.25</ele>
        <time>2018-08-16T07:38:53Z</time>
      </trkpt>
      <trkpt lat="44.53836" lon="5.63899">
        <ele>1190.25</ele>
        <time>2018-08-16T07:39:23Z</time>
      </trkpt>
      <trkpt lat="44.53836" lon="5.63902">
        <ele>1190.73</ele>
        <time>2018-08-16T07:39:52Z</time>
      </trkpt>
      <trkpt lat="44.53836" lon="5.63901">
        <ele>1190.73</ele>
        <time>2018-08-16T07:40:19Z</time>
      </trkpt>
      <trkpt lat="44.53834" lon="5.63899">
        <ele>1190.73</ele>
        <time>2018-08-16T07:40:46Z</time>
      </trkpt>
      <trkpt lat="44.53836" lon="5.63899">
        <ele>1190.73</ele>
        <time>2018-08-16T07:41:24Z</time>
      </trkpt>
      <trkpt lat="44.53835" lon="5.63899">
        <ele>1190.73</ele>
        <time>2018-08-16T07:41:56Z</time>
      </trkpt>
      <trkpt lat="44.53834" lon="5.639">
        <ele>1190.73</ele>
        <time>2018-08-16T07:42:29Z</time>
      </trkpt>
      <trkpt lat="44.53833" lon="5.63899">
        <ele>1190.73</ele>
        <time>2018-08-16T07:42:52Z</time>
      </trkpt>
      <trkpt lat="44.53834" lon="5.63895">
        <ele>1190.73</ele>
        <time>2018-08-16T07:43:18Z</time>
      </trkpt>
      <trkpt lat="44.53835" lon="5.63896">
        <ele>1190.73</ele>
        <time>2018-08-16T07:43:44Z</time>
      </trkpt>
      <trkpt lat="44.53836" lon="5.63896">
        <ele>1191.21</ele>
        <time>2018-08-16T07:44:11Z</time>
      </trkpt>
      <trkpt lat="44.53834" lon="5.63897">
        <ele>1191.21</ele>
        <time>2018-08-16T07:44:37Z</time>
      </trkpt>
      <trkpt lat="44.53834" lon="5.63898">
        <ele>1191.21</ele>
        <time>2018-08-16T07:45:08Z</time>
      </trkpt>
      <trkpt lat="44.53835" lon="5.63898">
        <ele>1191.21</ele>
        <time>2018-08-16T07:45:35Z</time>
      </trkpt>
      <trkpt lat="44.53835" lon="5.63897">
        <ele>1191.21</ele>
        <time>2018-08-16T07:46:03Z</time>
      </trkpt>
      <trkpt lat="44.53834" lon="5.639">
        <ele>1191.21</ele>
        <time>2018-08-16T07:46:41Z</time>
      </trkpt>
      <trkpt lat="44.53835" lon="5.63901">
        <ele>1191.21</ele>
        <time>2018-08-16T07:47:13Z</time>
      </trkpt>
      <trkpt lat="44.53834" lon="5.63899">
        <ele>1192.17</ele>
        <time>2018-08-16T07:47:35Z</time>
      </trkpt>
      <trkpt lat="44.53834" lon="5.63898">
        <ele>1192.65</ele>
        <time>2018-08-16T07:47:54Z</time>
      </trkpt>
      <trkpt lat="44.53832" lon="5.63894">
        <ele>1192.17</ele>
        <time>2018-08-16T07:48:21Z</time>
      </trkpt>
      <trkpt lat="44.53831" lon="5.6389">
        <ele>1192.65</ele>
        <time>2018-08-16T07:48:38Z</time>
      </trkpt>
      <trkpt lat="44.53828" lon="5.63884">
        <ele>1192.65</ele>
        <time>2018-08-16T07:48:46Z</time>
      </trkpt>
      <trkpt lat="44.53822" lon="5.63871">
        <ele>1193.13</ele>
        <time>2018-08-16T07:49:00Z</time>
      </trkpt>
      <trkpt lat="44.53823" lon="5.63867">
        <ele>1193.13</ele>
        <time>2018-08-16T07:49:03Z</time>
      </trkpt>
      <trkpt lat="44.53822" lon="5.6385">
        <ele>1194.09</ele>
        <time>2018-08-16T07:49:16Z</time>
      </trkpt>
      <trkpt lat="44.53821" lon="5.63843">
        <ele>1194.58</ele>
        <time>2018-08-16T07:49:21Z</time>
      </trkpt>
      <trkpt lat="44.5382" lon="5.63838">
        <ele>1195.06</ele>
        <time>2018-08-16T07:49:25Z</time>
      </trkpt>
      <trkpt lat="44.53818" lon="5.63827">
        <ele>1196.02</ele>
        <time>2018-08-16T07:49:38Z</time>
      </trkpt>
      <trkpt lat="44.53816" lon="5.63807">
        <ele>1197.46</ele>
        <time>2018-08-16T07:49:53Z</time>
      </trkpt>
      <trkpt lat="44.53816" lon="5.638">
        <ele>1197.94</ele>
        <time>2018-08-16T07:49:58Z</time>
      </trkpt>
      <trkpt lat="44.53812" lon="5.63777">
        <ele>1199.38</ele>
        <time>2018-08-16T07:50:16Z</time>
      </trkpt>
      <trkpt lat="44.53808" lon="5.63757">
        <ele>1200.82</ele>
        <time>2018-08-16T07:50:32Z</time>
      </trkpt>
      <trkpt lat="44.53807" lon="5.63736">
        <ele>1202.27</ele>
        <time>2018-08-16T07:50:48Z</time>
      </trkpt>
      <trkpt lat="44.538" lon="5.6372">
        <ele>1204.19</ele>
        <time>2018-08-16T07:51:04Z</time>
      </trkpt>
      <trkpt lat="44.53799" lon="5.63716">
        <ele>1204.19</ele>
        <time>2018-08-16T07:51:07Z</time>
      </trkpt>
      <trkpt lat="44.53801" lon="5.63697">
        <ele>1205.63</ele>
        <time>2018-08-16T07:51:22Z</time>
      </trkpt>
      <trkpt lat="44.53802" lon="5.63694">
        <ele>1206.11</ele>
        <time>2018-08-16T07:51:24Z</time>
      </trkpt>
      <trkpt lat="44.53806" lon="5.63676">
        <ele>1207.55</ele>
        <time>2018-08-16T07:51:39Z</time>
      </trkpt>
      <trkpt lat="44.53808" lon="5.63656">
        <ele>1209.48</ele>
        <time>2018-08-16T07:51:55Z</time>
      </trkpt>
      <trkpt lat="44.53808" lon="5.63635">
        <ele>1210.92</ele>
        <time>2018-08-16T07:52:10Z</time>
      </trkpt>
      <trkpt lat="44.53813" lon="5.6362">
        <ele>1211.88</ele>
        <time>2018-08-16T07:52:24Z</time>
      </trkpt>
      <trkpt lat="44.53816" lon="5.63617">
        <ele>1212.36</ele>
        <time>2018-08-16T07:52:28Z</time>
      </trkpt>
      <trkpt lat="44.5383" lon="5.63612">
        <ele>1214.28</ele>
        <time>2018-08-16T07:52:43Z</time>
      </trkpt>
      <trkpt lat="44.53845" lon="5.63608">
        <ele>1215.72</ele>
        <time>2018-08-16T07:52:59Z</time>
      </trkpt>
      <trkpt lat="44.5385" lon="5.63604">
        <ele>1216.21</ele>
        <time>2018-08-16T07:53:05Z</time>
      </trkpt>
      <trkpt lat="44.53861" lon="5.63594">
        <ele>1217.17</ele>
        <time>2018-08-16T07:53:19Z</time>
      </trkpt>
      <trkpt lat="44.53865" lon="5.63577">
        <ele>1218.61</ele>
        <time>2018-08-16T07:53:32Z</time>
      </trkpt>
      <trkpt lat="44.53866" lon="5.63558">
        <ele>1220.05</ele>
        <time>2018-08-16T07:53:47Z</time>
      </trkpt>
      <trkpt lat="44.53868" lon="5.63551">
        <ele>1220.53</ele>
        <time>2018-08-16T07:53:53Z</time>
      </trkpt>
      <trkpt lat="44.53874" lon="5.63535">
        <ele>1221.97</ele>
        <time>2018-08-16T07:54:07Z</time>
      </trkpt>
      <trkpt lat="44.53885" lon="5.6352">
        <ele>1223.9</ele>
        <time>2018-08-16T07:54:24Z</time>
      </trkpt>
      <trkpt lat="44.53886" lon="5.63519">
        <ele>1223.9</ele>
        <time>2018-08-16T07:54:26Z</time>
      </trkpt>
      <trkpt lat="44.539" lon="5.63508">
        <ele>1225.82</ele>
        <time>2018-08-16T07:54:42Z</time>
      </trkpt>
      <trkpt lat="44.53909" lon="5.63499">
        <ele>1226.78</ele>
        <time>2018-08-16T07:54:55Z</time>
      </trkpt>
      <trkpt lat="44.53919" lon="5.63487">
        <ele>1227.74</ele>
        <time>2018-08-16T07:55:07Z</time>
      </trkpt>
      <trkpt lat="44.53929" lon="5.63474">
        <ele>1229.18</ele>
        <time>2018-08-16T07:55:21Z</time>
      </trkpt>
      <trkpt lat="44.53937" lon="5.63462">
        <ele>1230.62</ele>
        <time>2018-08-16T07:55:34Z</time>
      </trkpt>
      <trkpt lat="44.53949" lon="5.63456">
        <ele>1232.07</ele>
        <time>2018-08-16T07:55:49Z</time>
      </trkpt>
      <trkpt lat="44.53955" lon="5.63447">
        <ele>1233.51</ele>
        <time>2018-08-16T07:55:59Z</time>
      </trkpt>
      <trkpt lat="44.53955" lon="5.63443">
        <ele>1233.99</ele>
        <time>2018-08-16T07:56:02Z</time>
      </trkpt>
      <trkpt lat="44.53954" lon="5.63436">
        <ele>1234.47</ele>
        <time>2018-08-16T07:56:07Z</time>
      </trkpt>
      <trkpt lat="44.5395" lon="5.63432">
        <ele>1234.95</ele>
        <time>2018-08-16T07:56:12Z</time>
      </trkpt>
      <trkpt lat="44.53941" lon="5.63434">
        <ele>1235.91</ele>
        <time>2018-08-16T07:56:22Z</time>
      </trkpt>
      <trkpt lat="44.53926" lon="5.6344">
        <ele>1236.87</ele>
        <time>2018-08-16T07:56:38Z</time>
      </trkpt>
      <trkpt lat="44.53913" lon="5.63446">
        <ele>1237.83</ele>
        <time>2018-08-16T07:56:54Z</time>
      </trkpt>
      <trkpt lat="44.53898" lon="5.63447">
        <ele>1238.8</ele>
        <time>2018-08-16T07:57:10Z</time>
      </trkpt>
      <trkpt lat="44.53886" lon="5.63441">
        <ele>1240.24</ele>
        <time>2018-08-16T07:57:25Z</time>
      </trkpt>
      <trkpt lat="44.53876" lon="5.63434">
        <ele>1241.68</ele>
        <time>2018-08-16T07:57:39Z</time>
      </trkpt>
      <trkpt lat="44.53864" lon="5.63433">
        <ele>1243.6</ele>
        <time>2018-08-16T07:57:54Z</time>
      </trkpt>
      <trkpt lat="44.53857" lon="5.63434">
        <ele>1244.08</ele>
        <time>2018-08-16T07:58:02Z</time>
      </trkpt>
      <trkpt lat="44.53845" lon="5.63439">
        <ele>1245.53</ele>
        <time>2018-08-16T07:58:17Z</time>
      </trkpt>
      <trkpt lat="44.53829" lon="5.63448">
        <ele>1246.97</ele>
        <time>2018-08-16T07:58:34Z</time>
      </trkpt>
      <trkpt lat="44.53826" lon="5.63449">
        <ele>1246.97</ele>
        <time>2018-08-16T07:58:36Z</time>
      </trkpt>
      <trkpt lat="44.53815" lon="5.63453">
        <ele>1247.93</ele>
        <time>2018-08-16T07:58:48Z</time>
      </trkpt>
      <trkpt lat="44.53804" lon="5.63458">
        <ele>1249.37</ele>
        <time>2018-08-16T07:59:02Z</time>
      </trkpt>
      <trkpt lat="44.5379" lon="5.63467">
        <ele>1250.81</ele>
        <time>2018-08-16T07:59:19Z</time>
      </trkpt>
      <trkpt lat="44.53778" lon="5.63477">
        <ele>1252.25</ele>
        <time>2018-08-16T07:59:35Z</time>
      </trkpt>
      <trkpt lat="44.53768" lon="5.63485">
        <ele>1253.7</ele>
        <time>2018-08-16T07:59:49Z</time>
      </trkpt>
      <trkpt lat="44.53758" lon="5.63492">
        <ele>1254.66</ele>
        <time>2018-08-16T08:00:03Z</time>
      </trkpt>
      <trkpt lat="44.53745" lon="5.63501">
        <ele>1255.62</ele>
        <time>2018-08-16T08:00:19Z</time>
      </trkpt>
      <trkpt lat="44.53733" lon="5.6351">
        <ele>1256.58</ele>
        <time>2018-08-16T08:00:34Z</time>
      </trkpt>
      <trkpt lat="44.53726" lon="5.63525">
        <ele>1257.54</ele>
        <time>2018-08-16T08:00:48Z</time>
      </trkpt>
      <trkpt lat="44.53715" lon="5.63543">
        <ele>1258.02</ele>
        <time>2018-08-16T08:01:04Z</time>
      </trkpt>
      <trkpt lat="44.53708" lon="5.63558">
        <ele>1257.54</ele>
        <time>2018-08-16T08:01:19Z</time>
      </trkpt>
      <trkpt lat="44.53696" lon="5.63574">
        <ele>1258.02</ele>
        <time>2018-08-16T08:01:35Z</time>
      </trkpt>
      <trkpt lat="44.53685" lon="5.63586">
        <ele>1258.5</ele>
        <time>2018-08-16T08:01:52Z</time>
      </trkpt>
      <trkpt lat="44.53677" lon="5.63596">
        <ele>1259.94</ele>
        <time>2018-08-16T08:02:06Z</time>
      </trkpt>
      <trkpt lat="44.53668" lon="5.63606">
        <ele>1261.87</ele>
        <time>2018-08-16T08:02:21Z</time>
      </trkpt>
      <trkpt lat="44.5366" lon="5.63616">
        <ele>1263.79</ele>
        <time>2018-08-16T08:02:35Z</time>
      </trkpt>
      <trkpt lat="44.5365" lon="5.63626">
        <ele>1265.71</ele>
        <time>2018-08-16T08:02:49Z</time>
      </trkpt>
      <trkpt lat="44.5364" lon="5.63637">
        <ele>1267.16</ele>
        <time>2018-08-16T08:03:04Z</time>
      </trkpt>
      <trkpt lat="44.53632" lon="5.63645">
        <ele>1268.12</ele>
        <time>2018-08-16T08:03:18Z</time>
      </trkpt>
      <trkpt lat="44.53621" lon="5.63653">
        <ele>1269.56</ele>
        <time>2018-08-16T08:03:35Z</time>
      </trkpt>
      <trkpt lat="44.5361" lon="5.63662">
        <ele>1270.04</ele>
        <time>2018-08-16T08:03:52Z</time>
      </trkpt>
      <trkpt lat="44.53601" lon="5.63666">
        <ele>1271.96</ele>
        <time>2018-08-16T08:04:05Z</time>
      </trkpt>
      <trkpt lat="44.53594" lon="5.63673">
        <ele>1273.4</ele>
        <time>2018-08-16T08:04:19Z</time>
      </trkpt>
      <trkpt lat="44.53585" lon="5.63685">
        <ele>1276.29</ele>
        <time>2018-08-16T08:04:35Z</time>
      </trkpt>
      <trkpt lat="44.53577" lon="5.63692">
        <ele>1277.73</ele>
        <time>2018-08-16T08:04:50Z</time>
      </trkpt>
      <trkpt lat="44.53567" lon="5.63702">
        <ele>1279.65</ele>
        <time>2018-08-16T08:05:06Z</time>
      </trkpt>
      <trkpt lat="44.53558" lon="5.63717">
        <ele>1281.57</ele>
        <time>2018-08-16T08:05:24Z</time>
      </trkpt>
      <trkpt lat="44.53551" lon="5.63729">
        <ele>1283.5</ele>
        <time>2018-08-16T08:05:39Z</time>
      </trkpt>
      <trkpt lat="44.53544" lon="5.63741">
        <ele>1284.94</ele>
        <time>2018-08-16T08:05:53Z</time>
      </trkpt>
      <trkpt lat="44.53539" lon="5.63754">
        <ele>1286.86</ele>
        <time>2018-08-16T08:06:08Z</time>
      </trkpt>
      <trkpt lat="44.53532" lon="5.63767">
        <ele>1288.78</ele>
        <time>2018-08-16T08:06:22Z</time>
      </trkpt>
      <trkpt lat="44.53525" lon="5.63784">
        <ele>1290.71</ele>
        <time>2018-08-16T08:06:38Z</time>
      </trkpt>
      <trkpt lat="44.53516" lon="5.63799">
        <ele>1292.15</ele>
        <time>2018-08-16T08:06:56Z</time>
      </trkpt>
      <trkpt lat="44.53505" lon="5.63807">
        <ele>1293.59</ele>
        <time>2018-08-16T08:07:10Z</time>
      </trkpt>
      <trkpt lat="44.53497" lon="5.63814">
        <ele>1295.03</ele>
        <time>2018-08-16T08:07:22Z</time>
      </trkpt>
      <trkpt lat="44.53484" lon="5.63821">
        <ele>1297.44</ele>
        <time>2018-08-16T08:07:39Z</time>
      </trkpt>
      <trkpt lat="44.53472" lon="5.63828">
        <ele>1299.84</ele>
        <time>2018-08-16T08:07:55Z</time>
      </trkpt>
      <trkpt lat="44.53462" lon="5.63834">
        <ele>1301.28</ele>
        <time>2018-08-16T08:08:09Z</time>
      </trkpt>
      <trkpt lat="44.5345" lon="5.63836">
        <ele>1303.2</ele>
        <time>2018-08-16T08:08:23Z</time>
      </trkpt>
      <trkpt lat="44.53438" lon="5.63834">
        <ele>1304.65</ele>
        <time>2018-08-16T08:08:38Z</time>
      </trkpt>
      <trkpt lat="44.53428" lon="5.6382">
        <ele>1306.09</ele>
        <time>2018-08-16T08:08:53Z</time>
      </trkpt>
      <trkpt lat="44.53423" lon="5.63805">
        <ele>1307.53</ele>
        <time>2018-08-16T08:09:09Z</time>
      </trkpt>
      <trkpt lat="44.53417" lon="5.6379">
        <ele>1309.93</ele>
        <time>2018-08-16T08:09:25Z</time>
      </trkpt>
      <trkpt lat="44.53417" lon="5.63774">
        <ele>1311.38</ele>
        <time>2018-08-16T08:09:40Z</time>
      </trkpt>
      <trkpt lat="44.53418" lon="5.63764">
        <ele>1313.3</ele>
        <time>2018-08-16T08:10:00Z</time>
      </trkpt>
      <trkpt lat="44.53418" lon="5.63765">
        <ele>1312.82</ele>
        <time>2018-08-16T08:10:19Z</time>
      </trkpt>
      <trkpt lat="44.53419" lon="5.63763">
        <ele>1313.3</ele>
        <time>2018-08-16T08:10:34Z</time>
      </trkpt>
      <trkpt lat="44.53417" lon="5.63766">
        <ele>1313.3</ele>
        <time>2018-08-16T08:11:02Z</time>
      </trkpt>
      <trkpt lat="44.53417" lon="5.63746">
        <ele>1315.7</ele>
        <time>2018-08-16T08:11:17Z</time>
      </trkpt>
      <trkpt lat="44.53412" lon="5.63736">
        <ele>1317.14</ele>
        <time>2018-08-16T08:11:31Z</time>
      </trkpt>
      <trkpt lat="44.53405" lon="5.63726">
        <ele>1319.07</ele>
        <time>2018-08-16T08:11:44Z</time>
      </trkpt>
      <trkpt lat="44.53398" lon="5.63716">
        <ele>1321.47</ele>
        <time>2018-08-16T08:11:59Z</time>
      </trkpt>
      <trkpt lat="44.53389" lon="5.63702">
        <ele>1324.35</ele>
        <time>2018-08-16T08:12:17Z</time>
      </trkpt>
      <trkpt lat="44.53382" lon="5.63694">
        <ele>1325.31</ele>
        <time>2018-08-16T08:12:30Z</time>
      </trkpt>
      <trkpt lat="44.53374" lon="5.63688">
        <ele>1326.76</ele>
        <time>2018-08-16T08:12:43Z</time>
      </trkpt>
      <trkpt lat="44.53363" lon="5.63684">
        <ele>1329.16</ele>
        <time>2018-08-16T08:12:59Z</time>
      </trkpt>
      <trkpt lat="44.53353" lon="5.63677">
        <ele>1331.56</ele>
        <time>2018-08-16T08:13:18Z</time>
      </trkpt>
      <trkpt lat="44.53345" lon="5.63666">
        <ele>1333.97</ele>
        <time>2018-08-16T08:13:36Z</time>
      </trkpt>
      <trkpt lat="44.53339" lon="5.63655">
        <ele>1335.89</ele>
        <time>2018-08-16T08:13:51Z</time>
      </trkpt>
      <trkpt lat="44.53335" lon="5.63643">
        <ele>1337.81</ele>
        <time>2018-08-16T08:14:06Z</time>
      </trkpt>
      <trkpt lat="44.5333" lon="5.6363">
        <ele>1339.73</ele>
        <time>2018-08-16T08:14:21Z</time>
      </trkpt>
      <trkpt lat="44.53325" lon="5.63619">
        <ele>1341.18</ele>
        <time>2018-08-16T08:14:35Z</time>
      </trkpt>
      <trkpt lat="44.5332" lon="5.63605">
        <ele>1343.58</ele>
        <time>2018-08-16T08:14:51Z</time>
      </trkpt>
      <trkpt lat="44.53317" lon="5.636">
        <ele>1344.06</ele>
        <time>2018-08-16T08:15:07Z</time>
      </trkpt>
      <trkpt lat="44.53312" lon="5.63592">
        <ele>1345.5</ele>
        <time>2018-08-16T08:15:21Z</time>
      </trkpt>
      <trkpt lat="44.53306" lon="5.63582">
        <ele>1347.91</ele>
        <time>2018-08-16T08:15:36Z</time>
      </trkpt>
      <trkpt lat="44.53297" lon="5.63576">
        <ele>1350.31</ele>
        <time>2018-08-16T08:15:51Z</time>
      </trkpt>
      <trkpt lat="44.53288" lon="5.63567">
        <ele>1352.71</ele>
        <time>2018-08-16T08:16:09Z</time>
      </trkpt>
      <trkpt lat="44.53282" lon="5.63562">
        <ele>1356.08</ele>
        <time>2018-08-16T08:16:19Z</time>
      </trkpt>
      <trkpt lat="44.53274" lon="5.63556">
        <ele>1356.56</ele>
        <time>2018-08-16T08:16:34Z</time>
      </trkpt>
      <trkpt lat="44.53264" lon="5.63558">
        <ele>1358</ele>
        <time>2018-08-16T08:16:47Z</time>
      </trkpt>
      <trkpt lat="44.53262" lon="5.63548">
        <ele>1359.44</ele>
        <time>2018-08-16T08:17:00Z</time>
      </trkpt>
      <trkpt lat="44.53271" lon="5.63539">
        <ele>1362.33</ele>
        <time>2018-08-16T08:17:16Z</time>
      </trkpt>
      <trkpt lat="44.53282" lon="5.63528">
        <ele>1364.73</ele>
        <time>2018-08-16T08:17:36Z</time>
      </trkpt>
      <trkpt lat="44.53293" lon="5.6352">
        <ele>1367.13</ele>
        <time>2018-08-16T08:17:53Z</time>
      </trkpt>
      <trkpt lat="44.53302" lon="5.63515">
        <ele>1369.05</ele>
        <time>2018-08-16T08:18:08Z</time>
      </trkpt>
      <trkpt lat="44.53311" lon="5.63517">
        <ele>1370.98</ele>
        <time>2018-08-16T08:18:23Z</time>
      </trkpt>
      <trkpt lat="44.53322" lon="5.63513">
        <ele>1372.9</ele>
        <time>2018-08-16T08:18:39Z</time>
      </trkpt>
      <trkpt lat="44.53332" lon="5.63505">
        <ele>1374.82</ele>
        <time>2018-08-16T08:18:57Z</time>
      </trkpt>
      <trkpt lat="44.53338" lon="5.63498">
        <ele>1377.23</ele>
        <time>2018-08-16T08:19:11Z</time>
      </trkpt>
      <trkpt lat="44.53342" lon="5.63488">
        <ele>1379.15</ele>
        <time>2018-08-16T08:19:25Z</time>
      </trkpt>
      <trkpt lat="44.53348" lon="5.63477">
        <ele>1381.55</ele>
        <time>2018-08-16T08:19:42Z</time>
      </trkpt>
      <trkpt lat="44.53354" lon="5.63466">
        <ele>1383.96</ele>
        <time>2018-08-16T08:20:00Z</time>
      </trkpt>
      <trkpt lat="44.53361" lon="5.63457">
        <ele>1385.88</ele>
        <time>2018-08-16T08:20:14Z</time>
      </trkpt>
      <trkpt lat="44.53365" lon="5.63444">
        <ele>1388.28</ele>
        <time>2018-08-16T08:20:32Z</time>
      </trkpt>
      <trkpt lat="44.53369" lon="5.63429">
        <ele>1390.68</ele>
        <time>2018-08-16T08:20:49Z</time>
      </trkpt>
      <trkpt lat="44.53375" lon="5.63414">
        <ele>1393.09</ele>
        <time>2018-08-16T08:21:08Z</time>
      </trkpt>
      <trkpt lat="44.53381" lon="5.63399">
        <ele>1395.49</ele>
        <time>2018-08-16T08:21:26Z</time>
      </trkpt>
      <trkpt lat="44.53387" lon="5.63383">
        <ele>1397.41</ele>
        <time>2018-08-16T08:21:44Z</time>
      </trkpt>
      <trkpt lat="44.53393" lon="5.63368">
        <ele>1399.82</ele>
        <time>2018-08-16T08:22:01Z</time>
      </trkpt>
      <trkpt lat="44.53397" lon="5.63351">
        <ele>1402.22</ele>
        <time>2018-08-16T08:22:19Z</time>
      </trkpt>
      <trkpt lat="44.53404" lon="5.63338">
        <ele>1404.62</ele>
        <time>2018-08-16T08:22:37Z</time>
      </trkpt>
      <trkpt lat="44.5341" lon="5.63322">
        <ele>1407.03</ele>
        <time>2018-08-16T08:22:54Z</time>
      </trkpt>
      <trkpt lat="44.53415" lon="5.63309">
        <ele>1408.47</ele>
        <time>2018-08-16T08:23:11Z</time>
      </trkpt>
      <trkpt lat="44.53421" lon="5.63298">
        <ele>1410.39</ele>
        <time>2018-08-16T08:23:27Z</time>
      </trkpt>
      <trkpt lat="44.53425" lon="5.63284">
        <ele>1412.79</ele>
        <time>2018-08-16T08:23:43Z</time>
      </trkpt>
      <trkpt lat="44.53424" lon="5.63266">
        <ele>1415.68</ele>
        <time>2018-08-16T08:23:59Z</time>
      </trkpt>
      <trkpt lat="44.53427" lon="5.63248">
        <ele>1418.08</ele>
        <time>2018-08-16T08:24:15Z</time>
      </trkpt>
      <trkpt lat="44.53429" lon="5.63243">
        <ele>1420</ele>
        <time>2018-08-16T08:24:31Z</time>
      </trkpt>
      <trkpt lat="44.53429" lon="5.63246">
        <ele>1420.49</ele>
        <time>2018-08-16T08:24:48Z</time>
      </trkpt>
      <trkpt lat="44.53429" lon="5.63248">
        <ele>1420.49</ele>
        <time>2018-08-16T08:25:07Z</time>
      </trkpt>
      <trkpt lat="44.53428" lon="5.63241">
        <ele>1420.49</ele>
        <time>2018-08-16T08:25:27Z</time>
      </trkpt>
      <trkpt lat="44.53429" lon="5.63243">
        <ele>1420.49</ele>
        <time>2018-08-16T08:25:55Z</time>
      </trkpt>
      <trkpt lat="44.5343" lon="5.63244">
        <ele>1420.49</ele>
        <time>2018-08-16T08:26:19Z</time>
      </trkpt>
      <trkpt lat="44.53431" lon="5.63243">
        <ele>1421.45</ele>
        <time>2018-08-16T08:26:36Z</time>
      </trkpt>
      <trkpt lat="44.53425" lon="5.63242">
        <ele>1421.45</ele>
        <time>2018-08-16T08:26:56Z</time>
      </trkpt>
      <trkpt lat="44.53426" lon="5.63241">
        <ele>1421.45</ele>
        <time>2018-08-16T08:27:17Z</time>
      </trkpt>
      <trkpt lat="44.53429" lon="5.63245">
        <ele>1421.45</ele>
        <time>2018-08-16T08:27:36Z</time>
      </trkpt>
      <trkpt lat="44.5343" lon="5.63246">
        <ele>1421.45</ele>
        <time>2018-08-16T08:27:56Z</time>
      </trkpt>
      <trkpt lat="44.53427" lon="5.63257">
        <ele>1421.45</ele>
        <time>2018-08-16T08:28:18Z</time>
      </trkpt>
      <trkpt lat="44.53428" lon="5.63251">
        <ele>1421.93</ele>
        <time>2018-08-16T08:28:43Z</time>
      </trkpt>
      <trkpt lat="44.53424" lon="5.63252">
        <ele>1422.41</ele>
        <time>2018-08-16T08:28:58Z</time>
      </trkpt>
      <trkpt lat="44.5342" lon="5.63254">
        <ele>1422.89</ele>
        <time>2018-08-16T08:29:11Z</time>
      </trkpt>
      <trkpt lat="44.5341" lon="5.63263">
        <ele>1423.85</ele>
        <time>2018-08-16T08:29:25Z</time>
      </trkpt>
      <trkpt lat="44.534" lon="5.6327">
        <ele>1425.77</ele>
        <time>2018-08-16T08:29:39Z</time>
      </trkpt>
      <trkpt lat="44.5339" lon="5.63278">
        <ele>1427.21</ele>
        <time>2018-08-16T08:29:53Z</time>
      </trkpt>
      <trkpt lat="44.53383" lon="5.63282">
        <ele>1428.66</ele>
        <time>2018-08-16T08:30:06Z</time>
      </trkpt>
      <trkpt lat="44.53373" lon="5.63288">
        <ele>1430.58</ele>
        <time>2018-08-16T08:30:24Z</time>
      </trkpt>
      <trkpt lat="44.53362" lon="5.63292">
        <ele>1432.02</ele>
        <time>2018-08-16T08:30:38Z</time>
      </trkpt>
      <trkpt lat="44.53353" lon="5.63301">
        <ele>1433.94</ele>
        <time>2018-08-16T08:30:55Z</time>
      </trkpt>
      <trkpt lat="44.53341" lon="5.63307">
        <ele>1435.39</ele>
        <time>2018-08-16T08:31:09Z</time>
      </trkpt>
      <trkpt lat="44.53331" lon="5.63307">
        <ele>1436.83</ele>
        <time>2018-08-16T08:31:24Z</time>
      </trkpt>
      <trkpt lat="44.53317" lon="5.6331">
        <ele>1439.71</ele>
        <time>2018-08-16T08:31:42Z</time>
      </trkpt>
      <trkpt lat="44.53306" lon="5.63317">
        <ele>1441.15</ele>
        <time>2018-08-16T08:31:57Z</time>
      </trkpt>
      <trkpt lat="44.53296" lon="5.63322">
        <ele>1442.6</ele>
        <time>2018-08-16T08:32:12Z</time>
      </trkpt>
      <trkpt lat="44.53287" lon="5.63329">
        <ele>1444.04</ele>
        <time>2018-08-16T08:32:26Z</time>
      </trkpt>
      <trkpt lat="44.53278" lon="5.63328">
        <ele>1445.96</ele>
        <time>2018-08-16T08:32:41Z</time>
      </trkpt>
      <trkpt lat="44.53286" lon="5.63313">
        <ele>1447.4</ele>
        <time>2018-08-16T08:32:55Z</time>
      </trkpt>
      <trkpt lat="44.53294" lon="5.63299">
        <ele>1448.36</ele>
        <time>2018-08-16T08:33:11Z</time>
      </trkpt>
      <trkpt lat="44.53303" lon="5.63288">
        <ele>1450.77</ele>
        <time>2018-08-16T08:33:28Z</time>
      </trkpt>
      <trkpt lat="44.53311" lon="5.63278">
        <ele>1452.21</ele>
        <time>2018-08-16T08:33:43Z</time>
      </trkpt>
      <trkpt lat="44.53318" lon="5.63263">
        <ele>1453.65</ele>
        <time>2018-08-16T08:33:58Z</time>
      </trkpt>
      <trkpt lat="44.53326" lon="5.63251">
        <ele>1455.57</ele>
        <time>2018-08-16T08:34:13Z</time>
      </trkpt>
      <trkpt lat="44.53331" lon="5.63239">
        <ele>1457.02</ele>
        <time>2018-08-16T08:34:28Z</time>
      </trkpt>
      <trkpt lat="44.53337" lon="5.63228">
        <ele>1459.42</ele>
        <time>2018-08-16T08:34:44Z</time>
      </trkpt>
      <trkpt lat="44.53343" lon="5.63218">
        <ele>1461.34</ele>
        <time>2018-08-16T08:34:58Z</time>
      </trkpt>
      <trkpt lat="44.53346" lon="5.63206">
        <ele>1462.78</ele>
        <time>2018-08-16T08:35:11Z</time>
      </trkpt>
      <trkpt lat="44.5335" lon="5.63198">
        <ele>1463.74</ele>
        <time>2018-08-16T08:35:25Z</time>
      </trkpt>
      <trkpt lat="44.53354" lon="5.63181">
        <ele>1465.19</ele>
        <time>2018-08-16T08:35:41Z</time>
      </trkpt>
      <trkpt lat="44.53362" lon="5.63164">
        <ele>1464.71</ele>
        <time>2018-08-16T08:35:56Z</time>
      </trkpt>
      <trkpt lat="44.53369" lon="5.63143">
        <ele>1463.74</ele>
        <time>2018-08-16T08:36:14Z</time>
      </trkpt>
      <trkpt lat="44.53379" lon="5.63126">
        <ele>1464.23</ele>
        <time>2018-08-16T08:36:30Z</time>
      </trkpt>
      <trkpt lat="44.53388" lon="5.63118">
        <ele>1462.3</ele>
        <time>2018-08-16T08:36:41Z</time>
      </trkpt>
      <trkpt lat="44.53392" lon="5.63103">
        <ele>1462.78</ele>
        <time>2018-08-16T08:36:56Z</time>
      </trkpt>
      <trkpt lat="44.53392" lon="5.6309">
        <ele>1462.78</ele>
        <time>2018-08-16T08:37:04Z</time>
      </trkpt>
      <trkpt lat="44.53396" lon="5.63064">
        <ele>1462.78</ele>
        <time>2018-08-16T08:37:21Z</time>
      </trkpt>
      <trkpt lat="44.53399" lon="5.63045">
        <ele>1463.26</ele>
        <time>2018-08-16T08:37:35Z</time>
      </trkpt>
      <trkpt lat="44.53408" lon="5.63029">
        <ele>1463.74</ele>
        <time>2018-08-16T08:37:52Z</time>
      </trkpt>
      <trkpt lat="44.53415" lon="5.63012">
        <ele>1463.26</ele>
        <time>2018-08-16T08:38:08Z</time>
      </trkpt>
      <trkpt lat="44.53421" lon="5.62992">
        <ele>1463.74</ele>
        <time>2018-08-16T08:38:23Z</time>
      </trkpt>
      <trkpt lat="44.53423" lon="5.62967">
        <ele>1463.26</ele>
        <time>2018-08-16T08:38:39Z</time>
      </trkpt>
      <trkpt lat="44.53436" lon="5.6295">
        <ele>1463.26</ele>
        <time>2018-08-16T08:38:56Z</time>
      </trkpt>
      <trkpt lat="44.53448" lon="5.6293">
        <ele>1462.78</ele>
        <time>2018-08-16T08:39:13Z</time>
      </trkpt>
      <trkpt lat="44.53453" lon="5.62922">
        <ele>1462.3</ele>
        <time>2018-08-16T08:39:20Z</time>
      </trkpt>
      <trkpt lat="44.53462" lon="5.62904">
        <ele>1463.74</ele>
        <time>2018-08-16T08:39:35Z</time>
      </trkpt>
      <trkpt lat="44.53464" lon="5.62901">
        <ele>1464.23</ele>
        <time>2018-08-16T08:39:38Z</time>
      </trkpt>
      <trkpt lat="44.5347" lon="5.62882">
        <ele>1466.15</ele>
        <time>2018-08-16T08:39:53Z</time>
      </trkpt>
      <trkpt lat="44.53477" lon="5.62871">
        <ele>1468.07</ele>
        <time>2018-08-16T08:40:06Z</time>
      </trkpt>
      <trkpt lat="44.53488" lon="5.6286">
        <ele>1470.95</ele>
        <time>2018-08-16T08:40:23Z</time>
      </trkpt>
      <trkpt lat="44.53497" lon="5.62848">
        <ele>1473.36</ele>
        <time>2018-08-16T08:40:39Z</time>
      </trkpt>
      <trkpt lat="44.53509" lon="5.6284">
        <ele>1475.28</ele>
        <time>2018-08-16T08:40:54Z</time>
      </trkpt>
      <trkpt lat="44.53511" lon="5.62839">
        <ele>1475.28</ele>
        <time>2018-08-16T08:40:56Z</time>
      </trkpt>
      <trkpt lat="44.53518" lon="5.62826">
        <ele>1476.72</ele>
        <time>2018-08-16T08:41:11Z</time>
      </trkpt>
      <trkpt lat="44.53522" lon="5.62812">
        <ele>1477.68</ele>
        <time>2018-08-16T08:41:24Z</time>
      </trkpt>
      <trkpt lat="44.53532" lon="5.62798">
        <ele>1478.65</ele>
        <time>2018-08-16T08:41:39Z</time>
      </trkpt>
      <trkpt lat="44.53539" lon="5.62787">
        <ele>1479.61</ele>
        <time>2018-08-16T08:41:53Z</time>
      </trkpt>
      <trkpt lat="44.53548" lon="5.62773">
        <ele>1480.09</ele>
        <time>2018-08-16T08:42:08Z</time>
      </trkpt>
      <trkpt lat="44.53555" lon="5.6276">
        <ele>1480.57</ele>
        <time>2018-08-16T08:42:21Z</time>
      </trkpt>
      <trkpt lat="44.53568" lon="5.62744">
        <ele>1480.57</ele>
        <time>2018-08-16T08:42:37Z</time>
      </trkpt>
      <trkpt lat="44.5357" lon="5.6274">
        <ele>1480.57</ele>
        <time>2018-08-16T08:42:41Z</time>
      </trkpt>
      <trkpt lat="44.53584" lon="5.62728">
        <ele>1481.05</ele>
        <time>2018-08-16T08:42:57Z</time>
      </trkpt>
      <trkpt lat="44.5359" lon="5.62714">
        <ele>1481.05</ele>
        <time>2018-08-16T08:43:10Z</time>
      </trkpt>
      <trkpt lat="44.53589" lon="5.62709">
        <ele>1481.05</ele>
        <time>2018-08-16T08:43:16Z</time>
      </trkpt>
      <trkpt lat="44.53586" lon="5.62704">
        <ele>1481.05</ele>
        <time>2018-08-16T08:43:20Z</time>
      </trkpt>
      <trkpt lat="44.53567" lon="5.62692">
        <ele>1481.53</ele>
        <time>2018-08-16T08:43:40Z</time>
      </trkpt>
      <trkpt lat="44.53552" lon="5.62683">
        <ele>1482.49</ele>
        <time>2018-08-16T08:43:56Z</time>
      </trkpt>
      <trkpt lat="44.53549" lon="5.62682">
        <ele>1482.97</ele>
        <time>2018-08-16T08:44:00Z</time>
      </trkpt>
      <trkpt lat="44.53531" lon="5.62685">
        <ele>1485.85</ele>
        <time>2018-08-16T08:44:19Z</time>
      </trkpt>
      <trkpt lat="44.53527" lon="5.62671">
        <ele>1488.26</ele>
        <time>2018-08-16T08:44:34Z</time>
      </trkpt>
      <trkpt lat="44.53525" lon="5.62652">
        <ele>1490.18</ele>
        <time>2018-08-16T08:44:51Z</time>
      </trkpt>
      <trkpt lat="44.53523" lon="5.62636">
        <ele>1492.58</ele>
        <time>2018-08-16T08:45:06Z</time>
      </trkpt>
      <trkpt lat="44.53519" lon="5.62622">
        <ele>1494.03</ele>
        <time>2018-08-16T08:45:21Z</time>
      </trkpt>
      <trkpt lat="44.5352" lon="5.62623">
        <ele>1494.51</ele>
        <time>2018-08-16T08:45:40Z</time>
      </trkpt>
      <trkpt lat="44.5352" lon="5.62624">
        <ele>1494.51</ele>
        <time>2018-08-16T08:45:54Z</time>
      </trkpt>
      <trkpt lat="44.53522" lon="5.62623">
        <ele>1494.51</ele>
        <time>2018-08-16T08:46:09Z</time>
      </trkpt>
      <trkpt lat="44.5352" lon="5.62616">
        <ele>1494.51</ele>
        <time>2018-08-16T08:46:20Z</time>
      </trkpt>
      <trkpt lat="44.53521" lon="5.62601">
        <ele>1495.47</ele>
        <time>2018-08-16T08:46:35Z</time>
      </trkpt>
      <trkpt lat="44.53525" lon="5.62591">
        <ele>1497.87</ele>
        <time>2018-08-16T08:46:49Z</time>
      </trkpt>
      <trkpt lat="44.53526" lon="5.62578">
        <ele>1499.79</ele>
        <time>2018-08-16T08:47:04Z</time>
      </trkpt>
      <trkpt lat="44.53528" lon="5.62569">
        <ele>1502.2</ele>
        <time>2018-08-16T08:47:21Z</time>
      </trkpt>
      <trkpt lat="44.53529" lon="5.6256">
        <ele>1504.12</ele>
        <time>2018-08-16T08:47:35Z</time>
      </trkpt>
      <trkpt lat="44.53536" lon="5.62552">
        <ele>1506.52</ele>
        <time>2018-08-16T08:47:50Z</time>
      </trkpt>
      <trkpt lat="44.53539" lon="5.62546">
        <ele>1508.45</ele>
        <time>2018-08-16T08:48:05Z</time>
      </trkpt>
      <trkpt lat="44.5354" lon="5.62533">
        <ele>1511.33</ele>
        <time>2018-08-16T08:48:22Z</time>
      </trkpt>
      <trkpt lat="44.53541" lon="5.62525">
        <ele>1514.69</ele>
        <time>2018-08-16T08:48:37Z</time>
      </trkpt>
      <trkpt lat="44.53541" lon="5.62517">
        <ele>1516.14</ele>
        <time>2018-08-16T08:48:51Z</time>
      </trkpt>
      <trkpt lat="44.53542" lon="5.62508">
        <ele>1519.02</ele>
        <time>2018-08-16T08:49:06Z</time>
      </trkpt>
      <trkpt lat="44.53544" lon="5.62497">
        <ele>1520.94</ele>
        <time>2018-08-16T08:49:22Z</time>
      </trkpt>
      <trkpt lat="44.53548" lon="5.62488">
        <ele>1522.87</ele>
        <time>2018-08-16T08:49:37Z</time>
      </trkpt>
      <trkpt lat="44.53556" lon="5.62477">
        <ele>1524.31</ele>
        <time>2018-08-16T08:49:55Z</time>
      </trkpt>
      <trkpt lat="44.53562" lon="5.62461">
        <ele>1523.83</ele>
        <time>2018-08-16T08:50:10Z</time>
      </trkpt>
      <trkpt lat="44.53562" lon="5.62459">
        <ele>1523.83</ele>
        <time>2018-08-16T08:50:12Z</time>
      </trkpt>
      <trkpt lat="44.53567" lon="5.62443">
        <ele>1524.31</ele>
        <time>2018-08-16T08:50:27Z</time>
      </trkpt>
      <trkpt lat="44.53571" lon="5.6244">
        <ele>1524.79</ele>
        <time>2018-08-16T08:50:41Z</time>
      </trkpt>
      <trkpt lat="44.53571" lon="5.62441">
        <ele>1525.27</ele>
        <time>2018-08-16T08:51:03Z</time>
      </trkpt>
      <trkpt lat="44.5357" lon="5.6244">
        <ele>1525.27</ele>
        <time>2018-08-16T08:51:26Z</time>
      </trkpt>
      <trkpt lat="44.53571" lon="5.62439">
        <ele>1525.27</ele>
        <time>2018-08-16T08:51:50Z</time>
      </trkpt>
      <trkpt lat="44.53571" lon="5.6244">
        <ele>1524.79</ele>
        <time>2018-08-16T08:52:08Z</time>
      </trkpt>
      <trkpt lat="44.53572" lon="5.62438">
        <ele>1526.71</ele>
        <time>2018-08-16T08:52:39Z</time>
      </trkpt>
      <trkpt lat="44.53572" lon="5.62441">
        <ele>1525.27</ele>
        <time>2018-08-16T08:53:08Z</time>
      </trkpt>
      <trkpt lat="44.53574" lon="5.62437">
        <ele>1525.27</ele>
        <time>2018-08-16T08:53:35Z</time>
      </trkpt>
      <trkpt lat="44.53576" lon="5.6242">
        <ele>1527.67</ele>
        <time>2018-08-16T08:53:51Z</time>
      </trkpt>
      <trkpt lat="44.53583" lon="5.62409">
        <ele>1529.11</ele>
        <time>2018-08-16T08:54:08Z</time>
      </trkpt>
      <trkpt lat="44.53582" lon="5.62395">
        <ele>1531.04</ele>
        <time>2018-08-16T08:54:26Z</time>
      </trkpt>
      <trkpt lat="44.53578" lon="5.6239">
        <ele>1533.44</ele>
        <time>2018-08-16T08:54:41Z</time>
      </trkpt>
      <trkpt lat="44.53583" lon="5.62384">
        <ele>1536.32</ele>
        <time>2018-08-16T08:55:01Z</time>
      </trkpt>
      <trkpt lat="44.53585" lon="5.62377">
        <ele>1538.25</ele>
        <time>2018-08-16T08:55:16Z</time>
      </trkpt>
      <trkpt lat="44.53591" lon="5.62368">
        <ele>1541.13</ele>
        <time>2018-08-16T08:55:34Z</time>
      </trkpt>
      <trkpt lat="44.53594" lon="5.62354">
        <ele>1544.5</ele>
        <time>2018-08-16T08:55:52Z</time>
      </trkpt>
      <trkpt lat="44.53592" lon="5.62345">
        <ele>1546.42</ele>
        <time>2018-08-16T08:56:06Z</time>
      </trkpt>
      <trkpt lat="44.53586" lon="5.62333">
        <ele>1549.3</ele>
        <time>2018-08-16T08:56:23Z</time>
      </trkpt>
      <trkpt lat="44.5358" lon="5.62327">
        <ele>1551.22</ele>
        <time>2018-08-16T08:56:36Z</time>
      </trkpt>
      <trkpt lat="44.53575" lon="5.6232">
        <ele>1553.15</ele>
        <time>2018-08-16T08:56:52Z</time>
      </trkpt>
      <trkpt lat="44.53574" lon="5.62307">
        <ele>1555.55</ele>
        <time>2018-08-16T08:57:08Z</time>
      </trkpt>
      <trkpt lat="44.53571" lon="5.62298">
        <ele>1557.47</ele>
        <time>2018-08-16T08:57:21Z</time>
      </trkpt>
      <trkpt lat="44.53567" lon="5.62284">
        <ele>1559.88</ele>
        <time>2018-08-16T08:57:39Z</time>
      </trkpt>
      <trkpt lat="44.53563" lon="5.62272">
        <ele>1561.8</ele>
        <time>2018-08-16T08:57:55Z</time>
      </trkpt>
      <trkpt lat="44.53559" lon="5.6226">
        <ele>1563.72</ele>
        <time>2018-08-16T08:58:11Z</time>
      </trkpt>
      <trkpt lat="44.53556" lon="5.62249">
        <ele>1566.12</ele>
        <time>2018-08-16T08:58:26Z</time>
      </trkpt>
      <trkpt lat="44.53556" lon="5.62236">
        <ele>1569.49</ele>
        <time>2018-08-16T08:58:43Z</time>
      </trkpt>
      <trkpt lat="44.53554" lon="5.62222">
        <ele>1571.41</ele>
        <time>2018-08-16T08:59:04Z</time>
      </trkpt>
      <trkpt lat="44.53556" lon="5.62212">
        <ele>1574.3</ele>
        <time>2018-08-16T08:59:20Z</time>
      </trkpt>
      <trkpt lat="44.53554" lon="5.62202">
        <ele>1576.22</ele>
        <time>2018-08-16T08:59:36Z</time>
      </trkpt>
      <trkpt lat="44.53555" lon="5.62196">
        <ele>1578.62</ele>
        <time>2018-08-16T08:59:52Z</time>
      </trkpt>
      <trkpt lat="44.53552" lon="5.62186">
        <ele>1581.51</ele>
        <time>2018-08-16T09:00:09Z</time>
      </trkpt>
      <trkpt lat="44.53545" lon="5.62171">
        <ele>1583.91</ele>
        <time>2018-08-16T09:00:28Z</time>
      </trkpt>
      <trkpt lat="44.53543" lon="5.62162">
        <ele>1587.27</ele>
        <time>2018-08-16T09:00:44Z</time>
      </trkpt>
      <trkpt lat="44.53538" lon="5.62153">
        <ele>1588.72</ele>
        <time>2018-08-16T09:01:02Z</time>
      </trkpt>
      <trkpt lat="44.53538" lon="5.62148">
        <ele>1590.16</ele>
        <time>2018-08-16T09:01:18Z</time>
      </trkpt>
      <trkpt lat="44.53538" lon="5.62147">
        <ele>1590.16</ele>
        <time>2018-08-16T09:01:46Z</time>
      </trkpt>
      <trkpt lat="44.53536" lon="5.62146">
        <ele>1590.64</ele>
        <time>2018-08-16T09:02:12Z</time>
      </trkpt>
      <trkpt lat="44.53539" lon="5.6215">
        <ele>1591.12</ele>
        <time>2018-08-16T09:02:32Z</time>
      </trkpt>
      <trkpt lat="44.53539" lon="5.62151">
        <ele>1591.12</ele>
        <time>2018-08-16T09:02:52Z</time>
      </trkpt>
      <trkpt lat="44.53539" lon="5.62148">
        <ele>1592.08</ele>
        <time>2018-08-16T09:03:15Z</time>
      </trkpt>
      <trkpt lat="44.53535" lon="5.62138">
        <ele>1593.52</ele>
        <time>2018-08-16T09:03:33Z</time>
      </trkpt>
      <trkpt lat="44.53527" lon="5.62128">
        <ele>1596.41</ele>
        <time>2018-08-16T09:03:52Z</time>
      </trkpt>
      <trkpt lat="44.53523" lon="5.6212">
        <ele>1599.29</ele>
        <time>2018-08-16T09:04:10Z</time>
      </trkpt>
      <trkpt lat="44.53516" lon="5.6211">
        <ele>1602.66</ele>
        <time>2018-08-16T09:04:30Z</time>
      </trkpt>
      <trkpt lat="44.5351" lon="5.621">
        <ele>1605.06</ele>
        <time>2018-08-16T09:04:45Z</time>
      </trkpt>
      <trkpt lat="44.53505" lon="5.62094">
        <ele>1607.46</ele>
        <time>2018-08-16T09:05:01Z</time>
      </trkpt>
      <trkpt lat="44.53501" lon="5.62086">
        <ele>1609.38</ele>
        <time>2018-08-16T09:05:15Z</time>
      </trkpt>
      <trkpt lat="44.53496" lon="5.6208">
        <ele>1611.79</ele>
        <time>2018-08-16T09:05:32Z</time>
      </trkpt>
      <trkpt lat="44.53491" lon="5.62072">
        <ele>1614.19</ele>
        <time>2018-08-16T09:05:47Z</time>
      </trkpt>
      <trkpt lat="44.53483" lon="5.62062">
        <ele>1617.07</ele>
        <time>2018-08-16T09:06:06Z</time>
      </trkpt>
      <trkpt lat="44.53477" lon="5.62057">
        <ele>1619.48</ele>
        <time>2018-08-16T09:06:23Z</time>
      </trkpt>
      <trkpt lat="44.53471" lon="5.62055">
        <ele>1621.88</ele>
        <time>2018-08-16T09:06:39Z</time>
      </trkpt>
      <trkpt lat="44.53468" lon="5.62054">
        <ele>1623.8</ele>
        <time>2018-08-16T09:06:58Z</time>
      </trkpt>
      <trkpt lat="44.53462" lon="5.62052">
        <ele>1626.69</ele>
        <time>2018-08-16T09:07:13Z</time>
      </trkpt>
      <trkpt lat="44.53457" lon="5.62049">
        <ele>1630.05</ele>
        <time>2018-08-16T09:07:29Z</time>
      </trkpt>
      <trkpt lat="44.5345" lon="5.6204">
        <ele>1631.98</ele>
        <time>2018-08-16T09:07:43Z</time>
      </trkpt>
      <trkpt lat="44.53444" lon="5.62034">
        <ele>1634.86</ele>
        <time>2018-08-16T09:08:00Z</time>
      </trkpt>
      <trkpt lat="44.53437" lon="5.62028">
        <ele>1637.26</ele>
        <time>2018-08-16T09:08:18Z</time>
      </trkpt>
      <trkpt lat="44.5343" lon="5.62021">
        <ele>1639.19</ele>
        <time>2018-08-16T09:08:34Z</time>
      </trkpt>
      <trkpt lat="44.53427" lon="5.6201">
        <ele>1640.15</ele>
        <time>2018-08-16T09:08:46Z</time>
      </trkpt>
      <trkpt lat="44.5343" lon="5.62014">
        <ele>1640.63</ele>
        <time>2018-08-16T09:09:02Z</time>
      </trkpt>
      <trkpt lat="44.53431" lon="5.62012">
        <ele>1640.63</ele>
        <time>2018-08-16T09:09:31Z</time>
      </trkpt>
      <trkpt lat="44.53429" lon="5.62009">
        <ele>1640.63</ele>
        <time>2018-08-16T09:09:51Z</time>
      </trkpt>
      <trkpt lat="44.53431" lon="5.6201">
        <ele>1640.63</ele>
        <time>2018-08-16T09:10:14Z</time>
      </trkpt>
      <trkpt lat="44.53433" lon="5.6201">
        <ele>1640.63</ele>
        <time>2018-08-16T09:10:37Z</time>
      </trkpt>
      <trkpt lat="44.53431" lon="5.62009">
        <ele>1640.63</ele>
        <time>2018-08-16T09:11:03Z</time>
      </trkpt>
      <trkpt lat="44.53432" lon="5.62009">
        <ele>1640.63</ele>
        <time>2018-08-16T09:11:26Z</time>
      </trkpt>
      <trkpt lat="44.53429" lon="5.62008">
        <ele>1640.63</ele>
        <time>2018-08-16T09:11:45Z</time>
      </trkpt>
      <trkpt lat="44.53426" lon="5.62007">
        <ele>1640.63</ele>
        <time>2018-08-16T09:12:05Z</time>
      </trkpt>
      <trkpt lat="44.53426" lon="5.62007">
        <ele>1641.11</ele>
        <time>2018-08-16T09:12:35Z</time>
      </trkpt>
      <trkpt lat="44.53425" lon="5.62007">
        <ele>1640.63</ele>
        <time>2018-08-16T09:12:54Z</time>
      </trkpt>
      <trkpt lat="44.53426" lon="5.62007">
        <ele>1641.11</ele>
        <time>2018-08-16T09:13:22Z</time>
      </trkpt>
      <trkpt lat="44.53426" lon="5.62007">
        <ele>1641.11</ele>
        <time>2018-08-16T09:13:48Z</time>
      </trkpt>
      <trkpt lat="44.53426" lon="5.62007">
        <ele>1641.11</ele>
        <time>2018-08-16T09:14:23Z</time>
      </trkpt>
      <trkpt lat="44.53425" lon="5.62006">
        <ele>1642.55</ele>
        <time>2018-08-16T09:14:52Z</time>
      </trkpt>
      <trkpt lat="44.53426" lon="5.62005">
        <ele>1641.11</ele>
        <time>2018-08-16T09:15:14Z</time>
      </trkpt>
      <trkpt lat="44.53426" lon="5.62007">
        <ele>1641.59</ele>
        <time>2018-08-16T09:15:34Z</time>
      </trkpt>
      <trkpt lat="44.53427" lon="5.62008">
        <ele>1641.11</ele>
        <time>2018-08-16T09:15:47Z</time>
      </trkpt>
      <trkpt lat="44.53425" lon="5.62008">
        <ele>1641.59</ele>
        <time>2018-08-16T09:16:04Z</time>
      </trkpt>
      <trkpt lat="44.53425" lon="5.62012">
        <ele>1641.11</ele>
        <time>2018-08-16T09:16:27Z</time>
      </trkpt>
      <trkpt lat="44.53424" lon="5.62013">
        <ele>1642.55</ele>
        <time>2018-08-16T09:16:54Z</time>
      </trkpt>
      <trkpt lat="44.53426" lon="5.6201">
        <ele>1641.59</ele>
        <time>2018-08-16T09:17:16Z</time>
      </trkpt>
      <trkpt lat="44.53427" lon="5.62009">
        <ele>1641.59</ele>
        <time>2018-08-16T09:17:38Z</time>
      </trkpt>
      <trkpt lat="44.53426" lon="5.62007">
        <ele>1642.07</ele>
        <time>2018-08-16T09:18:02Z</time>
      </trkpt>
      <trkpt lat="44.53427" lon="5.62008">
        <ele>1642.07</ele>
        <time>2018-08-16T09:18:30Z</time>
      </trkpt>
      <trkpt lat="44.53424" lon="5.62011">
        <ele>1642.55</ele>
        <time>2018-08-16T09:18:44Z</time>
      </trkpt>
      <trkpt lat="44.53423" lon="5.6201">
        <ele>1641.59</ele>
        <time>2018-08-16T09:18:55Z</time>
      </trkpt>
      <trkpt lat="44.53424" lon="5.62008">
        <ele>1641.59</ele>
        <time>2018-08-16T09:19:27Z</time>
      </trkpt>
      <trkpt lat="44.53425" lon="5.62012">
        <ele>1642.07</ele>
        <time>2018-08-16T09:19:41Z</time>
      </trkpt>
      <trkpt lat="44.53424" lon="5.62013">
        <ele>1642.07</ele>
        <time>2018-08-16T09:20:14Z</time>
      </trkpt>
      <trkpt lat="44.53424" lon="5.62013">
        <ele>1642.07</ele>
        <time>2018-08-16T09:20:42Z</time>
      </trkpt>
      <trkpt lat="44.53424" lon="5.62013">
        <ele>1642.07</ele>
        <time>2018-08-16T09:21:17Z</time>
      </trkpt>
      <trkpt lat="44.53424" lon="5.62014">
        <ele>1642.07</ele>
        <time>2018-08-16T09:21:47Z</time>
      </trkpt>
      <trkpt lat="44.53424" lon="5.62014">
        <ele>1642.55</ele>
        <time>2018-08-16T09:22:20Z</time>
      </trkpt>
      <trkpt lat="44.53424" lon="5.62014">
        <ele>1642.55</ele>
        <time>2018-08-16T09:22:58Z</time>
      </trkpt>
      <trkpt lat="44.53423" lon="5.62014">
        <ele>1643.03</ele>
        <time>2018-08-16T09:23:27Z</time>
      </trkpt>
      <trkpt lat="44.53423" lon="5.62013">
        <ele>1643.03</ele>
        <time>2018-08-16T09:23:54Z</time>
      </trkpt>
      <trkpt lat="44.53423" lon="5.62013">
        <ele>1643.51</ele>
        <time>2018-08-16T09:24:30Z</time>
      </trkpt>
      <trkpt lat="44.53423" lon="5.62013">
        <ele>1643.51</ele>
        <time>2018-08-16T09:25:04Z</time>
      </trkpt>
      <trkpt lat="44.53422" lon="5.62014">
        <ele>1643.51</ele>
        <time>2018-08-16T09:25:35Z</time>
      </trkpt>
      <trkpt lat="44.53422" lon="5.62014">
        <ele>1643.99</ele>
        <time>2018-08-16T09:26:09Z</time>
      </trkpt>
      <trkpt lat="44.53422" lon="5.62014">
        <ele>1644.47</ele>
        <time>2018-08-16T09:26:34Z</time>
      </trkpt>
      <trkpt lat="44.53422" lon="5.62014">
        <ele>1643.99</ele>
        <time>2018-08-16T09:27:11Z</time>
      </trkpt>
      <trkpt lat="44.53422" lon="5.62015">
        <ele>1643.99</ele>
        <time>2018-08-16T09:27:38Z</time>
      </trkpt>
      <trkpt lat="44.53423" lon="5.62015">
        <ele>1644.47</ele>
        <time>2018-08-16T09:28:17Z</time>
      </trkpt>
      <trkpt lat="44.53423" lon="5.62014">
        <ele>1644.47</ele>
        <time>2018-08-16T09:28:44Z</time>
      </trkpt>
      <trkpt lat="44.53422" lon="5.62014">
        <ele>1644.95</ele>
        <time>2018-08-16T09:29:31Z</time>
      </trkpt>
      <trkpt lat="44.53423" lon="5.62013">
        <ele>1644.95</ele>
        <time>2018-08-16T09:30:05Z</time>
      </trkpt>
      <trkpt lat="44.53422" lon="5.62014">
        <ele>1645.43</ele>
        <time>2018-08-16T09:30:42Z</time>
      </trkpt>
      <trkpt lat="44.53423" lon="5.62014">
        <ele>1645.43</ele>
        <time>2018-08-16T09:31:17Z</time>
      </trkpt>
      <trkpt lat="44.53422" lon="5.62014">
        <ele>1645.43</ele>
        <time>2018-08-16T09:31:43Z</time>
      </trkpt>
      <trkpt lat="44.53422" lon="5.62014">
        <ele>1645.43</ele>
        <time>2018-08-16T09:32:18Z</time>
      </trkpt>
      <trkpt lat="44.53422" lon="5.62015">
        <ele>1646.4</ele>
        <time>2018-08-16T09:32:55Z</time>
      </trkpt>
      <trkpt lat="44.53422" lon="5.62016">
        <ele>1646.4</ele>
        <time>2018-08-16T09:33:28Z</time>
      </trkpt>
      <trkpt lat="44.53421" lon="5.62016">
        <ele>1646.4</ele>
        <time>2018-08-16T09:33:58Z</time>
      </trkpt>
      <trkpt lat="44.53422" lon="5.62015">
        <ele>1646.4</ele>
        <time>2018-08-16T09:34:23Z</time>
      </trkpt>
      <trkpt lat="44.53422" lon="5.62015">
        <ele>1646.4</ele>
        <time>2018-08-16T09:34:56Z</time>
      </trkpt>
      <trkpt lat="44.53422" lon="5.62014">
        <ele>1646.88</ele>
        <time>2018-08-16T09:35:23Z</time>
      </trkpt>
      <trkpt lat="44.53423" lon="5.62012">
        <ele>1646.88</ele>
        <time>2018-08-16T09:35:52Z</time>
      </trkpt>
      <trkpt lat="44.53423" lon="5.62013">
        <ele>1646.88</ele>
        <time>2018-08-16T09:36:20Z</time>
      </trkpt>
      <trkpt lat="44.53423" lon="5.62013">
        <ele>1646.88</ele>
        <time>2018-08-16T09:36:51Z</time>
      </trkpt>
      <trkpt lat="44.53424" lon="5.62012">
        <ele>1647.36</ele>
        <time>2018-08-16T09:37:26Z</time>
      </trkpt>
      <trkpt lat="44.53424" lon="5.62012">
        <ele>1647.36</ele>
        <time>2018-08-16T09:37:58Z</time>
      </trkpt>
      <trkpt lat="44.53425" lon="5.62011">
        <ele>1647.36</ele>
        <time>2018-08-16T09:38:21Z</time>
      </trkpt>
      <trkpt lat="44.53424" lon="5.6201">
        <ele>1647.36</ele>
        <time>2018-08-16T09:38:48Z</time>
      </trkpt>
      <trkpt lat="44.53425" lon="5.6201">
        <ele>1647.36</ele>
        <time>2018-08-16T09:39:13Z</time>
      </trkpt>
      <trkpt lat="44.53424" lon="5.62011">
        <ele>1647.36</ele>
        <time>2018-08-16T09:39:53Z</time>
      </trkpt>
      <trkpt lat="44.53424" lon="5.62011">
        <ele>1646.88</ele>
        <time>2018-08-16T09:40:37Z</time>
      </trkpt>
      <trkpt lat="44.53424" lon="5.6201">
        <ele>1646.88</ele>
        <time>2018-08-16T09:41:02Z</time>
      </trkpt>
      <trkpt lat="44.53425" lon="5.62012">
        <ele>1646.88</ele>
        <time>2018-08-16T09:41:35Z</time>
      </trkpt>
      <trkpt lat="44.53425" lon="5.62011">
        <ele>1647.36</ele>
        <time>2018-08-16T09:42:09Z</time>
      </trkpt>
      <trkpt lat="44.53424" lon="5.6201">
        <ele>1646.88</ele>
        <time>2018-08-16T09:42:34Z</time>
      </trkpt>
      <trkpt lat="44.53424" lon="5.62012">
        <ele>1646.88</ele>
        <time>2018-08-16T09:43:11Z</time>
      </trkpt>
      <trkpt lat="44.53424" lon="5.62011">
        <ele>1646.88</ele>
        <time>2018-08-16T09:43:52Z</time>
      </trkpt>
      <trkpt lat="44.53424" lon="5.62011">
        <ele>1646.88</ele>
        <time>2018-08-16T09:44:31Z</time>
      </trkpt>
      <trkpt lat="44.53424" lon="5.6201">
        <ele>1646.88</ele>
        <time>2018-08-16T09:45:05Z</time>
      </trkpt>
      <trkpt lat="44.53424" lon="5.6201">
        <ele>1646.88</ele>
        <time>2018-08-16T09:45:29Z</time>
      </trkpt>
      <trkpt lat="44.53424" lon="5.6201">
        <ele>1646.88</ele>
        <time>2018-08-16T09:46:06Z</time>
      </trkpt>
      <trkpt lat="44.53424" lon="5.62011">
        <ele>1646.88</ele>
        <time>2018-08-16T09:46:34Z</time>
      </trkpt>
      <trkpt lat="44.53424" lon="5.6201">
        <ele>1646.88</ele>
        <time>2018-08-16T09:47:05Z</time>
      </trkpt>
      <trkpt lat="44.53424" lon="5.62009">
        <ele>1646.88</ele>
        <time>2018-08-16T09:47:31Z</time>
      </trkpt>
      <trkpt lat="44.53424" lon="5.62009">
        <ele>1646.88</ele>
        <time>2018-08-16T09:48:23Z</time>
      </trkpt>
      <trkpt lat="44.53423" lon="5.62008">
        <ele>1646.4</ele>
        <time>2018-08-16T09:49:06Z</time>
      </trkpt>
      <trkpt lat="44.53424" lon="5.62008">
        <ele>1646.88</ele>
        <time>2018-08-16T09:50:02Z</time>
      </trkpt>
      <trkpt lat="44.53425" lon="5.62008">
        <ele>1646.88</ele>
        <time>2018-08-16T09:50:44Z</time>
      </trkpt>
      <trkpt lat="44.53425" lon="5.62006">
        <ele>1646.4</ele>
        <time>2018-08-16T09:51:17Z</time>
      </trkpt>
      <trkpt lat="44.53425" lon="5.62002">
        <ele>1646.4</ele>
        <time>2018-08-16T09:52:01Z</time>
      </trkpt>
      <trkpt lat="44.53421" lon="5.62003">
        <ele>1646.88</ele>
        <time>2018-08-16T09:52:45Z</time>
      </trkpt>
      <trkpt lat="44.53422" lon="5.62003">
        <ele>1646.88</ele>
        <time>2018-08-16T09:53:27Z</time>
      </trkpt>
      <trkpt lat="44.53424" lon="5.62005">
        <ele>1646.4</ele>
        <time>2018-08-16T09:54:00Z</time>
      </trkpt>
      <trkpt lat="44.53423" lon="5.62006">
        <ele>1646.88</ele>
        <time>2018-08-16T09:54:36Z</time>
      </trkpt>
      <trkpt lat="44.53425" lon="5.62008">
        <ele>1646.88</ele>
        <time>2018-08-16T09:55:18Z</time>
      </trkpt>
      <trkpt lat="44.53425" lon="5.62009">
        <ele>1646.4</ele>
        <time>2018-08-16T09:55:54Z</time>
      </trkpt>
      <trkpt lat="44.53424" lon="5.62006">
        <ele>1646.4</ele>
        <time>2018-08-16T09:56:38Z</time>
      </trkpt>
      <trkpt lat="44.53423" lon="5.62005">
        <ele>1646.4</ele>
        <time>2018-08-16T09:57:22Z</time>
      </trkpt>
      <trkpt lat="44.53423" lon="5.62004">
        <ele>1645.91</ele>
        <time>2018-08-16T09:58:05Z</time>
      </trkpt>
      <trkpt lat="44.53425" lon="5.62006">
        <ele>1645.91</ele>
        <time>2018-08-16T09:58:45Z</time>
      </trkpt>
      <trkpt lat="44.53426" lon="5.62008">
        <ele>1646.88</ele>
        <time>2018-08-16T09:58:59Z</time>
      </trkpt>
      <trkpt lat="44.53424" lon="5.62005">
        <ele>1646.88</ele>
        <time>2018-08-16T09:59:22Z</time>
      </trkpt>
      <trkpt lat="44.53424" lon="5.62006">
        <ele>1645.43</ele>
        <time>2018-08-16T09:59:35Z</time>
      </trkpt>
      <trkpt lat="44.53423" lon="5.62002">
        <ele>1644.95</ele>
        <time>2018-08-16T09:59:51Z</time>
      </trkpt>
      <trkpt lat="44.53421" lon="5.61999">
        <ele>1644.95</ele>
        <time>2018-08-16T10:00:24Z</time>
      </trkpt>
      <trkpt lat="44.53421" lon="5.61999">
        <ele>1644.95</ele>
        <time>2018-08-16T10:00:48Z</time>
      </trkpt>
      <trkpt lat="44.53421" lon="5.62001">
        <ele>1645.43</ele>
        <time>2018-08-16T10:01:27Z</time>
      </trkpt>
      <trkpt lat="44.53422" lon="5.62002">
        <ele>1644.95</ele>
        <time>2018-08-16T10:01:57Z</time>
      </trkpt>
      <trkpt lat="44.53422" lon="5.62002">
        <ele>1644.95</ele>
        <time>2018-08-16T10:02:21Z</time>
      </trkpt>
      <trkpt lat="44.53422" lon="5.62002">
        <ele>1644.95</ele>
        <time>2018-08-16T10:02:48Z</time>
      </trkpt>
      <trkpt lat="44.53422" lon="5.62002">
        <ele>1644.95</ele>
        <time>2018-08-16T10:03:12Z</time>
      </trkpt>
      <trkpt lat="44.53422" lon="5.62003">
        <ele>1645.43</ele>
        <time>2018-08-16T10:03:43Z</time>
      </trkpt>
      <trkpt lat="44.53422" lon="5.62003">
        <ele>1645.43</ele>
        <time>2018-08-16T10:04:09Z</time>
      </trkpt>
      <trkpt lat="44.5342" lon="5.62004">
        <ele>1645.43</ele>
        <time>2018-08-16T10:04:47Z</time>
      </trkpt>
      <trkpt lat="44.5342" lon="5.62003">
        <ele>1645.43</ele>
        <time>2018-08-16T10:05:25Z</time>
      </trkpt>
      <trkpt lat="44.53421" lon="5.62003">
        <ele>1645.91</ele>
        <time>2018-08-16T10:06:02Z</time>
      </trkpt>
      <trkpt lat="44.53422" lon="5.62004">
        <ele>1645.91</ele>
        <time>2018-08-16T10:06:32Z</time>
      </trkpt>
      <trkpt lat="44.53421" lon="5.62003">
        <ele>1646.4</ele>
        <time>2018-08-16T10:07:06Z</time>
      </trkpt>
      <trkpt lat="44.53421" lon="5.62004">
        <ele>1646.4</ele>
        <time>2018-08-16T10:07:33Z</time>
      </trkpt>
      <trkpt lat="44.5342" lon="5.62004">
        <ele>1646.4</ele>
        <time>2018-08-16T10:08:01Z</time>
      </trkpt>
      <trkpt lat="44.5342" lon="5.62004">
        <ele>1646.4</ele>
        <time>2018-08-16T10:08:34Z</time>
      </trkpt>
      <trkpt lat="44.53419" lon="5.62005">
        <ele>1646.88</ele>
        <time>2018-08-16T10:09:07Z</time>
      </trkpt>
      <trkpt lat="44.5342" lon="5.62005">
        <ele>1646.88</ele>
        <time>2018-08-16T10:09:33Z</time>
      </trkpt>
      <trkpt lat="44.5342" lon="5.62005">
        <ele>1646.88</ele>
        <time>2018-08-16T10:10:01Z</time>
      </trkpt>
      <trkpt lat="44.5342" lon="5.62006">
        <ele>1647.36</ele>
        <time>2018-08-16T10:10:34Z</time>
      </trkpt>
      <trkpt lat="44.53419" lon="5.62005">
        <ele>1647.36</ele>
        <time>2018-08-16T10:11:03Z</time>
      </trkpt>
      <trkpt lat="44.5342" lon="5.62004">
        <ele>1647.36</ele>
        <time>2018-08-16T10:11:36Z</time>
      </trkpt>
      <trkpt lat="44.5342" lon="5.62004">
        <ele>1647.84</ele>
        <time>2018-08-16T10:12:09Z</time>
      </trkpt>
      <trkpt lat="44.5342" lon="5.62004">
        <ele>1647.84</ele>
        <time>2018-08-16T10:12:41Z</time>
      </trkpt>
      <trkpt lat="44.5342" lon="5.62004">
        <ele>1647.84</ele>
        <time>2018-08-16T10:13:12Z</time>
      </trkpt>
      <trkpt lat="44.5342" lon="5.62004">
        <ele>1648.32</ele>
        <time>2018-08-16T10:13:46Z</time>
      </trkpt>
      <trkpt lat="44.53419" lon="5.62004">
        <ele>1648.32</ele>
        <time>2018-08-16T10:14:14Z</time>
      </trkpt>
      <trkpt lat="44.53419" lon="5.62004">
        <ele>1648.32</ele>
        <time>2018-08-16T10:14:44Z</time>
      </trkpt>
      <trkpt lat="44.5342" lon="5.62005">
        <ele>1648.32</ele>
        <time>2018-08-16T10:15:14Z</time>
      </trkpt>
      <trkpt lat="44.53419" lon="5.62005">
        <ele>1648.8</ele>
        <time>2018-08-16T10:15:52Z</time>
      </trkpt>
      <trkpt lat="44.53419" lon="5.62005">
        <ele>1649.28</ele>
        <time>2018-08-16T10:16:25Z</time>
      </trkpt>
      <trkpt lat="44.5342" lon="5.62005">
        <ele>1648.8</ele>
        <time>2018-08-16T10:16:50Z</time>
      </trkpt>
      <trkpt lat="44.5342" lon="5.62005">
        <ele>1648.8</ele>
        <time>2018-08-16T10:17:23Z</time>
      </trkpt>
      <trkpt lat="44.53421" lon="5.62004">
        <ele>1649.28</ele>
        <time>2018-08-16T10:17:46Z</time>
      </trkpt>
      <trkpt lat="44.53422" lon="5.62003">
        <ele>1649.28</ele>
        <time>2018-08-16T10:18:24Z</time>
      </trkpt>
      <trkpt lat="44.53422" lon="5.62003">
        <ele>1649.28</ele>
        <time>2018-08-16T10:18:55Z</time>
      </trkpt>
      <trkpt lat="44.53422" lon="5.62003">
        <ele>1649.28</ele>
        <time>2018-08-16T10:19:24Z</time>
      </trkpt>
      <trkpt lat="44.53422" lon="5.62004">
        <ele>1649.28</ele>
        <time>2018-08-16T10:19:59Z</time>
      </trkpt>
      <trkpt lat="44.53423" lon="5.62003">
        <ele>1649.28</ele>
        <time>2018-08-16T10:20:26Z</time>
      </trkpt>
      <trkpt lat="44.53423" lon="5.62003">
        <ele>1649.28</ele>
        <time>2018-08-16T10:20:56Z</time>
      </trkpt>
      <trkpt lat="44.53422" lon="5.62004">
        <ele>1649.28</ele>
        <time>2018-08-16T10:21:29Z</time>
      </trkpt>
      <trkpt lat="44.53423" lon="5.62004">
        <ele>1649.28</ele>
        <time>2018-08-16T10:21:59Z</time>
      </trkpt>
      <trkpt lat="44.53423" lon="5.62004">
        <ele>1649.28</ele>
        <time>2018-08-16T10:22:32Z</time>
      </trkpt>
      <trkpt lat="44.53423" lon="5.62003">
        <ele>1649.28</ele>
        <time>2018-08-16T10:23:03Z</time>
      </trkpt>
      <trkpt lat="44.53425" lon="5.62003">
        <ele>1649.28</ele>
        <time>2018-08-16T10:23:23Z</time>
      </trkpt>
      <trkpt lat="44.53424" lon="5.62003">
        <ele>1649.28</ele>
        <time>2018-08-16T10:23:58Z</time>
      </trkpt>
      <trkpt lat="44.53424" lon="5.62003">
        <ele>1649.28</ele>
        <time>2018-08-16T10:24:23Z</time>
      </trkpt>
      <trkpt lat="44.53424" lon="5.62002">
        <ele>1649.28</ele>
        <time>2018-08-16T10:24:55Z</time>
      </trkpt>
      <trkpt lat="44.53424" lon="5.62003">
        <ele>1649.28</ele>
        <time>2018-08-16T10:25:14Z</time>
      </trkpt>
      <trkpt lat="44.53425" lon="5.62003">
        <ele>1649.28</ele>
        <time>2018-08-16T10:25:44Z</time>
      </trkpt>
      <trkpt lat="44.53425" lon="5.62003">
        <ele>1649.28</ele>
        <time>2018-08-16T10:26:07Z</time>
      </trkpt>
      <trkpt lat="44.53425" lon="5.62002">
        <ele>1648.8</ele>
        <time>2018-08-16T10:26:30Z</time>
      </trkpt>
      <trkpt lat="44.53425" lon="5.62002">
        <ele>1648.8</ele>
        <time>2018-08-16T10:26:56Z</time>
      </trkpt>
      <trkpt lat="44.53425" lon="5.62002">
        <ele>1648.8</ele>
        <time>2018-08-16T10:27:23Z</time>
      </trkpt>
      <trkpt lat="44.53425" lon="5.62003">
        <ele>1648.8</ele>
        <time>2018-08-16T10:27:52Z</time>
      </trkpt>
      <trkpt lat="44.53425" lon="5.62002">
        <ele>1648.8</ele>
        <time>2018-08-16T10:28:21Z</time>
      </trkpt>
      <trkpt lat="44.53425" lon="5.62003">
        <ele>1648.8</ele>
        <time>2018-08-16T10:28:52Z</time>
      </trkpt>
      <trkpt lat="44.53425" lon="5.62003">
        <ele>1648.8</ele>
        <time>2018-08-16T10:29:11Z</time>
      </trkpt>
      <trkpt lat="44.53425" lon="5.62003">
        <ele>1648.8</ele>
        <time>2018-08-16T10:29:40Z</time>
      </trkpt>
      <trkpt lat="44.53425" lon="5.62003">
        <ele>1648.8</ele>
        <time>2018-08-16T10:30:11Z</time>
      </trkpt>
      <trkpt lat="44.53425" lon="5.62003">
        <ele>1648.32</ele>
        <time>2018-08-16T10:30:40Z</time>
      </trkpt>
      <trkpt lat="44.53425" lon="5.62004">
        <ele>1648.32</ele>
        <time>2018-08-16T10:31:04Z</time>
      </trkpt>
      <trkpt lat="44.53424" lon="5.62003">
        <ele>1648.32</ele>
        <time>2018-08-16T10:31:37Z</time>
      </trkpt>
      <trkpt lat="44.53425" lon="5.62003">
        <ele>1647.84</ele>
        <time>2018-08-16T10:32:01Z</time>
      </trkpt>
      <trkpt lat="44.53425" lon="5.62004">
        <ele>1648.32</ele>
        <time>2018-08-16T10:32:25Z</time>
      </trkpt>
      <trkpt lat="44.53425" lon="5.62005">
        <ele>1647.84</ele>
        <time>2018-08-16T10:32:58Z</time>
      </trkpt>
      <trkpt lat="44.53425" lon="5.62003">
        <ele>1647.84</ele>
        <time>2018-08-16T10:33:25Z</time>
      </trkpt>
      <trkpt lat="44.53425" lon="5.62004">
        <ele>1647.84</ele>
        <time>2018-08-16T10:33:53Z</time>
      </trkpt>
      <trkpt lat="44.53424" lon="5.62005">
        <ele>1648.32</ele>
        <time>2018-08-16T10:34:27Z</time>
      </trkpt>
      <trkpt lat="44.53424" lon="5.62005">
        <ele>1647.84</ele>
        <time>2018-08-16T10:34:52Z</time>
      </trkpt>
      <trkpt lat="44.53423" lon="5.62005">
        <ele>1647.84</ele>
        <time>2018-08-16T10:35:19Z</time>
      </trkpt>
      <trkpt lat="44.53422" lon="5.62006">
        <ele>1647.84</ele>
        <time>2018-08-16T10:35:48Z</time>
      </trkpt>
      <trkpt lat="44.53423" lon="5.62006">
        <ele>1647.84</ele>
        <time>2018-08-16T10:36:10Z</time>
      </trkpt>
      <trkpt lat="44.53422" lon="5.62007">
        <ele>1648.32</ele>
        <time>2018-08-16T10:36:35Z</time>
      </trkpt>
      <trkpt lat="44.53422" lon="5.62008">
        <ele>1648.32</ele>
        <time>2018-08-16T10:37:03Z</time>
      </trkpt>
      <trkpt lat="44.53422" lon="5.62007">
        <ele>1648.32</ele>
        <time>2018-08-16T10:37:35Z</time>
      </trkpt>
      <trkpt lat="44.53423" lon="5.62006">
        <ele>1648.32</ele>
        <time>2018-08-16T10:38:12Z</time>
      </trkpt>
      <trkpt lat="44.53425" lon="5.62004">
        <ele>1648.8</ele>
        <time>2018-08-16T10:38:32Z</time>
      </trkpt>
      <trkpt lat="44.53425" lon="5.62003">
        <ele>1648.8</ele>
        <time>2018-08-16T10:39:02Z</time>
      </trkpt>
      <trkpt lat="44.53425" lon="5.62003">
        <ele>1648.8</ele>
        <time>2018-08-16T10:39:39Z</time>
      </trkpt>
      <trkpt lat="44.53424" lon="5.62004">
        <ele>1648.8</ele>
        <time>2018-08-16T10:40:04Z</time>
      </trkpt>
      <trkpt lat="44.53424" lon="5.62004">
        <ele>1648.32</ele>
        <time>2018-08-16T10:40:35Z</time>
      </trkpt>
      <trkpt lat="44.53424" lon="5.62004">
        <ele>1648.8</ele>
        <time>2018-08-16T10:41:14Z</time>
      </trkpt>
      <trkpt lat="44.53424" lon="5.62004">
        <ele>1648.8</ele>
        <time>2018-08-16T10:41:44Z</time>
      </trkpt>
      <trkpt lat="44.53424" lon="5.62003">
        <ele>1648.32</ele>
        <time>2018-08-16T10:42:07Z</time>
      </trkpt>
      <trkpt lat="44.53424" lon="5.62003">
        <ele>1648.8</ele>
        <time>2018-08-16T10:42:26Z</time>
      </trkpt>
      <trkpt lat="44.53425" lon="5.62003">
        <ele>1648.32</ele>
        <time>2018-08-16T10:42:52Z</time>
      </trkpt>
      <trkpt lat="44.53424" lon="5.62002">
        <ele>1648.32</ele>
        <time>2018-08-16T10:43:15Z</time>
      </trkpt>
      <trkpt lat="44.53425" lon="5.62002">
        <ele>1648.32</ele>
        <time>2018-08-16T10:43:36Z</time>
      </trkpt>
      <trkpt lat="44.53427" lon="5.62002">
        <ele>1648.32</ele>
        <time>2018-08-16T10:43:58Z</time>
      </trkpt>
      <trkpt lat="44.53426" lon="5.62003">
        <ele>1648.8</ele>
        <time>2018-08-16T10:44:04Z</time>
      </trkpt>
      <trkpt lat="44.53427" lon="5.62005">
        <ele>1649.76</ele>
        <time>2018-08-16T10:44:14Z</time>
      </trkpt>
      <trkpt lat="44.53427" lon="5.62005">
        <ele>1649.76</ele>
        <time>2018-08-16T10:44:31Z</time>
      </trkpt>
      <trkpt lat="44.53427" lon="5.62004">
        <ele>1649.76</ele>
        <time>2018-08-16T10:44:51Z</time>
      </trkpt>
      <trkpt lat="44.53427" lon="5.62005">
        <ele>1649.28</ele>
        <time>2018-08-16T10:45:15Z</time>
      </trkpt>
      <trkpt lat="44.53426" lon="5.62009">
        <ele>1650.24</ele>
        <time>2018-08-16T10:45:35Z</time>
      </trkpt>
      <trkpt lat="44.53427" lon="5.6201">
        <ele>1650.24</ele>
        <time>2018-08-16T10:45:53Z</time>
      </trkpt>
      <trkpt lat="44.53428" lon="5.62011">
        <ele>1649.76</ele>
        <time>2018-08-16T10:46:19Z</time>
      </trkpt>
      <trkpt lat="44.53428" lon="5.6201">
        <ele>1650.24</ele>
        <time>2018-08-16T10:46:47Z</time>
      </trkpt>
      <trkpt lat="44.53429" lon="5.62009">
        <ele>1650.24</ele>
        <time>2018-08-16T10:47:10Z</time>
      </trkpt>
      <trkpt lat="44.5343" lon="5.6201">
        <ele>1650.24</ele>
        <time>2018-08-16T10:47:26Z</time>
      </trkpt>
      <trkpt lat="44.5343" lon="5.6201">
        <ele>1650.24</ele>
        <time>2018-08-16T10:47:50Z</time>
      </trkpt>
      <trkpt lat="44.5343" lon="5.62008">
        <ele>1649.76</ele>
        <time>2018-08-16T10:48:05Z</time>
      </trkpt>
      <trkpt lat="44.53432" lon="5.62003">
        <ele>1649.76</ele>
        <time>2018-08-16T10:48:18Z</time>
      </trkpt>
      <trkpt lat="44.53433" lon="5.62004">
        <ele>1649.76</ele>
        <time>2018-08-16T10:48:41Z</time>
      </trkpt>
      <trkpt lat="44.53433" lon="5.62004">
        <ele>1650.24</ele>
        <time>2018-08-16T10:49:03Z</time>
      </trkpt>
      <trkpt lat="44.53433" lon="5.62005">
        <ele>1649.76</ele>
        <time>2018-08-16T10:49:30Z</time>
      </trkpt>
      <trkpt lat="44.53433" lon="5.62005">
        <ele>1649.28</ele>
        <time>2018-08-16T10:50:00Z</time>
      </trkpt>
      <trkpt lat="44.53432" lon="5.62004">
        <ele>1649.28</ele>
        <time>2018-08-16T10:50:17Z</time>
      </trkpt>
      <trkpt lat="44.53432" lon="5.62003">
        <ele>1649.28</ele>
        <time>2018-08-16T10:50:43Z</time>
      </trkpt>
      <trkpt lat="44.53429" lon="5.62">
        <ele>1649.28</ele>
        <time>2018-08-16T10:51:11Z</time>
      </trkpt>
      <trkpt lat="44.53427" lon="5.61994">
        <ele>1647.36</ele>
        <time>2018-08-16T10:51:25Z</time>
      </trkpt>
      <trkpt lat="44.53427" lon="5.61983">
        <ele>1645.91</ele>
        <time>2018-08-16T10:51:39Z</time>
      </trkpt>
      <trkpt lat="44.53428" lon="5.6197">
        <ele>1643.99</ele>
        <time>2018-08-16T10:51:52Z</time>
      </trkpt>
      <trkpt lat="44.53427" lon="5.61958">
        <ele>1641.59</ele>
        <time>2018-08-16T10:52:08Z</time>
      </trkpt>
      <trkpt lat="44.53425" lon="5.61943">
        <ele>1638.22</ele>
        <time>2018-08-16T10:52:24Z</time>
      </trkpt>
      <trkpt lat="44.53425" lon="5.61927">
        <ele>1636.3</ele>
        <time>2018-08-16T10:52:40Z</time>
      </trkpt>
      <trkpt lat="44.53425" lon="5.61919">
        <ele>1634.86</ele>
        <time>2018-08-16T10:52:55Z</time>
      </trkpt>
      <trkpt lat="44.53424" lon="5.61908">
        <ele>1632.46</ele>
        <time>2018-08-16T10:53:09Z</time>
      </trkpt>
      <trkpt lat="44.53421" lon="5.61898">
        <ele>1629.09</ele>
        <time>2018-08-16T10:53:24Z</time>
      </trkpt>
      <trkpt lat="44.53418" lon="5.61888">
        <ele>1626.21</ele>
        <time>2018-08-16T10:53:39Z</time>
      </trkpt>
      <trkpt lat="44.53414" lon="5.61875">
        <ele>1623.32</ele>
        <time>2018-08-16T10:53:54Z</time>
      </trkpt>
      <trkpt lat="44.53412" lon="5.61858">
        <ele>1620.44</ele>
        <time>2018-08-16T10:54:09Z</time>
      </trkpt>
      <trkpt lat="44.53412" lon="5.61847">
        <ele>1618.52</ele>
        <time>2018-08-16T10:54:29Z</time>
      </trkpt>
      <trkpt lat="44.5341" lon="5.61835">
        <ele>1615.15</ele>
        <time>2018-08-16T10:54:40Z</time>
      </trkpt>
      <trkpt lat="44.5341" lon="5.61824">
        <ele>1612.27</ele>
        <time>2018-08-16T10:54:53Z</time>
      </trkpt>
      <trkpt lat="44.53409" lon="5.61809">
        <ele>1608.9</ele>
        <time>2018-08-16T10:55:10Z</time>
      </trkpt>
      <trkpt lat="44.53408" lon="5.61799">
        <ele>1606.98</ele>
        <time>2018-08-16T10:55:22Z</time>
      </trkpt>
      <trkpt lat="44.53407" lon="5.61789">
        <ele>1604.1</ele>
        <time>2018-08-16T10:55:39Z</time>
      </trkpt>
      <trkpt lat="44.53402" lon="5.61783">
        <ele>1601.69</ele>
        <time>2018-08-16T10:55:52Z</time>
      </trkpt>
      <trkpt lat="44.53399" lon="5.61779">
        <ele>1599.77</ele>
        <time>2018-08-16T10:56:05Z</time>
      </trkpt>
      <trkpt lat="44.534" lon="5.61771">
        <ele>1598.81</ele>
        <time>2018-08-16T10:56:22Z</time>
      </trkpt>
      <trkpt lat="44.53401" lon="5.61764">
        <ele>1596.41</ele>
        <time>2018-08-16T10:56:34Z</time>
      </trkpt>
      <trkpt lat="44.53404" lon="5.61757">
        <ele>1594</ele>
        <time>2018-08-16T10:56:47Z</time>
      </trkpt>
      <trkpt lat="44.53403" lon="5.61749">
        <ele>1591.12</ele>
        <time>2018-08-16T10:57:01Z</time>
      </trkpt>
      <trkpt lat="44.53404" lon="5.61743">
        <ele>1589.2</ele>
        <time>2018-08-16T10:57:14Z</time>
      </trkpt>
      <trkpt lat="44.53405" lon="5.61738">
        <ele>1587.27</ele>
        <time>2018-08-16T10:57:28Z</time>
      </trkpt>
      <trkpt lat="44.53404" lon="5.6173">
        <ele>1584.39</ele>
        <time>2018-08-16T10:57:43Z</time>
      </trkpt>
      <trkpt lat="44.53399" lon="5.61729">
        <ele>1582.47</ele>
        <time>2018-08-16T10:57:59Z</time>
      </trkpt>
      <trkpt lat="44.53397" lon="5.61724">
        <ele>1581.03</ele>
        <time>2018-08-16T10:58:10Z</time>
      </trkpt>
      <trkpt lat="44.53395" lon="5.61723">
        <ele>1580.06</ele>
        <time>2018-08-16T10:58:24Z</time>
      </trkpt>
      <trkpt lat="44.53393" lon="5.61722">
        <ele>1578.62</ele>
        <time>2018-08-16T10:58:38Z</time>
      </trkpt>
      <trkpt lat="44.53391" lon="5.61717">
        <ele>1577.18</ele>
        <time>2018-08-16T10:58:51Z</time>
      </trkpt>
      <trkpt lat="44.53388" lon="5.61712">
        <ele>1574.78</ele>
        <time>2018-08-16T10:59:05Z</time>
      </trkpt>
      <trkpt lat="44.53385" lon="5.61703">
        <ele>1571.89</ele>
        <time>2018-08-16T10:59:17Z</time>
      </trkpt>
      <trkpt lat="44.53381" lon="5.61694">
        <ele>1568.53</ele>
        <time>2018-08-16T10:59:32Z</time>
      </trkpt>
      <trkpt lat="44.53377" lon="5.61684">
        <ele>1565.16</ele>
        <time>2018-08-16T10:59:45Z</time>
      </trkpt>
      <trkpt lat="44.53374" lon="5.61676">
        <ele>1562.76</ele>
        <time>2018-08-16T10:59:58Z</time>
      </trkpt>
      <trkpt lat="44.53372" lon="5.61665">
        <ele>1559.88</ele>
        <time>2018-08-16T11:00:12Z</time>
      </trkpt>
      <trkpt lat="44.53368" lon="5.61659">
        <ele>1557.47</ele>
        <time>2018-08-16T11:00:23Z</time>
      </trkpt>
      <trkpt lat="44.53352" lon="5.61651">
        <ele>1554.11</ele>
        <time>2018-08-16T11:00:39Z</time>
      </trkpt>
      <trkpt lat="44.53344" lon="5.6165">
        <ele>1553.15</ele>
        <time>2018-08-16T11:00:47Z</time>
      </trkpt>
      <trkpt lat="44.5333" lon="5.61654">
        <ele>1552.19</ele>
        <time>2018-08-16T11:01:00Z</time>
      </trkpt>
      <trkpt lat="44.53316" lon="5.61644">
        <ele>1550.26</ele>
        <time>2018-08-16T11:01:17Z</time>
      </trkpt>
      <trkpt lat="44.53305" lon="5.61634">
        <ele>1547.38</ele>
        <time>2018-08-16T11:01:31Z</time>
      </trkpt>
      <trkpt lat="44.53294" lon="5.61626">
        <ele>1544.5</ele>
        <time>2018-08-16T11:01:46Z</time>
      </trkpt>
      <trkpt lat="44.53293" lon="5.61625">
        <ele>1543.53</ele>
        <time>2018-08-16T11:01:48Z</time>
      </trkpt>
      <trkpt lat="44.53293" lon="5.61619">
        <ele>1543.05</ele>
        <time>2018-08-16T11:01:51Z</time>
      </trkpt>
      <trkpt lat="44.53295" lon="5.61604">
        <ele>1541.61</ele>
        <time>2018-08-16T11:02:06Z</time>
      </trkpt>
      <trkpt lat="44.53295" lon="5.61603">
        <ele>1541.61</ele>
        <time>2018-08-16T11:02:09Z</time>
      </trkpt>
      <trkpt lat="44.53296" lon="5.61585">
        <ele>1538.73</ele>
        <time>2018-08-16T11:02:23Z</time>
      </trkpt>
      <trkpt lat="44.53291" lon="5.61568">
        <ele>1536.8</ele>
        <time>2018-08-16T11:02:37Z</time>
      </trkpt>
      <trkpt lat="44.53299" lon="5.61556">
        <ele>1536.32</ele>
        <time>2018-08-16T11:02:53Z</time>
      </trkpt>
      <trkpt lat="44.53305" lon="5.61547">
        <ele>1536.8</ele>
        <time>2018-08-16T11:03:07Z</time>
      </trkpt>
      <trkpt lat="44.53299" lon="5.61526">
        <ele>1534.4</ele>
        <time>2018-08-16T11:03:22Z</time>
      </trkpt>
      <trkpt lat="44.53302" lon="5.61503">
        <ele>1532.96</ele>
        <time>2018-08-16T11:03:39Z</time>
      </trkpt>
      <trkpt lat="44.53308" lon="5.61483">
        <ele>1533.44</ele>
        <time>2018-08-16T11:03:53Z</time>
      </trkpt>
      <trkpt lat="44.53317" lon="5.61468">
        <ele>1533.92</ele>
        <time>2018-08-16T11:04:07Z</time>
      </trkpt>
      <trkpt lat="44.53329" lon="5.61452">
        <ele>1534.4</ele>
        <time>2018-08-16T11:04:24Z</time>
      </trkpt>
      <trkpt lat="44.53331" lon="5.6144">
        <ele>1533.92</ele>
        <time>2018-08-16T11:04:38Z</time>
      </trkpt>
      <trkpt lat="44.53341" lon="5.61431">
        <ele>1532.48</ele>
        <time>2018-08-16T11:04:53Z</time>
      </trkpt>
      <trkpt lat="44.5335" lon="5.61424">
        <ele>1530.56</ele>
        <time>2018-08-16T11:05:08Z</time>
      </trkpt>
      <trkpt lat="44.5336" lon="5.61414">
        <ele>1528.15</ele>
        <time>2018-08-16T11:05:24Z</time>
      </trkpt>
      <trkpt lat="44.53363" lon="5.6141">
        <ele>1527.67</ele>
        <time>2018-08-16T11:05:37Z</time>
      </trkpt>
      <trkpt lat="44.53372" lon="5.61402">
        <ele>1526.23</ele>
        <time>2018-08-16T11:05:51Z</time>
      </trkpt>
      <trkpt lat="44.53381" lon="5.614">
        <ele>1524.79</ele>
        <time>2018-08-16T11:06:02Z</time>
      </trkpt>
      <trkpt lat="44.53383" lon="5.61399">
        <ele>1524.31</ele>
        <time>2018-08-16T11:06:04Z</time>
      </trkpt>
      <trkpt lat="44.53395" lon="5.61404">
        <ele>1520.94</ele>
        <time>2018-08-16T11:06:19Z</time>
      </trkpt>
      <trkpt lat="44.53405" lon="5.614">
        <ele>1518.06</ele>
        <time>2018-08-16T11:06:33Z</time>
      </trkpt>
      <trkpt lat="44.53411" lon="5.61391">
        <ele>1515.66</ele>
        <time>2018-08-16T11:06:48Z</time>
      </trkpt>
      <trkpt lat="44.53418" lon="5.61383">
        <ele>1513.25</ele>
        <time>2018-08-16T11:07:05Z</time>
      </trkpt>
      <trkpt lat="44.53423" lon="5.61376">
        <ele>1510.37</ele>
        <time>2018-08-16T11:07:21Z</time>
      </trkpt>
      <trkpt lat="44.53429" lon="5.61371">
        <ele>1507.48</ele>
        <time>2018-08-16T11:07:34Z</time>
      </trkpt>
      <trkpt lat="44.53434" lon="5.61364">
        <ele>1504.12</ele>
        <time>2018-08-16T11:07:48Z</time>
      </trkpt>
      <trkpt lat="44.53439" lon="5.61357">
        <ele>1501.24</ele>
        <time>2018-08-16T11:08:03Z</time>
      </trkpt>
      <trkpt lat="44.53447" lon="5.61355">
        <ele>1497.87</ele>
        <time>2018-08-16T11:08:18Z</time>
      </trkpt>
      <trkpt lat="44.53454" lon="5.61355">
        <ele>1495.47</ele>
        <time>2018-08-16T11:08:34Z</time>
      </trkpt>
      <trkpt lat="44.53463" lon="5.61347">
        <ele>1492.1</ele>
        <time>2018-08-16T11:08:56Z</time>
      </trkpt>
      <trkpt lat="44.5347" lon="5.61342">
        <ele>1489.22</ele>
        <time>2018-08-16T11:09:08Z</time>
      </trkpt>
      <trkpt lat="44.53479" lon="5.61335">
        <ele>1485.85</ele>
        <time>2018-08-16T11:09:23Z</time>
      </trkpt>
      <trkpt lat="44.53484" lon="5.61323">
        <ele>1482.49</ele>
        <time>2018-08-16T11:09:38Z</time>
      </trkpt>
      <trkpt lat="44.53491" lon="5.61315">
        <ele>1480.57</ele>
        <time>2018-08-16T11:09:51Z</time>
      </trkpt>
      <trkpt lat="44.53497" lon="5.61306">
        <ele>1478.16</ele>
        <time>2018-08-16T11:10:07Z</time>
      </trkpt>
      <trkpt lat="44.53509" lon="5.61293">
        <ele>1476.72</ele>
        <time>2018-08-16T11:10:24Z</time>
      </trkpt>
      <trkpt lat="44.53517" lon="5.61285">
        <ele>1474.32</ele>
        <time>2018-08-16T11:10:44Z</time>
      </trkpt>
      <trkpt lat="44.53525" lon="5.61278">
        <ele>1470.95</ele>
        <time>2018-08-16T11:10:56Z</time>
      </trkpt>
      <trkpt lat="44.53537" lon="5.61273">
        <ele>1468.07</ele>
        <time>2018-08-16T11:11:12Z</time>
      </trkpt>
      <trkpt lat="44.5355" lon="5.6127">
        <ele>1465.67</ele>
        <time>2018-08-16T11:11:27Z</time>
      </trkpt>
      <trkpt lat="44.5356" lon="5.61265">
        <ele>1462.78</ele>
        <time>2018-08-16T11:11:39Z</time>
      </trkpt>
      <trkpt lat="44.53572" lon="5.61255">
        <ele>1460.38</ele>
        <time>2018-08-16T11:11:54Z</time>
      </trkpt>
      <trkpt lat="44.53579" lon="5.61241">
        <ele>1457.98</ele>
        <time>2018-08-16T11:12:08Z</time>
      </trkpt>
      <trkpt lat="44.5358" lon="5.61234">
        <ele>1455.57</ele>
        <time>2018-08-16T11:12:24Z</time>
      </trkpt>
      <trkpt lat="44.53583" lon="5.61222">
        <ele>1452.21</ele>
        <time>2018-08-16T11:12:40Z</time>
      </trkpt>
      <trkpt lat="44.53589" lon="5.61212">
        <ele>1449.32</ele>
        <time>2018-08-16T11:12:55Z</time>
      </trkpt>
      <trkpt lat="44.53595" lon="5.612">
        <ele>1445.96</ele>
        <time>2018-08-16T11:13:10Z</time>
      </trkpt>
      <trkpt lat="44.53602" lon="5.61189">
        <ele>1443.56</ele>
        <time>2018-08-16T11:13:24Z</time>
      </trkpt>
      <trkpt lat="44.53609" lon="5.61184">
        <ele>1442.6</ele>
        <time>2018-08-16T11:13:40Z</time>
      </trkpt>
      <trkpt lat="44.53616" lon="5.61175">
        <ele>1440.67</ele>
        <time>2018-08-16T11:13:53Z</time>
      </trkpt>
      <trkpt lat="44.53622" lon="5.61167">
        <ele>1438.75</ele>
        <time>2018-08-16T11:14:03Z</time>
      </trkpt>
      <trkpt lat="44.53631" lon="5.61159">
        <ele>1435.87</ele>
        <time>2018-08-16T11:14:18Z</time>
      </trkpt>
      <trkpt lat="44.53637" lon="5.61151">
        <ele>1432.98</ele>
        <time>2018-08-16T11:14:31Z</time>
      </trkpt>
      <trkpt lat="44.53642" lon="5.61139">
        <ele>1430.1</ele>
        <time>2018-08-16T11:14:45Z</time>
      </trkpt>
      <trkpt lat="44.5365" lon="5.61125">
        <ele>1428.18</ele>
        <time>2018-08-16T11:14:59Z</time>
      </trkpt>
      <trkpt lat="44.53654" lon="5.6112">
        <ele>1427.7</ele>
        <time>2018-08-16T11:15:04Z</time>
      </trkpt>
      <trkpt lat="44.53663" lon="5.61103">
        <ele>1425.29</ele>
        <time>2018-08-16T11:15:19Z</time>
      </trkpt>
      <trkpt lat="44.53669" lon="5.61086">
        <ele>1423.37</ele>
        <time>2018-08-16T11:15:34Z</time>
      </trkpt>
      <trkpt lat="44.53677" lon="5.61071">
        <ele>1420.97</ele>
        <time>2018-08-16T11:15:50Z</time>
      </trkpt>
      <trkpt lat="44.53684" lon="5.61058">
        <ele>1419.52</ele>
        <time>2018-08-16T11:16:02Z</time>
      </trkpt>
      <trkpt lat="44.53689" lon="5.61044">
        <ele>1416.64</ele>
        <time>2018-08-16T11:16:16Z</time>
      </trkpt>
      <trkpt lat="44.53696" lon="5.61029">
        <ele>1414.24</ele>
        <time>2018-08-16T11:16:33Z</time>
      </trkpt>
      <trkpt lat="44.53704" lon="5.6102">
        <ele>1410.87</ele>
        <time>2018-08-16T11:16:49Z</time>
      </trkpt>
      <trkpt lat="44.53711" lon="5.6101">
        <ele>1408.47</ele>
        <time>2018-08-16T11:17:02Z</time>
      </trkpt>
      <trkpt lat="44.53721" lon="5.60998">
        <ele>1407.03</ele>
        <time>2018-08-16T11:17:17Z</time>
      </trkpt>
      <trkpt lat="44.53728" lon="5.60987">
        <ele>1405.1</ele>
        <time>2018-08-16T11:17:30Z</time>
      </trkpt>
      <trkpt lat="44.53737" lon="5.60976">
        <ele>1403.66</ele>
        <time>2018-08-16T11:17:42Z</time>
      </trkpt>
      <trkpt lat="44.53747" lon="5.60958">
        <ele>1400.3</ele>
        <time>2018-08-16T11:18:00Z</time>
      </trkpt>
      <trkpt lat="44.5375" lon="5.60938">
        <ele>1397.41</ele>
        <time>2018-08-16T11:18:17Z</time>
      </trkpt>
      <trkpt lat="44.53757" lon="5.60925">
        <ele>1395.01</ele>
        <time>2018-08-16T11:18:32Z</time>
      </trkpt>
      <trkpt lat="44.53764" lon="5.60913">
        <ele>1392.61</ele>
        <time>2018-08-16T11:18:46Z</time>
      </trkpt>
      <trkpt lat="44.53768" lon="5.60901">
        <ele>1390.2</ele>
        <time>2018-08-16T11:19:02Z</time>
      </trkpt>
      <trkpt lat="44.53771" lon="5.60889">
        <ele>1387.32</ele>
        <time>2018-08-16T11:19:18Z</time>
      </trkpt>
      <trkpt lat="44.53772" lon="5.60888">
        <ele>1387.32</ele>
        <time>2018-08-16T11:19:38Z</time>
      </trkpt>
      <trkpt lat="44.53775" lon="5.60883">
        <ele>1386.84</ele>
        <time>2018-08-16T11:20:09Z</time>
      </trkpt>
      <trkpt lat="44.53773" lon="5.60878">
        <ele>1386.84</ele>
        <time>2018-08-16T11:20:36Z</time>
      </trkpt>
      <trkpt lat="44.53775" lon="5.60878">
        <ele>1386.84</ele>
        <time>2018-08-16T11:21:11Z</time>
      </trkpt>
      <trkpt lat="44.53774" lon="5.60877">
        <ele>1386.84</ele>
        <time>2018-08-16T11:21:43Z</time>
      </trkpt>
      <trkpt lat="44.53773" lon="5.60877">
        <ele>1387.32</ele>
        <time>2018-08-16T11:22:12Z</time>
      </trkpt>
      <trkpt lat="44.53773" lon="5.60876">
        <ele>1387.32</ele>
        <time>2018-08-16T11:22:48Z</time>
      </trkpt>
      <trkpt lat="44.53774" lon="5.60878">
        <ele>1386.36</ele>
        <time>2018-08-16T11:23:20Z</time>
      </trkpt>
      <trkpt lat="44.53781" lon="5.60874">
        <ele>1384.92</ele>
        <time>2018-08-16T11:23:35Z</time>
      </trkpt>
      <trkpt lat="44.5379" lon="5.60859">
        <ele>1382.99</ele>
        <time>2018-08-16T11:23:51Z</time>
      </trkpt>
      <trkpt lat="44.53796" lon="5.60845">
        <ele>1382.51</ele>
        <time>2018-08-16T11:24:05Z</time>
      </trkpt>
      <trkpt lat="44.53804" lon="5.60827">
        <ele>1379.63</ele>
        <time>2018-08-16T11:24:20Z</time>
      </trkpt>
      <trkpt lat="44.53813" lon="5.6081">
        <ele>1378.67</ele>
        <time>2018-08-16T11:24:36Z</time>
      </trkpt>
      <trkpt lat="44.53822" lon="5.60794">
        <ele>1378.19</ele>
        <time>2018-08-16T11:24:52Z</time>
      </trkpt>
      <trkpt lat="44.53832" lon="5.6078">
        <ele>1377.71</ele>
        <time>2018-08-16T11:25:06Z</time>
      </trkpt>
      <trkpt lat="44.53835" lon="5.60776">
        <ele>1377.71</ele>
        <time>2018-08-16T11:25:10Z</time>
      </trkpt>
      <trkpt lat="44.53856" lon="5.60761">
        <ele>1377.71</ele>
        <time>2018-08-16T11:25:32Z</time>
      </trkpt>
      <trkpt lat="44.53867" lon="5.60751">
        <ele>1377.71</ele>
        <time>2018-08-16T11:25:47Z</time>
      </trkpt>
      <trkpt lat="44.53878" lon="5.60741">
        <ele>1377.71</ele>
        <time>2018-08-16T11:26:00Z</time>
      </trkpt>
      <trkpt lat="44.53887" lon="5.6073">
        <ele>1377.23</ele>
        <time>2018-08-16T11:26:12Z</time>
      </trkpt>
      <trkpt lat="44.53895" lon="5.60714">
        <ele>1376.75</ele>
        <time>2018-08-16T11:26:25Z</time>
      </trkpt>
      <trkpt lat="44.53906" lon="5.60701">
        <ele>1376.26</ele>
        <time>2018-08-16T11:26:41Z</time>
      </trkpt>
      <trkpt lat="44.53916" lon="5.60687">
        <ele>1374.34</ele>
        <time>2018-08-16T11:26:56Z</time>
      </trkpt>
      <trkpt lat="44.53921" lon="5.60675">
        <ele>1373.38</ele>
        <time>2018-08-16T11:27:07Z</time>
      </trkpt>
      <trkpt lat="44.53927" lon="5.60651">
        <ele>1370.98</ele>
        <time>2018-08-16T11:27:23Z</time>
      </trkpt>
      <trkpt lat="44.5393" lon="5.60643">
        <ele>1370.02</ele>
        <time>2018-08-16T11:27:29Z</time>
      </trkpt>
      <trkpt lat="44.53937" lon="5.60628">
        <ele>1368.09</ele>
        <time>2018-08-16T11:27:44Z</time>
      </trkpt>
      <trkpt lat="44.53945" lon="5.60611">
        <ele>1365.69</ele>
        <time>2018-08-16T11:27:59Z</time>
      </trkpt>
      <trkpt lat="44.53952" lon="5.60588">
        <ele>1363.29</ele>
        <time>2018-08-16T11:28:15Z</time>
      </trkpt>
      <trkpt lat="44.5396" lon="5.60575">
        <ele>1362.33</ele>
        <time>2018-08-16T11:28:28Z</time>
      </trkpt>
      <trkpt lat="44.53968" lon="5.60569">
        <ele>1361.84</ele>
        <time>2018-08-16T11:28:37Z</time>
      </trkpt>
      <trkpt lat="44.53979" lon="5.60551">
        <ele>1360.88</ele>
        <time>2018-08-16T11:28:51Z</time>
      </trkpt>
      <trkpt lat="44.53989" lon="5.60539">
        <ele>1359.92</ele>
        <time>2018-08-16T11:29:07Z</time>
      </trkpt>
      <trkpt lat="44.53992" lon="5.60536">
        <ele>1359.44</ele>
        <time>2018-08-16T11:29:11Z</time>
      </trkpt>
      <trkpt lat="44.54005" lon="5.60522">
        <ele>1357.04</ele>
        <time>2018-08-16T11:29:26Z</time>
      </trkpt>
      <trkpt lat="44.54015" lon="5.60509">
        <ele>1356.08</ele>
        <time>2018-08-16T11:29:40Z</time>
      </trkpt>
      <trkpt lat="44.54027" lon="5.60499">
        <ele>1355.12</ele>
        <time>2018-08-16T11:29:53Z</time>
      </trkpt>
      <trkpt lat="44.54032" lon="5.60494">
        <ele>1354.63</ele>
        <time>2018-08-16T11:29:58Z</time>
      </trkpt>
      <trkpt lat="44.54048" lon="5.60487">
        <ele>1353.19</ele>
        <time>2018-08-16T11:30:13Z</time>
      </trkpt>
      <trkpt lat="44.54063" lon="5.60479">
        <ele>1350.79</ele>
        <time>2018-08-16T11:30:28Z</time>
      </trkpt>
      <trkpt lat="44.54077" lon="5.60475">
        <ele>1347.91</ele>
        <time>2018-08-16T11:30:43Z</time>
      </trkpt>
      <trkpt lat="44.54087" lon="5.60466">
        <ele>1345.5</ele>
        <time>2018-08-16T11:30:56Z</time>
      </trkpt>
      <trkpt lat="44.54094" lon="5.60459">
        <ele>1343.58</ele>
        <time>2018-08-16T11:31:04Z</time>
      </trkpt>
      <trkpt lat="44.54104" lon="5.60445">
        <ele>1340.7</ele>
        <time>2018-08-16T11:31:19Z</time>
      </trkpt>
      <trkpt lat="44.54112" lon="5.60433">
        <ele>1337.81</ele>
        <time>2018-08-16T11:31:33Z</time>
      </trkpt>
      <trkpt lat="44.54122" lon="5.60421">
        <ele>1335.89</ele>
        <time>2018-08-16T11:31:47Z</time>
      </trkpt>
      <trkpt lat="44.54122" lon="5.60419">
        <ele>1335.41</ele>
        <time>2018-08-16T11:31:48Z</time>
      </trkpt>
      <trkpt lat="44.54128" lon="5.60398">
        <ele>1333.97</ele>
        <time>2018-08-16T11:32:03Z</time>
      </trkpt>
      <trkpt lat="44.54134" lon="5.6038">
        <ele>1332.52</ele>
        <time>2018-08-16T11:32:19Z</time>
      </trkpt>
      <trkpt lat="44.54138" lon="5.60367">
        <ele>1329.16</ele>
        <time>2018-08-16T11:32:31Z</time>
      </trkpt>
      <trkpt lat="44.54141" lon="5.60362">
        <ele>1328.2</ele>
        <time>2018-08-16T11:32:37Z</time>
      </trkpt>
      <trkpt lat="44.54143" lon="5.60344">
        <ele>1326.28</ele>
        <time>2018-08-16T11:32:51Z</time>
      </trkpt>
      <trkpt lat="44.54147" lon="5.60322">
        <ele>1324.83</ele>
        <time>2018-08-16T11:33:06Z</time>
      </trkpt>
      <trkpt lat="44.54152" lon="5.60311">
        <ele>1323.87</ele>
        <time>2018-08-16T11:33:20Z</time>
      </trkpt>
      <trkpt lat="44.54155" lon="5.6031">
        <ele>1323.39</ele>
        <time>2018-08-16T11:33:35Z</time>
      </trkpt>
      <trkpt lat="44.5415" lon="5.60314">
        <ele>1323.87</ele>
        <time>2018-08-16T11:33:47Z</time>
      </trkpt>
      <trkpt lat="44.54149" lon="5.60313">
        <ele>1324.35</ele>
        <time>2018-08-16T11:34:13Z</time>
      </trkpt>
      <trkpt lat="44.54149" lon="5.6031">
        <ele>1323.87</ele>
        <time>2018-08-16T11:34:38Z</time>
      </trkpt>
      <trkpt lat="44.54143" lon="5.60314">
        <ele>1322.91</ele>
        <time>2018-08-16T11:35:02Z</time>
      </trkpt>
      <trkpt lat="44.54157" lon="5.60307">
        <ele>1323.87</ele>
        <time>2018-08-16T11:35:16Z</time>
      </trkpt>
      <trkpt lat="44.54165" lon="5.60306">
        <ele>1323.87</ele>
        <time>2018-08-16T11:35:41Z</time>
      </trkpt>
      <trkpt lat="44.54158" lon="5.60307">
        <ele>1323.87</ele>
        <time>2018-08-16T11:36:06Z</time>
      </trkpt>
      <trkpt lat="44.54161" lon="5.6031">
        <ele>1323.39</ele>
        <time>2018-08-16T11:36:22Z</time>
      </trkpt>
      <trkpt lat="44.54165" lon="5.60311">
        <ele>1323.87</ele>
        <time>2018-08-16T11:36:49Z</time>
      </trkpt>
      <trkpt lat="44.54168" lon="5.60311">
        <ele>1323.87</ele>
        <time>2018-08-16T11:37:10Z</time>
      </trkpt>
      <trkpt lat="44.54169" lon="5.60312">
        <ele>1323.39</ele>
        <time>2018-08-16T11:37:33Z</time>
      </trkpt>
      <trkpt lat="44.54172" lon="5.60314">
        <ele>1322.91</ele>
        <time>2018-08-16T11:37:52Z</time>
      </trkpt>
      <trkpt lat="44.54167" lon="5.60326">
        <ele>1322.91</ele>
        <time>2018-08-16T11:38:06Z</time>
      </trkpt>
      <trkpt lat="44.54163" lon="5.60342">
        <ele>1322.43</ele>
        <time>2018-08-16T11:38:20Z</time>
      </trkpt>
      <trkpt lat="44.54161" lon="5.60354">
        <ele>1322.43</ele>
        <time>2018-08-16T11:38:31Z</time>
      </trkpt>
      <trkpt lat="44.54156" lon="5.60371">
        <ele>1323.87</ele>
        <time>2018-08-16T11:38:45Z</time>
      </trkpt>
      <trkpt lat="44.54152" lon="5.60386">
        <ele>1325.8</ele>
        <time>2018-08-16T11:38:59Z</time>
      </trkpt>
      <trkpt lat="44.54142" lon="5.604">
        <ele>1326.76</ele>
        <time>2018-08-16T11:39:14Z</time>
      </trkpt>
      <trkpt lat="44.54142" lon="5.60406">
        <ele>1327.24</ele>
        <time>2018-08-16T11:39:19Z</time>
      </trkpt>
      <trkpt lat="44.54142" lon="5.60409">
        <ele>1327.72</ele>
        <time>2018-08-16T11:39:21Z</time>
      </trkpt>
      <trkpt lat="44.54142" lon="5.60411">
        <ele>1327.72</ele>
        <time>2018-08-16T11:39:23Z</time>
      </trkpt>
      <trkpt lat="44.54142" lon="5.60418">
        <ele>1328.2</ele>
        <time>2018-08-16T11:39:28Z</time>
      </trkpt>
      <trkpt lat="44.54138" lon="5.60435">
        <ele>1329.64</ele>
        <time>2018-08-16T11:39:44Z</time>
      </trkpt>
      <trkpt lat="44.54134" lon="5.60451">
        <ele>1330.6</ele>
        <time>2018-08-16T11:39:58Z</time>
      </trkpt>
      <trkpt lat="44.54128" lon="5.60468">
        <ele>1331.08</ele>
        <time>2018-08-16T11:40:14Z</time>
      </trkpt>
      <trkpt lat="44.54123" lon="5.60481">
        <ele>1332.04</ele>
        <time>2018-08-16T11:40:28Z</time>
      </trkpt>
      <trkpt lat="44.54121" lon="5.60496">
        <ele>1333.01</ele>
        <time>2018-08-16T11:40:41Z</time>
      </trkpt>
      <trkpt lat="44.54119" lon="5.60513">
        <ele>1334.45</ele>
        <time>2018-08-16T11:40:56Z</time>
      </trkpt>
      <trkpt lat="44.54114" lon="5.6053">
        <ele>1335.89</ele>
        <time>2018-08-16T11:41:11Z</time>
      </trkpt>
      <trkpt lat="44.54107" lon="5.60546">
        <ele>1336.85</ele>
        <time>2018-08-16T11:41:25Z</time>
      </trkpt>
      <trkpt lat="44.54101" lon="5.60559">
        <ele>1337.81</ele>
        <time>2018-08-16T11:41:39Z</time>
      </trkpt>
      <trkpt lat="44.54095" lon="5.60574">
        <ele>1339.25</ele>
        <time>2018-08-16T11:41:54Z</time>
      </trkpt>
      <trkpt lat="44.54088" lon="5.60588">
        <ele>1340.7</ele>
        <time>2018-08-16T11:42:08Z</time>
      </trkpt>
      <trkpt lat="44.54082" lon="5.60603">
        <ele>1342.14</ele>
        <time>2018-08-16T11:42:22Z</time>
      </trkpt>
      <trkpt lat="44.54073" lon="5.60618">
        <ele>1343.58</ele>
        <time>2018-08-16T11:42:37Z</time>
      </trkpt>
      <trkpt lat="44.54065" lon="5.60628">
        <ele>1344.54</ele>
        <time>2018-08-16T11:42:49Z</time>
      </trkpt>
      <trkpt lat="44.54057" lon="5.6064">
        <ele>1345.5</ele>
        <time>2018-08-16T11:43:03Z</time>
      </trkpt>
      <trkpt lat="44.54048" lon="5.60652">
        <ele>1346.94</ele>
        <time>2018-08-16T11:43:16Z</time>
      </trkpt>
      <trkpt lat="44.54041" lon="5.60663">
        <ele>1347.91</ele>
        <time>2018-08-16T11:43:29Z</time>
      </trkpt>
      <trkpt lat="44.54037" lon="5.6067">
        <ele>1348.39</ele>
        <time>2018-08-16T11:43:36Z</time>
      </trkpt>
      <trkpt lat="44.54024" lon="5.60679">
        <ele>1350.31</ele>
        <time>2018-08-16T11:43:51Z</time>
      </trkpt>
      <trkpt lat="44.54016" lon="5.6069">
        <ele>1351.27</ele>
        <time>2018-08-16T11:44:04Z</time>
      </trkpt>
      <trkpt lat="44.54005" lon="5.60699">
        <ele>1352.23</ele>
        <time>2018-08-16T11:44:18Z</time>
      </trkpt>
      <trkpt lat="44.53992" lon="5.60707">
        <ele>1353.19</ele>
        <time>2018-08-16T11:44:34Z</time>
      </trkpt>
      <trkpt lat="44.53981" lon="5.60717">
        <ele>1354.15</ele>
        <time>2018-08-16T11:44:49Z</time>
      </trkpt>
      <trkpt lat="44.53972" lon="5.60726">
        <ele>1355.6</ele>
        <time>2018-08-16T11:45:02Z</time>
      </trkpt>
      <trkpt lat="44.53961" lon="5.60735">
        <ele>1356.08</ele>
        <time>2018-08-16T11:45:15Z</time>
      </trkpt>
      <trkpt lat="44.53953" lon="5.6075">
        <ele>1357.04</ele>
        <time>2018-08-16T11:45:30Z</time>
      </trkpt>
      <trkpt lat="44.53946" lon="5.6076">
        <ele>1358</ele>
        <time>2018-08-16T11:45:42Z</time>
      </trkpt>
      <trkpt lat="44.53945" lon="5.60761">
        <ele>1358.48</ele>
        <time>2018-08-16T11:45:44Z</time>
      </trkpt>
      <trkpt lat="44.53929" lon="5.60771">
        <ele>1359.92</ele>
        <time>2018-08-16T11:46:01Z</time>
      </trkpt>
      <trkpt lat="44.53923" lon="5.60774">
        <ele>1360.4</ele>
        <time>2018-08-16T11:46:08Z</time>
      </trkpt>
      <trkpt lat="44.53919" lon="5.60778">
        <ele>1360.88</ele>
        <time>2018-08-16T11:46:13Z</time>
      </trkpt>
      <trkpt lat="44.53907" lon="5.60789">
        <ele>1361.84</ele>
        <time>2018-08-16T11:46:29Z</time>
      </trkpt>
      <trkpt lat="44.53894" lon="5.60797">
        <ele>1363.29</ele>
        <time>2018-08-16T11:46:44Z</time>
      </trkpt>
      <trkpt lat="44.53884" lon="5.60804">
        <ele>1364.25</ele>
        <time>2018-08-16T11:46:56Z</time>
      </trkpt>
      <trkpt lat="44.53869" lon="5.60809">
        <ele>1365.69</ele>
        <time>2018-08-16T11:47:12Z</time>
      </trkpt>
      <trkpt lat="44.53857" lon="5.60816">
        <ele>1366.65</ele>
        <time>2018-08-16T11:47:27Z</time>
      </trkpt>
      <trkpt lat="44.53847" lon="5.60824">
        <ele>1368.09</ele>
        <time>2018-08-16T11:47:40Z</time>
      </trkpt>
      <trkpt lat="44.53839" lon="5.60832">
        <ele>1369.05</ele>
        <time>2018-08-16T11:47:52Z</time>
      </trkpt>
      <trkpt lat="44.53837" lon="5.60834">
        <ele>1369.54</ele>
        <time>2018-08-16T11:47:55Z</time>
      </trkpt>
      <trkpt lat="44.53827" lon="5.60851">
        <ele>1370.5</ele>
        <time>2018-08-16T11:48:11Z</time>
      </trkpt>
      <trkpt lat="44.53821" lon="5.60865">
        <ele>1371.94</ele>
        <time>2018-08-16T11:48:25Z</time>
      </trkpt>
      <trkpt lat="44.53819" lon="5.60872">
        <ele>1371.94</ele>
        <time>2018-08-16T11:48:31Z</time>
      </trkpt>
      <trkpt lat="44.53817" lon="5.60875">
        <ele>1372.42</ele>
        <time>2018-08-16T11:48:34Z</time>
      </trkpt>
      <trkpt lat="44.53813" lon="5.60894">
        <ele>1373.86</ele>
        <time>2018-08-16T11:48:50Z</time>
      </trkpt>
      <trkpt lat="44.53811" lon="5.60909">
        <ele>1375.3</ele>
        <time>2018-08-16T11:49:03Z</time>
      </trkpt>
      <trkpt lat="44.5381" lon="5.60916">
        <ele>1375.78</ele>
        <time>2018-08-16T11:49:08Z</time>
      </trkpt>
      <trkpt lat="44.53808" lon="5.60921">
        <ele>1376.26</ele>
        <time>2018-08-16T11:49:13Z</time>
      </trkpt>
      <trkpt lat="44.53807" lon="5.60929">
        <ele>1376.75</ele>
        <time>2018-08-16T11:49:19Z</time>
      </trkpt>
      <trkpt lat="44.53803" lon="5.60948">
        <ele>1378.19</ele>
        <time>2018-08-16T11:49:34Z</time>
      </trkpt>
      <trkpt lat="44.53802" lon="5.60955">
        <ele>1378.67</ele>
        <time>2018-08-16T11:49:39Z</time>
      </trkpt>
      <trkpt lat="44.53796" lon="5.60972">
        <ele>1380.11</ele>
        <time>2018-08-16T11:49:54Z</time>
      </trkpt>
      <trkpt lat="44.53793" lon="5.60979">
        <ele>1380.59</ele>
        <time>2018-08-16T11:50:00Z</time>
      </trkpt>
      <trkpt lat="44.53782" lon="5.60995">
        <ele>1383.47</ele>
        <time>2018-08-16T11:50:17Z</time>
      </trkpt>
      <trkpt lat="44.53779" lon="5.61002">
        <ele>1382.99</ele>
        <time>2018-08-16T11:50:23Z</time>
      </trkpt>
      <trkpt lat="44.53775" lon="5.61009">
        <ele>1383.47</ele>
        <time>2018-08-16T11:50:29Z</time>
      </trkpt>
      <trkpt lat="44.53772" lon="5.61022">
        <ele>1384.44</ele>
        <time>2018-08-16T11:50:39Z</time>
      </trkpt>
      <trkpt lat="44.53771" lon="5.61024">
        <ele>1384.92</ele>
        <time>2018-08-16T11:50:41Z</time>
      </trkpt>
      <trkpt lat="44.53763" lon="5.6104">
        <ele>1385.88</ele>
        <time>2018-08-16T11:50:56Z</time>
      </trkpt>
      <trkpt lat="44.53755" lon="5.61055">
        <ele>1387.32</ele>
        <time>2018-08-16T11:51:11Z</time>
      </trkpt>
      <trkpt lat="44.53746" lon="5.61073">
        <ele>1388.76</ele>
        <time>2018-08-16T11:51:26Z</time>
      </trkpt>
      <trkpt lat="44.53739" lon="5.61089">
        <ele>1390.2</ele>
        <time>2018-08-16T11:51:41Z</time>
      </trkpt>
      <trkpt lat="44.53733" lon="5.61101">
        <ele>1391.17</ele>
        <time>2018-08-16T11:51:53Z</time>
      </trkpt>
      <trkpt lat="44.53726" lon="5.61121">
        <ele>1392.61</ele>
        <time>2018-08-16T11:52:08Z</time>
      </trkpt>
      <trkpt lat="44.53719" lon="5.61139">
        <ele>1394.05</ele>
        <time>2018-08-16T11:52:24Z</time>
      </trkpt>
      <trkpt lat="44.53711" lon="5.61155">
        <ele>1395.49</ele>
        <time>2018-08-16T11:52:39Z</time>
      </trkpt>
      <trkpt lat="44.53707" lon="5.61164">
        <ele>1396.45</ele>
        <time>2018-08-16T11:52:46Z</time>
      </trkpt>
      <trkpt lat="44.53701" lon="5.61181">
        <ele>1397.41</ele>
        <time>2018-08-16T11:53:01Z</time>
      </trkpt>
      <trkpt lat="44.53694" lon="5.61196">
        <ele>1398.37</ele>
        <time>2018-08-16T11:53:14Z</time>
      </trkpt>
      <trkpt lat="44.53688" lon="5.61213">
        <ele>1399.82</ele>
        <time>2018-08-16T11:53:29Z</time>
      </trkpt>
      <trkpt lat="44.53679" lon="5.61226">
        <ele>1400.78</ele>
        <time>2018-08-16T11:53:44Z</time>
      </trkpt>
      <trkpt lat="44.53676" lon="5.61233">
        <ele>1401.74</ele>
        <time>2018-08-16T11:53:57Z</time>
      </trkpt>
      <trkpt lat="44.53676" lon="5.61232">
        <ele>1401.26</ele>
        <time>2018-08-16T11:54:09Z</time>
      </trkpt>
      <trkpt lat="44.53676" lon="5.6123">
        <ele>1400.78</ele>
        <time>2018-08-16T11:54:31Z</time>
      </trkpt>
      <trkpt lat="44.53679" lon="5.61229">
        <ele>1401.26</ele>
        <time>2018-08-16T11:55:03Z</time>
      </trkpt>
      <trkpt lat="44.53681" lon="5.61231">
        <ele>1402.22</ele>
        <time>2018-08-16T11:55:22Z</time>
      </trkpt>
      <trkpt lat="44.53677" lon="5.61235">
        <ele>1402.7</ele>
        <time>2018-08-16T11:55:35Z</time>
      </trkpt>
      <trkpt lat="44.5367" lon="5.61248">
        <ele>1404.14</ele>
        <time>2018-08-16T11:55:48Z</time>
      </trkpt>
      <trkpt lat="44.53661" lon="5.61265">
        <ele>1405.1</ele>
        <time>2018-08-16T11:56:03Z</time>
      </trkpt>
      <trkpt lat="44.5366" lon="5.61269">
        <ele>1405.58</ele>
        <time>2018-08-16T11:56:06Z</time>
      </trkpt>
      <trkpt lat="44.53656" lon="5.61287">
        <ele>1407.03</ele>
        <time>2018-08-16T11:56:20Z</time>
      </trkpt>
      <trkpt lat="44.53656" lon="5.61288">
        <ele>1407.03</ele>
        <time>2018-08-16T11:56:21Z</time>
      </trkpt>
      <trkpt lat="44.53659" lon="5.61297">
        <ele>1407.03</ele>
        <time>2018-08-16T11:56:28Z</time>
      </trkpt>
      <trkpt lat="44.5367" lon="5.61311">
        <ele>1407.51</ele>
        <time>2018-08-16T11:56:43Z</time>
      </trkpt>
      <trkpt lat="44.53679" lon="5.61324">
        <ele>1407.99</ele>
        <time>2018-08-16T11:56:58Z</time>
      </trkpt>
      <trkpt lat="44.53686" lon="5.61333">
        <ele>1408.95</ele>
        <time>2018-08-16T11:57:08Z</time>
      </trkpt>
      <trkpt lat="44.53697" lon="5.61347">
        <ele>1410.39</ele>
        <time>2018-08-16T11:57:23Z</time>
      </trkpt>
      <trkpt lat="44.53705" lon="5.6136">
        <ele>1411.35</ele>
        <time>2018-08-16T11:57:36Z</time>
      </trkpt>
      <trkpt lat="44.53713" lon="5.61371">
        <ele>1412.79</ele>
        <time>2018-08-16T11:57:49Z</time>
      </trkpt>
      <trkpt lat="44.5372" lon="5.61385">
        <ele>1414.24</ele>
        <time>2018-08-16T11:58:04Z</time>
      </trkpt>
      <trkpt lat="44.53728" lon="5.61398">
        <ele>1415.2</ele>
        <time>2018-08-16T11:58:17Z</time>
      </trkpt>
      <trkpt lat="44.53738" lon="5.61408">
        <ele>1415.68</ele>
        <time>2018-08-16T11:58:32Z</time>
      </trkpt>
      <trkpt lat="44.53749" lon="5.61415">
        <ele>1417.12</ele>
        <time>2018-08-16T11:58:47Z</time>
      </trkpt>
      <trkpt lat="44.5376" lon="5.61422">
        <ele>1419.04</ele>
        <time>2018-08-16T11:59:01Z</time>
      </trkpt>
      <trkpt lat="44.5377" lon="5.61427">
        <ele>1420.49</ele>
        <time>2018-08-16T11:59:14Z</time>
      </trkpt>
      <trkpt lat="44.53783" lon="5.61438">
        <ele>1421.93</ele>
        <time>2018-08-16T11:59:29Z</time>
      </trkpt>
      <trkpt lat="44.53795" lon="5.61446">
        <ele>1422.89</ele>
        <time>2018-08-16T11:59:44Z</time>
      </trkpt>
      <trkpt lat="44.53805" lon="5.61455">
        <ele>1423.85</ele>
        <time>2018-08-16T11:59:59Z</time>
      </trkpt>
      <trkpt lat="44.53817" lon="5.61463">
        <ele>1425.77</ele>
        <time>2018-08-16T12:00:14Z</time>
      </trkpt>
      <trkpt lat="44.53829" lon="5.61474">
        <ele>1427.21</ele>
        <time>2018-08-16T12:00:30Z</time>
      </trkpt>
      <trkpt lat="44.53841" lon="5.61481">
        <ele>1428.18</ele>
        <time>2018-08-16T12:00:45Z</time>
      </trkpt>
      <trkpt lat="44.53855" lon="5.61484">
        <ele>1429.62</ele>
        <time>2018-08-16T12:01:01Z</time>
      </trkpt>
      <trkpt lat="44.53867" lon="5.61486">
        <ele>1431.54</ele>
        <time>2018-08-16T12:01:14Z</time>
      </trkpt>
      <trkpt lat="44.5388" lon="5.61487">
        <ele>1432.5</ele>
        <time>2018-08-16T12:01:29Z</time>
      </trkpt>
      <trkpt lat="44.53893" lon="5.61491">
        <ele>1434.42</ele>
        <time>2018-08-16T12:01:43Z</time>
      </trkpt>
      <trkpt lat="44.53901" lon="5.61507">
        <ele>1434.91</ele>
        <time>2018-08-16T12:01:57Z</time>
      </trkpt>
      <trkpt lat="44.53902" lon="5.61514">
        <ele>1434.91</ele>
        <time>2018-08-16T12:02:11Z</time>
      </trkpt>
      <trkpt lat="44.53901" lon="5.61515">
        <ele>1434.91</ele>
        <time>2018-08-16T12:02:29Z</time>
      </trkpt>
      <trkpt lat="44.53903" lon="5.61515">
        <ele>1435.39</ele>
        <time>2018-08-16T12:02:54Z</time>
      </trkpt>
      <trkpt lat="44.53906" lon="5.61516">
        <ele>1435.39</ele>
        <time>2018-08-16T12:03:11Z</time>
      </trkpt>
      <trkpt lat="44.53908" lon="5.61516">
        <ele>1435.39</ele>
        <time>2018-08-16T12:03:35Z</time>
      </trkpt>
      <trkpt lat="44.53908" lon="5.61516">
        <ele>1435.39</ele>
        <time>2018-08-16T12:04:02Z</time>
      </trkpt>
      <trkpt lat="44.53907" lon="5.61517">
        <ele>1435.39</ele>
        <time>2018-08-16T12:04:24Z</time>
      </trkpt>
      <trkpt lat="44.53904" lon="5.61514">
        <ele>1435.39</ele>
        <time>2018-08-16T12:04:43Z</time>
      </trkpt>
      <trkpt lat="44.53904" lon="5.61514">
        <ele>1435.87</ele>
        <time>2018-08-16T12:05:05Z</time>
      </trkpt>
      <trkpt lat="44.53908" lon="5.61525">
        <ele>1435.39</ele>
        <time>2018-08-16T12:05:18Z</time>
      </trkpt>
      <trkpt lat="44.53911" lon="5.61534">
        <ele>1434.91</ele>
        <time>2018-08-16T12:05:26Z</time>
      </trkpt>
      <trkpt lat="44.53918" lon="5.61553">
        <ele>1434.42</ele>
        <time>2018-08-16T12:05:42Z</time>
      </trkpt>
      <trkpt lat="44.53926" lon="5.61571">
        <ele>1433.46</ele>
        <time>2018-08-16T12:05:56Z</time>
      </trkpt>
      <trkpt lat="44.53928" lon="5.61575">
        <ele>1432.98</ele>
        <time>2018-08-16T12:05:59Z</time>
      </trkpt>
      <trkpt lat="44.53934" lon="5.61584">
        <ele>1432.02</ele>
        <time>2018-08-16T12:06:08Z</time>
      </trkpt>
      <trkpt lat="44.5394" lon="5.61598">
        <ele>1430.58</ele>
        <time>2018-08-16T12:06:22Z</time>
      </trkpt>
      <trkpt lat="44.53953" lon="5.61614">
        <ele>1430.1</ele>
        <time>2018-08-16T12:06:38Z</time>
      </trkpt>
      <trkpt lat="44.53954" lon="5.6162">
        <ele>1429.62</ele>
        <time>2018-08-16T12:06:41Z</time>
      </trkpt>
      <trkpt lat="44.53959" lon="5.61643">
        <ele>1428.66</ele>
        <time>2018-08-16T12:06:57Z</time>
      </trkpt>
      <trkpt lat="44.53969" lon="5.6166">
        <ele>1428.18</ele>
        <time>2018-08-16T12:07:12Z</time>
      </trkpt>
      <trkpt lat="44.53984" lon="5.61667">
        <ele>1427.7</ele>
        <time>2018-08-16T12:07:26Z</time>
      </trkpt>
      <trkpt lat="44.53995" lon="5.61675">
        <ele>1426.73</ele>
        <time>2018-08-16T12:07:40Z</time>
      </trkpt>
      <trkpt lat="44.54009" lon="5.61685">
        <ele>1425.77</ele>
        <time>2018-08-16T12:07:54Z</time>
      </trkpt>
      <trkpt lat="44.54025" lon="5.61693">
        <ele>1424.81</ele>
        <time>2018-08-16T12:08:10Z</time>
      </trkpt>
      <trkpt lat="44.54042" lon="5.61698">
        <ele>1424.33</ele>
        <time>2018-08-16T12:08:25Z</time>
      </trkpt>
      <trkpt lat="44.54058" lon="5.61702">
        <ele>1423.37</ele>
        <time>2018-08-16T12:08:41Z</time>
      </trkpt>
      <trkpt lat="44.54073" lon="5.617">
        <ele>1423.37</ele>
        <time>2018-08-16T12:08:54Z</time>
      </trkpt>
      <trkpt lat="44.54075" lon="5.61699">
        <ele>1422.89</ele>
        <time>2018-08-16T12:08:56Z</time>
      </trkpt>
      <trkpt lat="44.54079" lon="5.61698">
        <ele>1423.37</ele>
        <time>2018-08-16T12:08:59Z</time>
      </trkpt>
      <trkpt lat="44.54095" lon="5.61693">
        <ele>1421.93</ele>
        <time>2018-08-16T12:09:17Z</time>
      </trkpt>
      <trkpt lat="44.54102" lon="5.61705">
        <ele>1420</ele>
        <time>2018-08-16T12:09:30Z</time>
      </trkpt>
      <trkpt lat="44.54102" lon="5.61711">
        <ele>1419.04</ele>
        <time>2018-08-16T12:09:47Z</time>
      </trkpt>
      <trkpt lat="44.54105" lon="5.61721">
        <ele>1418.08</ele>
        <time>2018-08-16T12:09:59Z</time>
      </trkpt>
      <trkpt lat="44.54108" lon="5.61736">
        <ele>1415.2</ele>
        <time>2018-08-16T12:10:15Z</time>
      </trkpt>
      <trkpt lat="44.54111" lon="5.6175">
        <ele>1412.79</ele>
        <time>2018-08-16T12:10:30Z</time>
      </trkpt>
      <trkpt lat="44.54115" lon="5.61759">
        <ele>1410.87</ele>
        <time>2018-08-16T12:10:43Z</time>
      </trkpt>
      <trkpt lat="44.54121" lon="5.61764">
        <ele>1409.91</ele>
        <time>2018-08-16T12:10:58Z</time>
      </trkpt>
      <trkpt lat="44.54124" lon="5.61774">
        <ele>1408.95</ele>
        <time>2018-08-16T12:11:11Z</time>
      </trkpt>
      <trkpt lat="44.54121" lon="5.61776">
        <ele>1408.47</ele>
        <time>2018-08-16T12:11:23Z</time>
      </trkpt>
      <trkpt lat="44.54122" lon="5.61777">
        <ele>1408.47</ele>
        <time>2018-08-16T12:11:30Z</time>
      </trkpt>
      <trkpt lat="44.54122" lon="5.6178">
        <ele>1407.99</ele>
        <time>2018-08-16T12:11:44Z</time>
      </trkpt>
      <trkpt lat="44.54121" lon="5.61784">
        <ele>1407.99</ele>
        <time>2018-08-16T12:12:04Z</time>
      </trkpt>
      <trkpt lat="44.54121" lon="5.61783">
        <ele>1407.99</ele>
        <time>2018-08-16T12:12:21Z</time>
      </trkpt>
      <trkpt lat="44.54119" lon="5.61781">
        <ele>1408.47</ele>
        <time>2018-08-16T12:12:40Z</time>
      </trkpt>
      <trkpt lat="44.54122" lon="5.61782">
        <ele>1407.99</ele>
        <time>2018-08-16T12:13:00Z</time>
      </trkpt>
      <trkpt lat="44.54124" lon="5.61783">
        <ele>1407.99</ele>
        <time>2018-08-16T12:13:13Z</time>
      </trkpt>
      <trkpt lat="44.54124" lon="5.61788">
        <ele>1407.99</ele>
        <time>2018-08-16T12:13:21Z</time>
      </trkpt>
      <trkpt lat="44.54124" lon="5.61793">
        <ele>1407.51</ele>
        <time>2018-08-16T12:13:24Z</time>
      </trkpt>
      <trkpt lat="44.54124" lon="5.61799">
        <ele>1407.51</ele>
        <time>2018-08-16T12:13:28Z</time>
      </trkpt>
      <trkpt lat="44.54125" lon="5.61805">
        <ele>1407.99</ele>
        <time>2018-08-16T12:13:33Z</time>
      </trkpt>
      <trkpt lat="44.54124" lon="5.6181">
        <ele>1408.47</ele>
        <time>2018-08-16T12:13:47Z</time>
      </trkpt>
      <trkpt lat="44.54125" lon="5.61829">
        <ele>1407.51</ele>
        <time>2018-08-16T12:14:02Z</time>
      </trkpt>
      <trkpt lat="44.54125" lon="5.61835">
        <ele>1407.03</ele>
        <time>2018-08-16T12:14:06Z</time>
      </trkpt>
      <trkpt lat="44.54126" lon="5.61852">
        <ele>1405.58</ele>
        <time>2018-08-16T12:14:18Z</time>
      </trkpt>
      <trkpt lat="44.54126" lon="5.61861">
        <ele>1407.03</ele>
        <time>2018-08-16T12:14:24Z</time>
      </trkpt>
      <trkpt lat="44.54126" lon="5.61864">
        <ele>1406.07</ele>
        <time>2018-08-16T12:14:27Z</time>
      </trkpt>
      <trkpt lat="44.54128" lon="5.61878">
        <ele>1407.03</ele>
        <time>2018-08-16T12:14:40Z</time>
      </trkpt>
      <trkpt lat="44.54127" lon="5.61883">
        <ele>1406.55</ele>
        <time>2018-08-16T12:14:53Z</time>
      </trkpt>
      <trkpt lat="44.54133" lon="5.61896">
        <ele>1405.58</ele>
        <time>2018-08-16T12:15:07Z</time>
      </trkpt>
      <trkpt lat="44.54134" lon="5.61898">
        <ele>1405.58</ele>
        <time>2018-08-16T12:15:08Z</time>
      </trkpt>
      <trkpt lat="44.54133" lon="5.61912">
        <ele>1404.62</ele>
        <time>2018-08-16T12:15:18Z</time>
      </trkpt>
      <trkpt lat="44.54131" lon="5.61914">
        <ele>1404.62</ele>
        <time>2018-08-16T12:15:20Z</time>
      </trkpt>
      <trkpt lat="44.5413" lon="5.61918">
        <ele>1404.62</ele>
        <time>2018-08-16T12:15:23Z</time>
      </trkpt>
      <trkpt lat="44.54127" lon="5.61935">
        <ele>1405.58</ele>
        <time>2018-08-16T12:15:35Z</time>
      </trkpt>
      <trkpt lat="44.5413" lon="5.61962">
        <ele>1404.14</ele>
        <time>2018-08-16T12:15:53Z</time>
      </trkpt>
      <trkpt lat="44.54132" lon="5.61973">
        <ele>1403.66</ele>
        <time>2018-08-16T12:16:01Z</time>
      </trkpt>
      <trkpt lat="44.54137" lon="5.61982">
        <ele>1402.7</ele>
        <time>2018-08-16T12:16:08Z</time>
      </trkpt>
      <trkpt lat="44.54143" lon="5.62001">
        <ele>1401.74</ele>
        <time>2018-08-16T12:16:23Z</time>
      </trkpt>
      <trkpt lat="44.54145" lon="5.62008">
        <ele>1400.78</ele>
        <time>2018-08-16T12:16:28Z</time>
      </trkpt>
      <trkpt lat="44.54149" lon="5.62019">
        <ele>1399.34</ele>
        <time>2018-08-16T12:16:35Z</time>
      </trkpt>
      <trkpt lat="44.54156" lon="5.62037">
        <ele>1397.41</ele>
        <time>2018-08-16T12:16:48Z</time>
      </trkpt>
      <trkpt lat="44.54161" lon="5.62048">
        <ele>1395.97</ele>
        <time>2018-08-16T12:16:56Z</time>
      </trkpt>
      <trkpt lat="44.5417" lon="5.62065">
        <ele>1392.61</ele>
        <time>2018-08-16T12:17:09Z</time>
      </trkpt>
      <trkpt lat="44.54176" lon="5.62072">
        <ele>1390.68</ele>
        <time>2018-08-16T12:17:21Z</time>
      </trkpt>
      <trkpt lat="44.54186" lon="5.6208">
        <ele>1388.28</ele>
        <time>2018-08-16T12:17:32Z</time>
      </trkpt>
      <trkpt lat="44.54194" lon="5.62092">
        <ele>1384.92</ele>
        <time>2018-08-16T12:17:45Z</time>
      </trkpt>
      <trkpt lat="44.54203" lon="5.62105">
        <ele>1382.03</ele>
        <time>2018-08-16T12:17:56Z</time>
      </trkpt>
      <trkpt lat="44.54205" lon="5.62116">
        <ele>1380.11</ele>
        <time>2018-08-16T12:18:09Z</time>
      </trkpt>
      <trkpt lat="44.54208" lon="5.62122">
        <ele>1379.15</ele>
        <time>2018-08-16T12:18:14Z</time>
      </trkpt>
      <trkpt lat="44.54216" lon="5.62126">
        <ele>1377.71</ele>
        <time>2018-08-16T12:18:27Z</time>
      </trkpt>
      <trkpt lat="44.54216" lon="5.62131">
        <ele>1376.75</ele>
        <time>2018-08-16T12:18:42Z</time>
      </trkpt>
      <trkpt lat="44.54217" lon="5.6213">
        <ele>1376.26</ele>
        <time>2018-08-16T12:18:55Z</time>
      </trkpt>
      <trkpt lat="44.5422" lon="5.62127">
        <ele>1375.78</ele>
        <time>2018-08-16T12:19:07Z</time>
      </trkpt>
      <trkpt lat="44.54224" lon="5.62124">
        <ele>1375.78</ele>
        <time>2018-08-16T12:19:25Z</time>
      </trkpt>
      <trkpt lat="44.54229" lon="5.62119">
        <ele>1375.3</ele>
        <time>2018-08-16T12:19:40Z</time>
      </trkpt>
      <trkpt lat="44.54233" lon="5.62116">
        <ele>1374.82</ele>
        <time>2018-08-16T12:19:54Z</time>
      </trkpt>
      <trkpt lat="44.54235" lon="5.62117">
        <ele>1373.38</ele>
        <time>2018-08-16T12:20:09Z</time>
      </trkpt>
      <trkpt lat="44.5424" lon="5.62115">
        <ele>1371.46</ele>
        <time>2018-08-16T12:20:24Z</time>
      </trkpt>
      <trkpt lat="44.54242" lon="5.62115">
        <ele>1369.05</ele>
        <time>2018-08-16T12:20:40Z</time>
      </trkpt>
      <trkpt lat="44.54245" lon="5.62113">
        <ele>1368.09</ele>
        <time>2018-08-16T12:20:55Z</time>
      </trkpt>
      <trkpt lat="44.54246" lon="5.62111">
        <ele>1366.65</ele>
        <time>2018-08-16T12:21:10Z</time>
      </trkpt>
      <trkpt lat="44.54251" lon="5.62109">
        <ele>1364.25</ele>
        <time>2018-08-16T12:21:27Z</time>
      </trkpt>
      <trkpt lat="44.54258" lon="5.62114">
        <ele>1361.36</ele>
        <time>2018-08-16T12:21:39Z</time>
      </trkpt>
      <trkpt lat="44.54267" lon="5.62122">
        <ele>1358</ele>
        <time>2018-08-16T12:21:51Z</time>
      </trkpt>
      <trkpt lat="44.54273" lon="5.62131">
        <ele>1354.63</ele>
        <time>2018-08-16T12:22:03Z</time>
      </trkpt>
      <trkpt lat="44.54276" lon="5.62136">
        <ele>1351.75</ele>
        <time>2018-08-16T12:22:13Z</time>
      </trkpt>
      <trkpt lat="44.54276" lon="5.62138">
        <ele>1351.75</ele>
        <time>2018-08-16T12:22:31Z</time>
      </trkpt>
      <trkpt lat="44.54277" lon="5.62151">
        <ele>1348.39</ele>
        <time>2018-08-16T12:22:43Z</time>
      </trkpt>
      <trkpt lat="44.54279" lon="5.62159">
        <ele>1345.98</ele>
        <time>2018-08-16T12:22:58Z</time>
      </trkpt>
      <trkpt lat="44.54273" lon="5.62171">
        <ele>1344.06</ele>
        <time>2018-08-16T12:23:13Z</time>
      </trkpt>
      <trkpt lat="44.5427" lon="5.62182">
        <ele>1340.7</ele>
        <time>2018-08-16T12:23:26Z</time>
      </trkpt>
      <trkpt lat="44.54267" lon="5.62191">
        <ele>1337.33</ele>
        <time>2018-08-16T12:23:40Z</time>
      </trkpt>
      <trkpt lat="44.54265" lon="5.62202">
        <ele>1334.45</ele>
        <time>2018-08-16T12:23:54Z</time>
      </trkpt>
      <trkpt lat="44.54263" lon="5.62207">
        <ele>1332.52</ele>
        <time>2018-08-16T12:24:08Z</time>
      </trkpt>
      <trkpt lat="44.5426" lon="5.62215">
        <ele>1331.08</ele>
        <time>2018-08-16T12:24:22Z</time>
      </trkpt>
      <trkpt lat="44.54264" lon="5.62227">
        <ele>1327.72</ele>
        <time>2018-08-16T12:24:34Z</time>
      </trkpt>
      <trkpt lat="44.5427" lon="5.62235">
        <ele>1324.83</ele>
        <time>2018-08-16T12:24:47Z</time>
      </trkpt>
      <trkpt lat="44.54277" lon="5.62247">
        <ele>1321.95</ele>
        <time>2018-08-16T12:25:03Z</time>
      </trkpt>
      <trkpt lat="44.54279" lon="5.62251">
        <ele>1320.51</ele>
        <time>2018-08-16T12:25:07Z</time>
      </trkpt>
      <trkpt lat="44.54285" lon="5.62259">
        <ele>1317.62</ele>
        <time>2018-08-16T12:25:21Z</time>
      </trkpt>
      <trkpt lat="44.54286" lon="5.62271">
        <ele>1315.22</ele>
        <time>2018-08-16T12:25:34Z</time>
      </trkpt>
      <trkpt lat="44.54287" lon="5.62276">
        <ele>1313.78</ele>
        <time>2018-08-16T12:25:40Z</time>
      </trkpt>
      <trkpt lat="44.54296" lon="5.62283">
        <ele>1310.9</ele>
        <time>2018-08-16T12:25:54Z</time>
      </trkpt>
      <trkpt lat="44.54301" lon="5.62289">
        <ele>1308.97</ele>
        <time>2018-08-16T12:26:07Z</time>
      </trkpt>
      <trkpt lat="44.54302" lon="5.62301">
        <ele>1306.57</ele>
        <time>2018-08-16T12:26:18Z</time>
      </trkpt>
      <trkpt lat="44.54303" lon="5.62303">
        <ele>1306.57</ele>
        <time>2018-08-16T12:26:20Z</time>
      </trkpt>
      <trkpt lat="44.54307" lon="5.62306">
        <ele>1304.17</ele>
        <time>2018-08-16T12:26:33Z</time>
      </trkpt>
      <trkpt lat="44.54312" lon="5.6231">
        <ele>1301.76</ele>
        <time>2018-08-16T12:26:50Z</time>
      </trkpt>
      <trkpt lat="44.54315" lon="5.62312">
        <ele>1300.8</ele>
        <time>2018-08-16T12:26:55Z</time>
      </trkpt>
      <trkpt lat="44.54323" lon="5.62315">
        <ele>1298.88</ele>
        <time>2018-08-16T12:27:10Z</time>
      </trkpt>
      <trkpt lat="44.54324" lon="5.62318">
        <ele>1298.4</ele>
        <time>2018-08-16T12:27:24Z</time>
      </trkpt>
      <trkpt lat="44.54328" lon="5.6232">
        <ele>1297.92</ele>
        <time>2018-08-16T12:27:38Z</time>
      </trkpt>
      <trkpt lat="44.54328" lon="5.62321">
        <ele>1297.92</ele>
        <time>2018-08-16T12:27:59Z</time>
      </trkpt>
      <trkpt lat="44.54329" lon="5.6232">
        <ele>1297.92</ele>
        <time>2018-08-16T12:28:19Z</time>
      </trkpt>
      <trkpt lat="44.5433" lon="5.62322">
        <ele>1297.92</ele>
        <time>2018-08-16T12:28:36Z</time>
      </trkpt>
      <trkpt lat="44.54334" lon="5.62322">
        <ele>1296.96</ele>
        <time>2018-08-16T12:28:55Z</time>
      </trkpt>
      <trkpt lat="44.54332" lon="5.62322">
        <ele>1297.44</ele>
        <time>2018-08-16T12:29:07Z</time>
      </trkpt>
      <trkpt lat="44.54331" lon="5.62323">
        <ele>1297.44</ele>
        <time>2018-08-16T12:29:25Z</time>
      </trkpt>
      <trkpt lat="44.54332" lon="5.62321">
        <ele>1297.44</ele>
        <time>2018-08-16T12:29:51Z</time>
      </trkpt>
      <trkpt lat="44.54332" lon="5.62322">
        <ele>1296.96</ele>
        <time>2018-08-16T12:30:13Z</time>
      </trkpt>
      <trkpt lat="44.54331" lon="5.62323">
        <ele>1298.4</ele>
        <time>2018-08-16T12:30:32Z</time>
      </trkpt>
      <trkpt lat="44.54331" lon="5.62322">
        <ele>1297.44</ele>
        <time>2018-08-16T12:30:46Z</time>
      </trkpt>
      <trkpt lat="44.5433" lon="5.62323">
        <ele>1296.96</ele>
        <time>2018-08-16T12:31:04Z</time>
      </trkpt>
      <trkpt lat="44.54331" lon="5.62323">
        <ele>1296.96</ele>
        <time>2018-08-16T12:31:22Z</time>
      </trkpt>
      <trkpt lat="44.54332" lon="5.62335">
        <ele>1296.48</ele>
        <time>2018-08-16T12:31:36Z</time>
      </trkpt>
      <trkpt lat="44.54334" lon="5.62336">
        <ele>1295.03</ele>
        <time>2018-08-16T12:31:49Z</time>
      </trkpt>
      <trkpt lat="44.54336" lon="5.62334">
        <ele>1295.51</ele>
        <time>2018-08-16T12:32:07Z</time>
      </trkpt>
      <trkpt lat="44.54338" lon="5.62341">
        <ele>1295.99</ele>
        <time>2018-08-16T12:32:26Z</time>
      </trkpt>
      <trkpt lat="44.54339" lon="5.62341">
        <ele>1295.51</ele>
        <time>2018-08-16T12:32:47Z</time>
      </trkpt>
      <trkpt lat="44.54334" lon="5.62344">
        <ele>1295.03</ele>
        <time>2018-08-16T12:33:08Z</time>
      </trkpt>
      <trkpt lat="44.54335" lon="5.62343">
        <ele>1294.55</ele>
        <time>2018-08-16T12:33:20Z</time>
      </trkpt>
      <trkpt lat="44.54334" lon="5.62342">
        <ele>1295.03</ele>
        <time>2018-08-16T12:33:32Z</time>
      </trkpt>
      <trkpt lat="44.54334" lon="5.62339">
        <ele>1295.03</ele>
        <time>2018-08-16T12:33:54Z</time>
      </trkpt>
      <trkpt lat="44.54332" lon="5.62334">
        <ele>1295.03</ele>
        <time>2018-08-16T12:34:12Z</time>
      </trkpt>
      <trkpt lat="44.54333" lon="5.62338">
        <ele>1295.51</ele>
        <time>2018-08-16T12:34:23Z</time>
      </trkpt>
      <trkpt lat="44.54335" lon="5.62339">
        <ele>1295.51</ele>
        <time>2018-08-16T12:34:41Z</time>
      </trkpt>
      <trkpt lat="44.54332" lon="5.62339">
        <ele>1295.51</ele>
        <time>2018-08-16T12:35:02Z</time>
      </trkpt>
      <trkpt lat="44.54334" lon="5.62343">
        <ele>1295.03</ele>
        <time>2018-08-16T12:35:16Z</time>
      </trkpt>
      <trkpt lat="44.54331" lon="5.62352">
        <ele>1294.55</ele>
        <time>2018-08-16T12:35:30Z</time>
      </trkpt>
      <trkpt lat="44.54328" lon="5.62363">
        <ele>1294.07</ele>
        <time>2018-08-16T12:35:50Z</time>
      </trkpt>
      <trkpt lat="44.5432" lon="5.6238">
        <ele>1292.63</ele>
        <time>2018-08-16T12:36:04Z</time>
      </trkpt>
      <trkpt lat="44.54311" lon="5.62393">
        <ele>1291.67</ele>
        <time>2018-08-16T12:36:17Z</time>
      </trkpt>
      <trkpt lat="44.54311" lon="5.62394">
        <ele>1291.67</ele>
        <time>2018-08-16T12:36:18Z</time>
      </trkpt>
      <trkpt lat="44.54307" lon="5.62399">
        <ele>1291.67</ele>
        <time>2018-08-16T12:36:23Z</time>
      </trkpt>
      <trkpt lat="44.54295" lon="5.62421">
        <ele>1290.23</ele>
        <time>2018-08-16T12:36:40Z</time>
      </trkpt>
      <trkpt lat="44.54293" lon="5.62427">
        <ele>1289.75</ele>
        <time>2018-08-16T12:36:45Z</time>
      </trkpt>
      <trkpt lat="44.54286" lon="5.6244">
        <ele>1288.3</ele>
        <time>2018-08-16T12:36:57Z</time>
      </trkpt>
      <trkpt lat="44.54284" lon="5.62445">
        <ele>1287.82</ele>
        <time>2018-08-16T12:37:01Z</time>
      </trkpt>
      <trkpt lat="44.54273" lon="5.62462">
        <ele>1286.86</ele>
        <time>2018-08-16T12:37:17Z</time>
      </trkpt>
      <trkpt lat="44.54264" lon="5.62474">
        <ele>1285.9</ele>
        <time>2018-08-16T12:37:32Z</time>
      </trkpt>
      <trkpt lat="44.54263" lon="5.62475">
        <ele>1285.9</ele>
        <time>2018-08-16T12:37:33Z</time>
      </trkpt>
      <trkpt lat="44.5426" lon="5.62479">
        <ele>1285.9</ele>
        <time>2018-08-16T12:37:38Z</time>
      </trkpt>
      <trkpt lat="44.54249" lon="5.62496">
        <ele>1284.46</ele>
        <time>2018-08-16T12:37:53Z</time>
      </trkpt>
      <trkpt lat="44.54246" lon="5.62508">
        <ele>1283.5</ele>
        <time>2018-08-16T12:38:03Z</time>
      </trkpt>
      <trkpt lat="44.54244" lon="5.62527">
        <ele>1282.54</ele>
        <time>2018-08-16T12:38:17Z</time>
      </trkpt>
      <trkpt lat="44.54244" lon="5.62533">
        <ele>1282.06</ele>
        <time>2018-08-16T12:38:21Z</time>
      </trkpt>
      <trkpt lat="44.54243" lon="5.62548">
        <ele>1280.61</ele>
        <time>2018-08-16T12:38:33Z</time>
      </trkpt>
      <trkpt lat="44.54243" lon="5.62555">
        <ele>1280.61</ele>
        <time>2018-08-16T12:38:38Z</time>
      </trkpt>
      <trkpt lat="44.54242" lon="5.62565">
        <ele>1280.13</ele>
        <time>2018-08-16T12:38:44Z</time>
      </trkpt>
      <trkpt lat="44.54243" lon="5.6257">
        <ele>1279.65</ele>
        <time>2018-08-16T12:38:47Z</time>
      </trkpt>
      <trkpt lat="44.54246" lon="5.62594">
        <ele>1278.69</ele>
        <time>2018-08-16T12:39:03Z</time>
      </trkpt>
      <trkpt lat="44.54247" lon="5.62611">
        <ele>1277.73</ele>
        <time>2018-08-16T12:39:16Z</time>
      </trkpt>
      <trkpt lat="44.54246" lon="5.62631">
        <ele>1276.29</ele>
        <time>2018-08-16T12:39:31Z</time>
      </trkpt>
      <trkpt lat="44.54245" lon="5.62635">
        <ele>1275.81</ele>
        <time>2018-08-16T12:39:34Z</time>
      </trkpt>
      <trkpt lat="44.54236" lon="5.62665">
        <ele>1274.85</ele>
        <time>2018-08-16T12:39:53Z</time>
      </trkpt>
      <trkpt lat="44.54236" lon="5.62669">
        <ele>1274.36</ele>
        <time>2018-08-16T12:39:55Z</time>
      </trkpt>
      <trkpt lat="44.54233" lon="5.62673">
        <ele>1273.88</ele>
        <time>2018-08-16T12:39:59Z</time>
      </trkpt>
      <trkpt lat="44.54227" lon="5.62691">
        <ele>1273.4</ele>
        <time>2018-08-16T12:40:12Z</time>
      </trkpt>
      <trkpt lat="44.54225" lon="5.62701">
        <ele>1273.4</ele>
        <time>2018-08-16T12:40:19Z</time>
      </trkpt>
      <trkpt lat="44.54216" lon="5.62722">
        <ele>1273.88</ele>
        <time>2018-08-16T12:40:35Z</time>
      </trkpt>
      <trkpt lat="44.54208" lon="5.62742">
        <ele>1273.4</ele>
        <time>2018-08-16T12:40:50Z</time>
      </trkpt>
      <trkpt lat="44.542" lon="5.62764">
        <ele>1272.92</ele>
        <time>2018-08-16T12:41:07Z</time>
      </trkpt>
      <trkpt lat="44.54196" lon="5.62786">
        <ele>1271.96</ele>
        <time>2018-08-16T12:41:23Z</time>
      </trkpt>
      <trkpt lat="44.54197" lon="5.62808">
        <ele>1270.52</ele>
        <time>2018-08-16T12:41:39Z</time>
      </trkpt>
      <trkpt lat="44.54191" lon="5.62837">
        <ele>1269.56</ele>
        <time>2018-08-16T12:41:58Z</time>
      </trkpt>
      <trkpt lat="44.54183" lon="5.62859">
        <ele>1268.6</ele>
        <time>2018-08-16T12:42:14Z</time>
      </trkpt>
      <trkpt lat="44.54178" lon="5.62878">
        <ele>1267.64</ele>
        <time>2018-08-16T12:42:28Z</time>
      </trkpt>
      <trkpt lat="44.54176" lon="5.62902">
        <ele>1266.67</ele>
        <time>2018-08-16T12:42:44Z</time>
      </trkpt>
      <trkpt lat="44.54182" lon="5.62925">
        <ele>1266.19</ele>
        <time>2018-08-16T12:43:01Z</time>
      </trkpt>
      <trkpt lat="44.54177" lon="5.62945">
        <ele>1265.23</ele>
        <time>2018-08-16T12:43:13Z</time>
      </trkpt>
      <trkpt lat="44.54166" lon="5.62963">
        <ele>1265.71</ele>
        <time>2018-08-16T12:43:30Z</time>
      </trkpt>
      <trkpt lat="44.54164" lon="5.6297">
        <ele>1266.19</ele>
        <time>2018-08-16T12:43:35Z</time>
      </trkpt>
      <trkpt lat="44.54164" lon="5.62977">
        <ele>1265.71</ele>
        <time>2018-08-16T12:43:40Z</time>
      </trkpt>
      <trkpt lat="44.54173" lon="5.63005">
        <ele>1265.71</ele>
        <time>2018-08-16T12:43:58Z</time>
      </trkpt>
      <trkpt lat="44.54183" lon="5.63023">
        <ele>1264.75</ele>
        <time>2018-08-16T12:44:12Z</time>
      </trkpt>
      <trkpt lat="44.54192" lon="5.63042">
        <ele>1264.75</ele>
        <time>2018-08-16T12:44:27Z</time>
      </trkpt>
      <trkpt lat="44.54192" lon="5.63065">
        <ele>1264.27</ele>
        <time>2018-08-16T12:44:44Z</time>
      </trkpt>
      <trkpt lat="44.54185" lon="5.63076">
        <ele>1263.79</ele>
        <time>2018-08-16T12:44:57Z</time>
      </trkpt>
      <trkpt lat="44.54184" lon="5.63079">
        <ele>1263.79</ele>
        <time>2018-08-16T12:45:00Z</time>
      </trkpt>
      <trkpt lat="44.54181" lon="5.63084">
        <ele>1263.79</ele>
        <time>2018-08-16T12:45:05Z</time>
      </trkpt>
      <trkpt lat="44.54179" lon="5.63089">
        <ele>1263.79</ele>
        <time>2018-08-16T12:45:09Z</time>
      </trkpt>
      <trkpt lat="44.54175" lon="5.63095">
        <ele>1264.27</ele>
        <time>2018-08-16T12:45:14Z</time>
      </trkpt>
      <trkpt lat="44.54168" lon="5.63105">
        <ele>1264.27</ele>
        <time>2018-08-16T12:45:24Z</time>
      </trkpt>
      <trkpt lat="44.5416" lon="5.63123">
        <ele>1263.79</ele>
        <time>2018-08-16T12:45:39Z</time>
      </trkpt>
      <trkpt lat="44.54162" lon="5.63146">
        <ele>1264.27</ele>
        <time>2018-08-16T12:45:55Z</time>
      </trkpt>
      <trkpt lat="44.54163" lon="5.63148">
        <ele>1264.27</ele>
        <time>2018-08-16T12:45:56Z</time>
      </trkpt>
      <trkpt lat="44.54163" lon="5.63159">
        <ele>1263.79</ele>
        <time>2018-08-16T12:46:03Z</time>
      </trkpt>
      <trkpt lat="44.54156" lon="5.63184">
        <ele>1263.31</ele>
        <time>2018-08-16T12:46:19Z</time>
      </trkpt>
      <trkpt lat="44.54145" lon="5.63209">
        <ele>1262.35</ele>
        <time>2018-08-16T12:46:36Z</time>
      </trkpt>
      <trkpt lat="44.54131" lon="5.6323">
        <ele>1261.39</ele>
        <time>2018-08-16T12:46:54Z</time>
      </trkpt>
      <trkpt lat="44.54118" lon="5.63251">
        <ele>1260.43</ele>
        <time>2018-08-16T12:47:12Z</time>
      </trkpt>
      <trkpt lat="44.54117" lon="5.63252">
        <ele>1259.94</ele>
        <time>2018-08-16T12:47:13Z</time>
      </trkpt>
      <trkpt lat="44.54106" lon="5.63271">
        <ele>1259.46</ele>
        <time>2018-08-16T12:47:27Z</time>
      </trkpt>
      <trkpt lat="44.54095" lon="5.6329">
        <ele>1258.02</ele>
        <time>2018-08-16T12:47:43Z</time>
      </trkpt>
      <trkpt lat="44.54078" lon="5.63304">
        <ele>1257.54</ele>
        <time>2018-08-16T12:48:00Z</time>
      </trkpt>
      <trkpt lat="44.54069" lon="5.63306">
        <ele>1257.06</ele>
        <time>2018-08-16T12:48:09Z</time>
      </trkpt>
      <trkpt lat="44.54047" lon="5.63303">
        <ele>1255.62</ele>
        <time>2018-08-16T12:48:28Z</time>
      </trkpt>
      <trkpt lat="44.54046" lon="5.63303">
        <ele>1255.62</ele>
        <time>2018-08-16T12:48:29Z</time>
      </trkpt>
      <trkpt lat="44.54031" lon="5.63304">
        <ele>1256.58</ele>
        <time>2018-08-16T12:48:42Z</time>
      </trkpt>
      <trkpt lat="44.54019" lon="5.63304">
        <ele>1256.1</ele>
        <time>2018-08-16T12:48:51Z</time>
      </trkpt>
      <trkpt lat="44.54008" lon="5.63316">
        <ele>1256.1</ele>
        <time>2018-08-16T12:49:03Z</time>
      </trkpt>
      <trkpt lat="44.53996" lon="5.63336">
        <ele>1255.14</ele>
        <time>2018-08-16T12:49:17Z</time>
      </trkpt>
      <trkpt lat="44.5399" lon="5.6335">
        <ele>1254.66</ele>
        <time>2018-08-16T12:49:28Z</time>
      </trkpt>
      <trkpt lat="44.53988" lon="5.63377">
        <ele>1254.18</ele>
        <time>2018-08-16T12:49:45Z</time>
      </trkpt>
      <trkpt lat="44.53987" lon="5.63383">
        <ele>1254.18</ele>
        <time>2018-08-16T12:49:49Z</time>
      </trkpt>
      <trkpt lat="44.53987" lon="5.63386">
        <ele>1253.7</ele>
        <time>2018-08-16T12:49:51Z</time>
      </trkpt>
      <trkpt lat="44.53974" lon="5.63401">
        <ele>1253.22</ele>
        <time>2018-08-16T12:50:05Z</time>
      </trkpt>
      <trkpt lat="44.53972" lon="5.63402">
        <ele>1253.22</ele>
        <time>2018-08-16T12:50:07Z</time>
      </trkpt>
      <trkpt lat="44.53968" lon="5.63409">
        <ele>1252.74</ele>
        <time>2018-08-16T12:50:12Z</time>
      </trkpt>
      <trkpt lat="44.53963" lon="5.63418">
        <ele>1252.74</ele>
        <time>2018-08-16T12:50:21Z</time>
      </trkpt>
      <trkpt lat="44.53959" lon="5.63428">
        <ele>1252.74</ele>
        <time>2018-08-16T12:50:28Z</time>
      </trkpt>
      <trkpt lat="44.53955" lon="5.63445">
        <ele>1253.22</ele>
        <time>2018-08-16T12:50:41Z</time>
      </trkpt>
      <trkpt lat="44.53952" lon="5.6345">
        <ele>1252.25</ele>
        <time>2018-08-16T12:50:54Z</time>
      </trkpt>
      <trkpt lat="44.53953" lon="5.63451">
        <ele>1251.77</ele>
        <time>2018-08-16T12:51:11Z</time>
      </trkpt>
      <trkpt lat="44.53949" lon="5.63457">
        <ele>1251.29</ele>
        <time>2018-08-16T12:51:26Z</time>
      </trkpt>
      <trkpt lat="44.53944" lon="5.63459">
        <ele>1250.33</ele>
        <time>2018-08-16T12:51:38Z</time>
      </trkpt>
      <trkpt lat="44.53944" lon="5.63461">
        <ele>1250.33</ele>
        <time>2018-08-16T12:51:52Z</time>
      </trkpt>
      <trkpt lat="44.53942" lon="5.63463">
        <ele>1249.85</ele>
        <time>2018-08-16T12:52:16Z</time>
      </trkpt>
      <trkpt lat="44.53933" lon="5.63472">
        <ele>1248.41</ele>
        <time>2018-08-16T12:52:31Z</time>
      </trkpt>
      <trkpt lat="44.53922" lon="5.63484">
        <ele>1246.49</ele>
        <time>2018-08-16T12:52:47Z</time>
      </trkpt>
      <trkpt lat="44.53913" lon="5.63498">
        <ele>1245.04</ele>
        <time>2018-08-16T12:53:02Z</time>
      </trkpt>
      <trkpt lat="44.53897" lon="5.63514">
        <ele>1243.12</ele>
        <time>2018-08-16T12:53:21Z</time>
      </trkpt>
      <trkpt lat="44.53884" lon="5.63525">
        <ele>1241.68</ele>
        <time>2018-08-16T12:53:35Z</time>
      </trkpt>
      <trkpt lat="44.5387" lon="5.63547">
        <ele>1239.28</ele>
        <time>2018-08-16T12:53:52Z</time>
      </trkpt>
      <trkpt lat="44.53866" lon="5.63564">
        <ele>1237.35</ele>
        <time>2018-08-16T12:54:04Z</time>
      </trkpt>
      <trkpt lat="44.53863" lon="5.63587">
        <ele>1235.43</ele>
        <time>2018-08-16T12:54:20Z</time>
      </trkpt>
      <trkpt lat="44.53848" lon="5.63608">
        <ele>1233.03</ele>
        <time>2018-08-16T12:54:39Z</time>
      </trkpt>
      <trkpt lat="44.53841" lon="5.63612">
        <ele>1232.55</ele>
        <time>2018-08-16T12:54:46Z</time>
      </trkpt>
      <trkpt lat="44.53822" lon="5.63618">
        <ele>1230.62</ele>
        <time>2018-08-16T12:55:04Z</time>
      </trkpt>
      <trkpt lat="44.53814" lon="5.63627">
        <ele>1229.18</ele>
        <time>2018-08-16T12:55:14Z</time>
      </trkpt>
      <trkpt lat="44.53808" lon="5.63652">
        <ele>1227.26</ele>
        <time>2018-08-16T12:55:32Z</time>
      </trkpt>
      <trkpt lat="44.53807" lon="5.63666">
        <ele>1226.3</ele>
        <time>2018-08-16T12:55:42Z</time>
      </trkpt>
      <trkpt lat="44.53802" lon="5.63691">
        <ele>1224.38</ele>
        <time>2018-08-16T12:55:59Z</time>
      </trkpt>
      <trkpt lat="44.538" lon="5.63717">
        <ele>1221.97</ele>
        <time>2018-08-16T12:56:18Z</time>
      </trkpt>
      <trkpt lat="44.5381" lon="5.63742">
        <ele>1219.57</ele>
        <time>2018-08-16T12:56:35Z</time>
      </trkpt>
      <trkpt lat="44.5381" lon="5.6376">
        <ele>1218.13</ele>
        <time>2018-08-16T12:56:49Z</time>
      </trkpt>
      <trkpt lat="44.53811" lon="5.6377">
        <ele>1217.17</ele>
        <time>2018-08-16T12:56:56Z</time>
      </trkpt>
      <trkpt lat="44.53813" lon="5.63776">
        <ele>1216.69</ele>
        <time>2018-08-16T12:57:01Z</time>
      </trkpt>
      <trkpt lat="44.53815" lon="5.63788">
        <ele>1216.21</ele>
        <time>2018-08-16T12:57:09Z</time>
      </trkpt>
      <trkpt lat="44.53818" lon="5.63813">
        <ele>1214.28</ele>
        <time>2018-08-16T12:57:27Z</time>
      </trkpt>
      <trkpt lat="44.53822" lon="5.63841">
        <ele>1211.88</ele>
        <time>2018-08-16T12:57:47Z</time>
      </trkpt>
      <trkpt lat="44.53823" lon="5.63867">
        <ele>1210.44</ele>
        <time>2018-08-16T12:58:04Z</time>
      </trkpt>
      <trkpt lat="44.53828" lon="5.63889">
        <ele>1209.48</ele>
        <time>2018-08-16T12:58:21Z</time>
      </trkpt>
      <trkpt lat="44.53831" lon="5.6389">
        <ele>1209</ele>
        <time>2018-08-16T12:58:35Z</time>
      </trkpt>
      <trkpt lat="44.53835" lon="5.63872">
        <ele>1207.55</ele>
        <time>2018-08-16T12:58:49Z</time>
      </trkpt>
      <trkpt lat="44.53835" lon="5.6387">
        <ele>1207.55</ele>
        <time>2018-08-16T12:58:51Z</time>
      </trkpt>
      <trkpt lat="44.53831" lon="5.63845">
        <ele>1208.03</ele>
        <time>2018-08-16T12:59:07Z</time>
      </trkpt>
      <trkpt lat="44.53831" lon="5.63844">
        <ele>1207.55</ele>
        <time>2018-08-16T12:59:08Z</time>
      </trkpt>
      <trkpt lat="44.5383" lon="5.63815">
        <ele>1207.07</ele>
        <time>2018-08-16T12:59:26Z</time>
      </trkpt>
      <trkpt lat="44.5383" lon="5.6381">
        <ele>1207.07</ele>
        <time>2018-08-16T12:59:29Z</time>
      </trkpt>
      <trkpt lat="44.53831" lon="5.638">
        <ele>1207.07</ele>
        <time>2018-08-16T12:59:36Z</time>
      </trkpt>
      <trkpt lat="44.53832" lon="5.63793">
        <ele>1206.59</ele>
        <time>2018-08-16T12:59:40Z</time>
      </trkpt>
      <trkpt lat="44.53831" lon="5.63788">
        <ele>1206.59</ele>
        <time>2018-08-16T12:59:43Z</time>
      </trkpt>
      <trkpt lat="44.5383" lon="5.63779">
        <ele>1206.59</ele>
        <time>2018-08-16T12:59:49Z</time>
      </trkpt>
      <trkpt lat="44.5383" lon="5.63771">
        <ele>1206.11</ele>
        <time>2018-08-16T12:59:54Z</time>
      </trkpt>
      <trkpt lat="44.5383" lon="5.63765">
        <ele>1205.63</ele>
        <time>2018-08-16T12:59:58Z</time>
      </trkpt>
      <trkpt lat="44.53831" lon="5.63759">
        <ele>1205.15</ele>
        <time>2018-08-16T13:00:02Z</time>
      </trkpt>
      <trkpt lat="44.53832" lon="5.63752">
        <ele>1205.15</ele>
        <time>2018-08-16T13:00:06Z</time>
      </trkpt>
      <trkpt lat="44.53836" lon="5.63737">
        <ele>1204.67</ele>
        <time>2018-08-16T13:00:17Z</time>
      </trkpt>
      <trkpt lat="44.53839" lon="5.63717">
        <ele>1204.67</ele>
        <time>2018-08-16T13:00:30Z</time>
      </trkpt>
      <trkpt lat="44.53841" lon="5.63702">
        <ele>1204.67</ele>
        <time>2018-08-16T13:00:40Z</time>
      </trkpt>
      <trkpt lat="44.53841" lon="5.63696">
        <ele>1204.19</ele>
        <time>2018-08-16T13:00:44Z</time>
      </trkpt>
      <trkpt lat="44.53855" lon="5.63676">
        <ele>1201.79</ele>
        <time>2018-08-16T13:01:01Z</time>
      </trkpt>
      <trkpt lat="44.53873" lon="5.63675">
        <ele>1200.34</ele>
        <time>2018-08-16T13:01:15Z</time>
      </trkpt>
      <trkpt lat="44.53893" lon="5.63673">
        <ele>1198.9</ele>
        <time>2018-08-16T13:01:31Z</time>
      </trkpt>
      <trkpt lat="44.53911" lon="5.63673">
        <ele>1196.5</ele>
        <time>2018-08-16T13:01:47Z</time>
      </trkpt>
      <trkpt lat="44.53914" lon="5.63672">
        <ele>1196.02</ele>
        <time>2018-08-16T13:01:50Z</time>
      </trkpt>
      <trkpt lat="44.53934" lon="5.63671">
        <ele>1194.09</ele>
        <time>2018-08-16T13:02:06Z</time>
      </trkpt>
      <trkpt lat="44.53952" lon="5.63667">
        <ele>1191.69</ele>
        <time>2018-08-16T13:02:22Z</time>
      </trkpt>
      <trkpt lat="44.53969" lon="5.63664">
        <ele>1190.25</ele>
        <time>2018-08-16T13:02:36Z</time>
      </trkpt>
      <trkpt lat="44.53986" lon="5.6367">
        <ele>1188.33</ele>
        <time>2018-08-16T13:02:52Z</time>
      </trkpt>
      <trkpt lat="44.54003" lon="5.63669">
        <ele>1186.4</ele>
        <time>2018-08-16T13:03:07Z</time>
      </trkpt>
      <trkpt lat="44.54017" lon="5.6366">
        <ele>1184.48</ele>
        <time>2018-08-16T13:03:21Z</time>
      </trkpt>
      <trkpt lat="44.5403" lon="5.63644">
        <ele>1183.04</ele>
        <time>2018-08-16T13:03:36Z</time>
      </trkpt>
      <trkpt lat="44.54039" lon="5.63625">
        <ele>1181.6</ele>
        <time>2018-08-16T13:03:51Z</time>
      </trkpt>
      <trkpt lat="44.5405" lon="5.63603">
        <ele>1179.67</ele>
        <time>2018-08-16T13:04:07Z</time>
      </trkpt>
      <trkpt lat="44.5405" lon="5.63601">
        <ele>1179.67</ele>
        <time>2018-08-16T13:04:08Z</time>
      </trkpt>
      <trkpt lat="44.54053" lon="5.63598">
        <ele>1178.71</ele>
        <time>2018-08-16T13:04:11Z</time>
      </trkpt>
      <trkpt lat="44.54062" lon="5.63581">
        <ele>1176.31</ele>
        <time>2018-08-16T13:04:24Z</time>
      </trkpt>
      <trkpt lat="44.54066" lon="5.63577">
        <ele>1175.83</ele>
        <time>2018-08-16T13:04:40Z</time>
      </trkpt>
      <trkpt lat="44.54065" lon="5.63574">
        <ele>1175.35</ele>
        <time>2018-08-16T13:05:00Z</time>
      </trkpt>
      <trkpt lat="44.54069" lon="5.63571">
        <ele>1174.87</ele>
        <time>2018-08-16T13:05:16Z</time>
      </trkpt>
      <trkpt lat="44.54069" lon="5.6357">
        <ele>1173.91</ele>
        <time>2018-08-16T13:05:30Z</time>
      </trkpt>
      <trkpt lat="44.54072" lon="5.63581">
        <ele>1171.5</ele>
        <time>2018-08-16T13:05:45Z</time>
      </trkpt>
      <trkpt lat="44.54075" lon="5.63582">
        <ele>1168.62</ele>
        <time>2018-08-16T13:05:57Z</time>
      </trkpt>
      <trkpt lat="44.54079" lon="5.63578">
        <ele>1167.18</ele>
        <time>2018-08-16T13:06:15Z</time>
      </trkpt>
      <trkpt lat="44.54084" lon="5.63565">
        <ele>1164.29</ele>
        <time>2018-08-16T13:06:29Z</time>
      </trkpt>
      <trkpt lat="44.54092" lon="5.63554">
        <ele>1162.37</ele>
        <time>2018-08-16T13:06:42Z</time>
      </trkpt>
      <trkpt lat="44.54101" lon="5.63551">
        <ele>1159.97</ele>
        <time>2018-08-16T13:06:52Z</time>
      </trkpt>
      <trkpt lat="44.54108" lon="5.63559">
        <ele>1157.08</ele>
        <time>2018-08-16T13:07:05Z</time>
      </trkpt>
      <trkpt lat="44.54116" lon="5.63561">
        <ele>1154.2</ele>
        <time>2018-08-16T13:07:17Z</time>
      </trkpt>
      <trkpt lat="44.54127" lon="5.63566">
        <ele>1152.28</ele>
        <time>2018-08-16T13:07:30Z</time>
      </trkpt>
      <trkpt lat="44.54136" lon="5.63569">
        <ele>1152.76</ele>
        <time>2018-08-16T13:07:39Z</time>
      </trkpt>
      <trkpt lat="44.54145" lon="5.63577">
        <ele>1152.28</ele>
        <time>2018-08-16T13:07:49Z</time>
      </trkpt>
      <trkpt lat="44.54157" lon="5.63587">
        <ele>1151.8</ele>
        <time>2018-08-16T13:08:03Z</time>
      </trkpt>
      <trkpt lat="44.54172" lon="5.63595">
        <ele>1149.87</ele>
        <time>2018-08-16T13:08:21Z</time>
      </trkpt>
      <trkpt lat="44.54178" lon="5.63594">
        <ele>1148.91</ele>
        <time>2018-08-16T13:08:27Z</time>
      </trkpt>
      <trkpt lat="44.5419" lon="5.63586">
        <ele>1146.03</ele>
        <time>2018-08-16T13:08:41Z</time>
      </trkpt>
      <trkpt lat="44.54198" lon="5.63581">
        <ele>1142.66</ele>
        <time>2018-08-16T13:08:53Z</time>
      </trkpt>
      <trkpt lat="44.54205" lon="5.63573">
        <ele>1139.3</ele>
        <time>2018-08-16T13:09:04Z</time>
      </trkpt>
      <trkpt lat="44.54212" lon="5.63566">
        <ele>1136.42</ele>
        <time>2018-08-16T13:09:16Z</time>
      </trkpt>
      <trkpt lat="44.5422" lon="5.6356">
        <ele>1133.05</ele>
        <time>2018-08-16T13:09:27Z</time>
      </trkpt>
      <trkpt lat="44.54227" lon="5.63563">
        <ele>1129.69</ele>
        <time>2018-08-16T13:09:39Z</time>
      </trkpt>
      <trkpt lat="44.54235" lon="5.63564">
        <ele>1126.8</ele>
        <time>2018-08-16T13:09:50Z</time>
      </trkpt>
      <trkpt lat="44.54241" lon="5.63556">
        <ele>1123.44</ele>
        <time>2018-08-16T13:10:02Z</time>
      </trkpt>
      <trkpt lat="44.54249" lon="5.63543">
        <ele>1121.03</ele>
        <time>2018-08-16T13:10:15Z</time>
      </trkpt>
      <trkpt lat="44.54259" lon="5.63529">
        <ele>1119.11</ele>
        <time>2018-08-16T13:10:29Z</time>
      </trkpt>
      <trkpt lat="44.54272" lon="5.63519">
        <ele>1115.75</ele>
        <time>2018-08-16T13:10:44Z</time>
      </trkpt>
      <trkpt lat="44.54274" lon="5.63515">
        <ele>1114.31</ele>
        <time>2018-08-16T13:10:49Z</time>
      </trkpt>
      <trkpt lat="44.54279" lon="5.63507">
        <ele>1112.86</ele>
        <time>2018-08-16T13:10:57Z</time>
      </trkpt>
      <trkpt lat="44.54283" lon="5.63499">
        <ele>1111.9</ele>
        <time>2018-08-16T13:11:05Z</time>
      </trkpt>
      <trkpt lat="44.54286" lon="5.63493">
        <ele>1110.46</ele>
        <time>2018-08-16T13:11:12Z</time>
      </trkpt>
      <trkpt lat="44.5429" lon="5.63491">
        <ele>1109.5</ele>
        <time>2018-08-16T13:11:16Z</time>
      </trkpt>
      <trkpt lat="44.54304" lon="5.63492">
        <ele>1107.1</ele>
        <time>2018-08-16T13:11:31Z</time>
      </trkpt>
      <trkpt lat="44.54318" lon="5.63484">
        <ele>1105.17</ele>
        <time>2018-08-16T13:11:46Z</time>
      </trkpt>
      <trkpt lat="44.54322" lon="5.63481">
        <ele>1104.21</ele>
        <time>2018-08-16T13:11:51Z</time>
      </trkpt>
      <trkpt lat="44.54333" lon="5.63471">
        <ele>1102.29</ele>
        <time>2018-08-16T13:12:05Z</time>
      </trkpt>
      <trkpt lat="44.54343" lon="5.63453">
        <ele>1100.37</ele>
        <time>2018-08-16T13:12:22Z</time>
      </trkpt>
      <trkpt lat="44.54351" lon="5.63437">
        <ele>1100.37</ele>
        <time>2018-08-16T13:12:38Z</time>
      </trkpt>
      <trkpt lat="44.54361" lon="5.6343">
        <ele>1099.4</ele>
        <time>2018-08-16T13:12:51Z</time>
      </trkpt>
      <trkpt lat="44.54374" lon="5.63423">
        <ele>1098.92</ele>
        <time>2018-08-16T13:13:06Z</time>
      </trkpt>
      <trkpt lat="44.54382" lon="5.63413">
        <ele>1099.4</ele>
        <time>2018-08-16T13:13:19Z</time>
      </trkpt>
      <trkpt lat="44.54387" lon="5.63416">
        <ele>1100.37</ele>
        <time>2018-08-16T13:13:27Z</time>
      </trkpt>
      <trkpt lat="44.54392" lon="5.63424">
        <ele>1100.37</ele>
        <time>2018-08-16T13:13:42Z</time>
      </trkpt>
      <trkpt lat="44.54391" lon="5.63431">
        <ele>1097.48</ele>
        <time>2018-08-16T13:13:56Z</time>
      </trkpt>
      <trkpt lat="44.5439" lon="5.63431">
        <ele>1097</ele>
        <time>2018-08-16T13:14:10Z</time>
      </trkpt>
      <trkpt lat="44.54392" lon="5.63431">
        <ele>1096.52</ele>
        <time>2018-08-16T13:14:25Z</time>
      </trkpt>
      <trkpt lat="44.54396" lon="5.63435">
        <ele>1097</ele>
        <time>2018-08-16T13:14:57Z</time>
      </trkpt>
      <trkpt lat="44.54398" lon="5.63433">
        <ele>1096.52</ele>
        <time>2018-08-16T13:15:13Z</time>
      </trkpt>
      <trkpt lat="44.54396" lon="5.63436">
        <ele>1096.52</ele>
        <time>2018-08-16T13:15:33Z</time>
      </trkpt>
      <trkpt lat="44.54395" lon="5.63437">
        <ele>1096.52</ele>
        <time>2018-08-16T13:15:59Z</time>
      </trkpt>
      <trkpt lat="44.54398" lon="5.63436">
        <ele>1096.04</ele>
        <time>2018-08-16T13:16:23Z</time>
      </trkpt>
      <trkpt lat="44.54408" lon="5.63437">
        <ele>1094.12</ele>
        <time>2018-08-16T13:16:37Z</time>
      </trkpt>
      <trkpt lat="44.54419" lon="5.63431">
        <ele>1092.68</ele>
        <time>2018-08-16T13:16:52Z</time>
      </trkpt>
      <trkpt lat="44.54431" lon="5.63428">
        <ele>1090.27</ele>
        <time>2018-08-16T13:17:07Z</time>
      </trkpt>
      <trkpt lat="44.54434" lon="5.63431">
        <ele>1089.79</ele>
        <time>2018-08-16T13:17:21Z</time>
      </trkpt>
      <trkpt lat="44.54436" lon="5.63433">
        <ele>1089.79</ele>
        <time>2018-08-16T13:17:37Z</time>
      </trkpt>
      <trkpt lat="44.54437" lon="5.63434">
        <ele>1089.79</ele>
        <time>2018-08-16T13:17:58Z</time>
      </trkpt>
      <trkpt lat="44.54438" lon="5.63436">
        <ele>1089.79</ele>
        <time>2018-08-16T13:18:15Z</time>
      </trkpt>
      <trkpt lat="44.54436" lon="5.6344">
        <ele>1089.31</ele>
        <time>2018-08-16T13:18:34Z</time>
      </trkpt>
      <trkpt lat="44.54439" lon="5.63441">
        <ele>1089.31</ele>
        <time>2018-08-16T13:18:49Z</time>
      </trkpt>
      <trkpt lat="44.54441" lon="5.6344">
        <ele>1089.31</ele>
        <time>2018-08-16T13:19:10Z</time>
      </trkpt>
      <trkpt lat="44.54445" lon="5.63442">
        <ele>1089.79</ele>
        <time>2018-08-16T13:19:39Z</time>
      </trkpt>
      <trkpt lat="44.54457" lon="5.63459">
        <ele>1088.83</ele>
        <time>2018-08-16T13:19:56Z</time>
      </trkpt>
      <trkpt lat="44.54468" lon="5.63471">
        <ele>1085.95</ele>
        <time>2018-08-16T13:20:11Z</time>
      </trkpt>
      <trkpt lat="44.54476" lon="5.63475">
        <ele>1082.58</ele>
        <time>2018-08-16T13:20:24Z</time>
      </trkpt>
      <trkpt lat="44.54488" lon="5.63477">
        <ele>1079.7</ele>
        <time>2018-08-16T13:20:38Z</time>
      </trkpt>
      <trkpt lat="44.54501" lon="5.6348">
        <ele>1076.81</ele>
        <time>2018-08-16T13:20:54Z</time>
      </trkpt>
      <trkpt lat="44.54505" lon="5.63479">
        <ele>1075.85</ele>
        <time>2018-08-16T13:20:59Z</time>
      </trkpt>
      <trkpt lat="44.54519" lon="5.63479">
        <ele>1072.97</ele>
        <time>2018-08-16T13:21:13Z</time>
      </trkpt>
      <trkpt lat="44.54534" lon="5.63489">
        <ele>1071.53</ele>
        <time>2018-08-16T13:21:29Z</time>
      </trkpt>
      <trkpt lat="44.54549" lon="5.63493">
        <ele>1069.6</ele>
        <time>2018-08-16T13:21:43Z</time>
      </trkpt>
      <trkpt lat="44.54563" lon="5.63499">
        <ele>1071.05</ele>
        <time>2018-08-16T13:21:58Z</time>
      </trkpt>
      <trkpt lat="44.5458" lon="5.63498">
        <ele>1067.68</ele>
        <time>2018-08-16T13:22:15Z</time>
      </trkpt>
      <trkpt lat="44.5459" lon="5.63494">
        <ele>1064.8</ele>
        <time>2018-08-16T13:22:26Z</time>
      </trkpt>
      <trkpt lat="44.54599" lon="5.63489">
        <ele>1061.43</ele>
        <time>2018-08-16T13:22:37Z</time>
      </trkpt>
      <trkpt lat="44.5461" lon="5.63488">
        <ele>1058.55</ele>
        <time>2018-08-16T13:22:47Z</time>
      </trkpt>
      <trkpt lat="44.54621" lon="5.63487">
        <ele>1055.18</ele>
        <time>2018-08-16T13:22:58Z</time>
      </trkpt>
      <trkpt lat="44.54631" lon="5.63489">
        <ele>1052.3</ele>
        <time>2018-08-16T13:23:08Z</time>
      </trkpt>
      <trkpt lat="44.54643" lon="5.63486">
        <ele>1048.45</ele>
        <time>2018-08-16T13:23:21Z</time>
      </trkpt>
      <trkpt lat="44.54657" lon="5.63478">
        <ele>1045.57</ele>
        <time>2018-08-16T13:23:35Z</time>
      </trkpt>
      <trkpt lat="44.54667" lon="5.63474">
        <ele>1042.21</ele>
        <time>2018-08-16T13:23:47Z</time>
      </trkpt>
      <trkpt lat="44.54678" lon="5.63471">
        <ele>1038.84</ele>
        <time>2018-08-16T13:23:58Z</time>
      </trkpt>
      <trkpt lat="44.54685" lon="5.63468">
        <ele>1035.96</ele>
        <time>2018-08-16T13:24:07Z</time>
      </trkpt>
      <trkpt lat="44.54692" lon="5.63475">
        <ele>1034.04</ele>
        <time>2018-08-16T13:24:13Z</time>
      </trkpt>
      <trkpt lat="44.54693" lon="5.63478">
        <ele>1033.55</ele>
        <time>2018-08-16T13:24:15Z</time>
      </trkpt>
      <trkpt lat="44.54699" lon="5.63493">
        <ele>1030.19</ele>
        <time>2018-08-16T13:24:27Z</time>
      </trkpt>
      <trkpt lat="44.54708" lon="5.63489">
        <ele>1026.83</ele>
        <time>2018-08-16T13:24:39Z</time>
      </trkpt>
      <trkpt lat="44.5471" lon="5.635">
        <ele>1023.46</ele>
        <time>2018-08-16T13:24:51Z</time>
      </trkpt>
      <trkpt lat="44.54709" lon="5.6351">
        <ele>1020.1</ele>
        <time>2018-08-16T13:25:04Z</time>
      </trkpt>
      <trkpt lat="44.54712" lon="5.63518">
        <ele>1017.21</ele>
        <time>2018-08-16T13:25:17Z</time>
      </trkpt>
      <trkpt lat="44.54719" lon="5.63516">
        <ele>1014.33</ele>
        <time>2018-08-16T13:25:29Z</time>
      </trkpt>
      <trkpt lat="44.54724" lon="5.63522">
        <ele>1011.44</ele>
        <time>2018-08-16T13:25:42Z</time>
      </trkpt>
      <trkpt lat="44.54717" lon="5.63534">
        <ele>1008.08</ele>
        <time>2018-08-16T13:25:57Z</time>
      </trkpt>
      <trkpt lat="44.54718" lon="5.63535">
        <ele>1008.08</ele>
        <time>2018-08-16T13:26:09Z</time>
      </trkpt>
      <trkpt lat="44.54717" lon="5.63546">
        <ele>1005.2</ele>
        <time>2018-08-16T13:26:23Z</time>
      </trkpt>
      <trkpt lat="44.54722" lon="5.63551">
        <ele>1002.79</ele>
        <time>2018-08-16T13:26:38Z</time>
      </trkpt>
      <trkpt lat="44.54724" lon="5.63556">
        <ele>1000.87</ele>
        <time>2018-08-16T13:26:54Z</time>
      </trkpt>
      <trkpt lat="44.54724" lon="5.63561">
        <ele>999.43</ele>
        <time>2018-08-16T13:27:08Z</time>
      </trkpt>
      <trkpt lat="44.54728" lon="5.63566">
        <ele>997.51</ele>
        <time>2018-08-16T13:27:22Z</time>
      </trkpt>
      <trkpt lat="44.54735" lon="5.63571">
        <ele>995.1</ele>
        <time>2018-08-16T13:27:35Z</time>
      </trkpt>
      <trkpt lat="44.54742" lon="5.63573">
        <ele>992.22</ele>
        <time>2018-08-16T13:27:49Z</time>
      </trkpt>
      <trkpt lat="44.54746" lon="5.63584">
        <ele>989.33</ele>
        <time>2018-08-16T13:28:03Z</time>
      </trkpt>
      <trkpt lat="44.5475" lon="5.63594">
        <ele>987.41</ele>
        <time>2018-08-16T13:28:16Z</time>
      </trkpt>
      <trkpt lat="44.54755" lon="5.636">
        <ele>985.01</ele>
        <time>2018-08-16T13:28:29Z</time>
      </trkpt>
      <trkpt lat="44.54757" lon="5.63608">
        <ele>982.6</ele>
        <time>2018-08-16T13:28:41Z</time>
      </trkpt>
      <trkpt lat="44.54759" lon="5.63618">
        <ele>980.2</ele>
        <time>2018-08-16T13:28:56Z</time>
      </trkpt>
      <trkpt lat="44.54761" lon="5.63621">
        <ele>979.72</ele>
        <time>2018-08-16T13:29:11Z</time>
      </trkpt>
      <trkpt lat="44.54763" lon="5.63623">
        <ele>979.24</ele>
        <time>2018-08-16T13:29:29Z</time>
      </trkpt>
      <trkpt lat="44.54764" lon="5.63623">
        <ele>979.24</ele>
        <time>2018-08-16T13:29:49Z</time>
      </trkpt>
      <trkpt lat="44.54764" lon="5.63623">
        <ele>978.28</ele>
        <time>2018-08-16T13:29:58Z</time>
      </trkpt>
      <trkpt lat="44.54763" lon="5.63622">
        <ele>977.8</ele>
        <time>2018-08-16T13:30:17Z</time>
      </trkpt>
      <trkpt lat="44.54761" lon="5.63623">
        <ele>978.28</ele>
        <time>2018-08-16T13:30:50Z</time>
      </trkpt>
      <trkpt lat="44.54762" lon="5.6362">
        <ele>978.76</ele>
        <time>2018-08-16T13:31:03Z</time>
      </trkpt>
      <trkpt lat="44.54767" lon="5.63623">
        <ele>977.8</ele>
        <time>2018-08-16T13:31:21Z</time>
      </trkpt>
      <trkpt lat="44.54763" lon="5.63623">
        <ele>978.28</ele>
        <time>2018-08-16T13:31:34Z</time>
      </trkpt>
      <trkpt lat="44.54771" lon="5.63624">
        <ele>976.36</ele>
        <time>2018-08-16T13:31:49Z</time>
      </trkpt>
      <trkpt lat="44.54781" lon="5.63628">
        <ele>974.43</ele>
        <time>2018-08-16T13:31:59Z</time>
      </trkpt>
      <trkpt lat="44.54787" lon="5.63628">
        <ele>972.51</ele>
        <time>2018-08-16T13:32:06Z</time>
      </trkpt>
      <trkpt lat="44.54796" lon="5.63614">
        <ele>969.15</ele>
        <time>2018-08-16T13:32:20Z</time>
      </trkpt>
      <trkpt lat="44.54803" lon="5.63606">
        <ele>966.74</ele>
        <time>2018-08-16T13:32:30Z</time>
      </trkpt>
      <trkpt lat="44.54811" lon="5.63599">
        <ele>963.86</ele>
        <time>2018-08-16T13:32:40Z</time>
      </trkpt>
      <trkpt lat="44.54822" lon="5.63595">
        <ele>961.46</ele>
        <time>2018-08-16T13:32:55Z</time>
      </trkpt>
      <trkpt lat="44.54831" lon="5.6359">
        <ele>959.05</ele>
        <time>2018-08-16T13:33:07Z</time>
      </trkpt>
      <trkpt lat="44.54842" lon="5.63578">
        <ele>956.17</ele>
        <time>2018-08-16T13:33:22Z</time>
      </trkpt>
      <trkpt lat="44.54842" lon="5.63577">
        <ele>956.17</ele>
        <time>2018-08-16T13:33:23Z</time>
      </trkpt>
      <trkpt lat="44.54847" lon="5.63566">
        <ele>954.25</ele>
        <time>2018-08-16T13:33:37Z</time>
      </trkpt>
      <trkpt lat="44.54854" lon="5.63554">
        <ele>951.84</ele>
        <time>2018-08-16T13:33:50Z</time>
      </trkpt>
      <trkpt lat="44.54862" lon="5.63552">
        <ele>949.92</ele>
        <time>2018-08-16T13:34:03Z</time>
      </trkpt>
      <trkpt lat="44.54873" lon="5.63544">
        <ele>946.56</ele>
        <time>2018-08-16T13:34:18Z</time>
      </trkpt>
      <trkpt lat="44.54877" lon="5.63541">
        <ele>946.56</ele>
        <time>2018-08-16T13:34:22Z</time>
      </trkpt>
      <trkpt lat="44.54891" lon="5.63533">
        <ele>943.67</ele>
        <time>2018-08-16T13:34:38Z</time>
      </trkpt>
      <trkpt lat="44.54901" lon="5.63526">
        <ele>940.31</ele>
        <time>2018-08-16T13:34:51Z</time>
      </trkpt>
      <trkpt lat="44.54913" lon="5.63517">
        <ele>936.94</ele>
        <time>2018-08-16T13:35:04Z</time>
      </trkpt>
      <trkpt lat="44.54917" lon="5.63517">
        <ele>936.46</ele>
        <time>2018-08-16T13:35:08Z</time>
      </trkpt>
      <trkpt lat="44.5493" lon="5.63525">
        <ele>933.58</ele>
        <time>2018-08-16T13:35:21Z</time>
      </trkpt>
      <trkpt lat="44.54942" lon="5.63532">
        <ele>930.21</ele>
        <time>2018-08-16T13:35:36Z</time>
      </trkpt>
      <trkpt lat="44.54957" lon="5.63537">
        <ele>927.33</ele>
        <time>2018-08-16T13:35:50Z</time>
      </trkpt>
      <trkpt lat="44.54958" lon="5.63538">
        <ele>926.85</ele>
        <time>2018-08-16T13:35:51Z</time>
      </trkpt>
      <trkpt lat="44.54961" lon="5.63542">
        <ele>926.37</ele>
        <time>2018-08-16T13:35:55Z</time>
      </trkpt>
      <trkpt lat="44.54963" lon="5.63546">
        <ele>925.89</ele>
        <time>2018-08-16T13:35:59Z</time>
      </trkpt>
      <trkpt lat="44.54974" lon="5.63553">
        <ele>922.52</ele>
        <time>2018-08-16T13:36:15Z</time>
      </trkpt>
      <trkpt lat="44.54989" lon="5.63552">
        <ele>919.64</ele>
        <time>2018-08-16T13:36:29Z</time>
      </trkpt>
      <trkpt lat="44.55003" lon="5.63557">
        <ele>916.75</ele>
        <time>2018-08-16T13:36:43Z</time>
      </trkpt>
      <trkpt lat="44.55019" lon="5.63568">
        <ele>913.87</ele>
        <time>2018-08-16T13:37:01Z</time>
      </trkpt>
      <trkpt lat="44.55037" lon="5.63579">
        <ele>911.95</ele>
        <time>2018-08-16T13:37:19Z</time>
      </trkpt>
      <trkpt lat="44.55058" lon="5.63586">
        <ele>910.03</ele>
        <time>2018-08-16T13:37:38Z</time>
      </trkpt>
      <trkpt lat="44.55076" lon="5.63589">
        <ele>908.1</ele>
        <time>2018-08-16T13:37:53Z</time>
      </trkpt>
      <trkpt lat="44.55098" lon="5.63594">
        <ele>906.66</ele>
        <time>2018-08-16T13:38:12Z</time>
      </trkpt>
      <trkpt lat="44.55115" lon="5.63596">
        <ele>905.22</ele>
        <time>2018-08-16T13:38:28Z</time>
      </trkpt>
      <trkpt lat="44.55131" lon="5.63603">
        <ele>903.78</ele>
        <time>2018-08-16T13:38:43Z</time>
      </trkpt>
      <trkpt lat="44.55141" lon="5.63619">
        <ele>902.82</ele>
        <time>2018-08-16T13:38:58Z</time>
      </trkpt>
      <trkpt lat="44.55143" lon="5.63627">
        <ele>903.3</ele>
        <time>2018-08-16T13:39:04Z</time>
      </trkpt>
      <trkpt lat="44.55142" lon="5.63638">
        <ele>901.85</ele>
        <time>2018-08-16T13:39:19Z</time>
      </trkpt>
      <trkpt lat="44.55141" lon="5.63641">
        <ele>901.85</ele>
        <time>2018-08-16T13:39:25Z</time>
      </trkpt>
      <trkpt lat="44.55135" lon="5.63667">
        <ele>901.37</ele>
        <time>2018-08-16T13:39:44Z</time>
      </trkpt>
      <trkpt lat="44.55136" lon="5.63688">
        <ele>900.89</ele>
        <time>2018-08-16T13:39:59Z</time>
      </trkpt>
      <trkpt lat="44.5514" lon="5.63695">
        <ele>900.89</ele>
        <time>2018-08-16T13:40:05Z</time>
      </trkpt>
      <trkpt lat="44.55155" lon="5.63703">
        <ele>900.41</ele>
        <time>2018-08-16T13:40:21Z</time>
      </trkpt>
      <trkpt lat="44.55167" lon="5.63712">
        <ele>899.93</ele>
        <time>2018-08-16T13:40:36Z</time>
      </trkpt>
      <trkpt lat="44.55171" lon="5.63715">
        <ele>899.45</ele>
        <time>2018-08-16T13:40:49Z</time>
      </trkpt>
      <trkpt lat="44.55172" lon="5.63714">
        <ele>898.97</ele>
        <time>2018-08-16T13:40:50Z</time>
      </trkpt>
      <trkpt lat="44.55187" lon="5.637">
        <ele>898.97</ele>
        <time>2018-08-16T13:41:08Z</time>
      </trkpt>
      <trkpt lat="44.55203" lon="5.63682">
        <ele>898.97</ele>
        <time>2018-08-16T13:41:27Z</time>
      </trkpt>
      <trkpt lat="44.55206" lon="5.6368">
        <ele>898.97</ele>
        <time>2018-08-16T13:41:30Z</time>
      </trkpt>
      <trkpt lat="44.55212" lon="5.6367">
        <ele>898.97</ele>
        <time>2018-08-16T13:41:40Z</time>
      </trkpt>
      <trkpt lat="44.55217" lon="5.63648">
        <ele>899.45</ele>
        <time>2018-08-16T13:41:56Z</time>
      </trkpt>
      <trkpt lat="44.55219" lon="5.63625">
        <ele>899.45</ele>
        <time>2018-08-16T13:42:14Z</time>
      </trkpt>
      <trkpt lat="44.55225" lon="5.63604">
        <ele>900.41</ele>
        <time>2018-08-16T13:42:31Z</time>
      </trkpt>
      <trkpt lat="44.55225" lon="5.63597">
        <ele>900.89</ele>
        <time>2018-08-16T13:42:44Z</time>
      </trkpt>
      <trkpt lat="44.55224" lon="5.63598">
        <ele>900.41</ele>
        <time>2018-08-16T13:42:54Z</time>
      </trkpt>
      <trkpt lat="44.55225" lon="5.63598">
        <ele>901.37</ele>
        <time>2018-08-16T13:43:13Z</time>
      </trkpt>
      <trkpt lat="44.55224" lon="5.63596">
        <ele>900.41</ele>
        <time>2018-08-16T13:43:26Z</time>
      </trkpt>
    </trkseg>
  </trk>
</gpx>